[[{"header":{"parameterUnit":"m.s-1","parameterCategory":1,"la1":30.6,"la2":29.2853,"lo1":-89.7004,"lo2":-87.6739,"dy":0.0162,"dx":0.0183,"nx":112,"ny":82,"refTime":"2023-09-20T18:00:00:Z","depth":0,"parameterNumber":2,"parameterNumberName":"U-component_of_WINDS"},"data":[0.0,0.0,0.0,0.0,0.0,0.0,0.0,0.0,0.0,0.0,0.0,0.0,0.0,0.0,0.0,0.0,0.0,0.0,0.0,0.0,0.0,0.0,0.0,0.0,0.0,0.0,0.0,0.0,0.0,0.0,0.0,0.0,0.0,0.0,0.0,0.0,0.0,0.0,0.0,0.0,0.0,0.0,0.0,0.0,0.0,0.0,0.0,0.0,0.0,0.0,0.0,0.0,0.0,0.0,0.0,0.0,0.0,0.0,0.0,0.0,0.0,0.0,0.0,0.0,0.0,0.0,0.0,0.0,0.0,0.0,0.0,0.0,0.0,0.0,0.0,0.0,0.0,0.0,0.0,0.0,0.0,0.0,0.0,0.0,0.0,0.0,0.0,0.0,0.0,0.0,0.0,-1.2747,-1.5773,-1.8195,-1.9548,-1.9853,-1.9132,-1.7168,0.0,0.0,0.0,0.0,0.0,0.0,0.0,0.0,0.0,0.0,0.0,0.0,0.0,0.0,0.0,0.0,0.0,0.0,0.0,0.0,0.0,0.0,0.0,0.0,0.0,0.0,0.0,0.0,0.0,0.0,0.0,0.0,0.0,0.0,0.0,0.0,0.0,0.0,0.0,0.0,0.0,0.0,0.0,0.0,0.0,0.0,0.0,0.0,0.0,0.0,0.0,0.0,0.0,0.0,0.0,0.0,0.0,0.0,0.0,0.0,0.0,0.0,0.0,0.0,0.0,0.0,0.0,0.0,0.0,0.0,0.0,0.0,0.0,0.0,0.0,0.0,0.0,0.0,0.0,0.0,0.0,0.0,0.0,0.0,0.0,0.0,0.0,0.0,0.0,0.0,0.0,0.0,0.0,0.0,0.0,0.0,0.0,0.0,0.0,0.0,0.0,0.0,0.0,0.0,-1.0817,-1.3287,-1.6642,-1.8766,-1.8994,-1.8878,-1.829,-1.7246,0.0,0.0,0.0,0.0,0.0,0.0,0.0,0.0,0.0,0.0,0.0,0.0,0.0,0.0,0.0,0.0,0.0,0.0,0.0,0.0,0.0,0.0,0.0,0.0,0.0,0.0,0.0,0.0,0.0,0.0,0.0,0.0,0.0,0.0,0.0,0.0,0.0,0.0,0.0,0.0,0.0,0.0,0.0,0.0,0.0,0.0,0.0,0.0,0.0,0.0,0.0,0.0,0.0,0.0,0.0,0.0,0.0,0.0,0.0,0.0,0.0,0.0,0.0,0.0,0.0,0.0,0.0,0.0,0.0,0.0,0.0,0.0,0.0,0.0,0.0,0.0,0.0,0.0,0.0,0.0,0.0,0.0,0.0,0.0,0.0,0.0,0.0,0.0,0.0,0.0,0.0,0.0,0.0,0.0,0.0,0.0,0.0,0.0,0.0,0.0,0.0,0.0,0.0,-0.9427,-1.1211,-1.3237,-1.5664,-1.7482,-1.834,-1.833,-1.7529,-1.5859,-1.636,0.0,0.0,0.0,0.0,0.0,0.0,0.0,0.0,0.0,0.0,0.0,0.0,0.0,0.0,0.0,0.0,0.0,0.0,0.0,0.0,0.0,0.0,0.0,0.0,0.0,0.0,0.0,0.0,0.0,0.0,0.0,0.0,0.0,0.0,0.0,0.0,0.0,0.0,0.0,0.0,0.0,0.0,0.0,0.0,0.0,0.0,0.0,0.0,0.0,0.0,0.0,0.0,0.0,0.0,0.0,0.0,0.0,0.0,0.0,0.0,0.0,0.0,0.0,0.0,0.0,0.0,0.0,0.0,0.0,0.0,0.0,0.0,0.0,0.0,0.0,0.0,0.0,0.0,0.0,0.0,0.0,0.0,0.0,0.0,0.0,0.0,0.0,0.0,0.0,0.0,0.0,0.0,0.0,0.0,0.0,0.0,0.0,0.0,0.0,0.0,0.0,0.0,-1.0396,-1.1956,-1.3611,-1.5221,-1.6609,-1.7822,-1.7756,-1.6886,-1.5023,-1.559,0.0,0.0,0.0,0.0,0.0,0.0,0.0,0.0,0.0,0.0,0.0,0.0,0.0,0.0,0.0,0.0,0.0,0.0,0.0,0.0,0.0,0.0,0.0,0.0,0.0,0.0,0.0,0.0,0.0,0.0,0.0,0.0,0.0,0.0,0.0,0.0,0.0,0.0,0.0,0.0,0.0,0.0,0.0,0.0,0.0,0.0,0.0,0.0,0.0,0.0,0.0,0.0,0.0,0.0,0.0,0.0,0.0,0.0,0.0,0.0,0.0,0.0,0.0,0.0,0.0,0.0,0.0,0.0,0.0,0.0,0.0,0.0,0.0,0.0,0.0,0.0,0.0,0.0,0.0,0.0,0.0,0.0,0.0,0.0,0.0,0.0,0.0,0.0,0.0,0.0,0.0,0.0,0.0,0.0,0.0,0.0,0.0,0.0,0.0,0.0,0.0,0.0,-1.1617,-1.3309,-1.5098,-1.6577,-1.7503,-1.7609,-1.7114,-1.6597,-1.6202,-1.5511,0.0,0.0,0.0,0.0,0.0,0.0,0.0,0.0,0.0,0.0,0.0,0.0,0.0,0.0,0.0,0.0,0.0,0.0,0.0,0.0,0.0,0.0,0.0,0.0,0.0,0.0,0.0,0.0,0.0,0.0,0.0,0.0,0.0,0.0,0.0,0.0,0.0,0.0,0.0,0.0,0.0,0.0,0.0,0.0,0.0,0.0,0.0,0.0,0.0,0.0,0.0,0.0,0.0,0.0,0.0,0.0,0.0,0.0,0.0,0.0,0.0,0.0,0.0,0.0,0.0,0.0,0.0,0.0,0.0,0.0,0.0,0.0,0.0,0.0,0.0,0.0,0.0,0.0,0.0,0.0,0.0,0.0,0.0,0.0,0.0,0.0,0.0,0.0,0.0,0.0,0.0,0.0,0.0,0.0,0.0,0.0,0.0,0.0,0.0,0.0,0.0,0.0,-1.1694,-1.3388,0.0,-1.6406,-1.7286,-1.7048,-1.6834,-1.6433,-1.5765,0.0,0.0,0.0,0.0,0.0,0.0,0.0,0.0,0.0,0.0,0.0,0.0,0.0,0.0,0.0,0.0,0.0,0.0,0.0,0.0,0.0,0.0,0.0,0.0,0.0,0.0,0.0,0.0,0.0,0.0,0.0,0.0,0.0,0.0,0.0,0.0,0.0,0.0,0.0,0.0,0.0,0.0,0.0,0.0,0.0,0.0,0.0,0.0,0.0,0.0,0.0,0.0,0.0,0.0,0.0,0.0,0.0,0.0,0.0,0.0,0.0,0.0,0.0,0.0,0.0,0.0,0.0,0.0,0.0,0.0,0.0,0.0,0.0,0.0,0.0,0.0,0.0,0.0,0.0,0.0,0.0,0.0,0.0,0.0,0.0,0.0,0.0,0.0,0.0,0.0,0.0,0.0,0.0,0.0,0.0,0.0,0.0,0.0,0.0,0.0,0.0,0.0,-1.1048,-1.2532,-1.3992,0.0,-1.6691,-1.7208,-1.7007,-1.6727,-1.6273,-1.5578,0.0,0.0,0.0,0.0,0.0,0.0,0.0,0.0,0.0,0.0,0.0,0.0,0.0,0.0,0.0,0.0,0.0,0.0,0.0,0.0,0.0,0.0,0.0,0.0,0.0,0.0,0.0,0.0,0.0,0.0,0.0,0.0,0.0,0.0,0.0,0.0,0.0,0.0,0.0,0.0,0.0,0.0,0.0,0.0,0.0,0.0,0.0,0.0,0.0,0.0,0.0,0.0,0.0,0.0,0.0,0.0,0.0,0.0,0.0,0.0,0.0,0.0,0.0,0.0,0.0,0.0,0.0,0.0,0.0,0.0,0.0,0.0,0.0,0.0,0.0,0.0,0.0,0.0,0.0,0.0,0.0,0.0,0.0,0.0,0.0,0.0,0.0,0.0,0.0,0.0,0.0,0.0,0.0,0.0,0.0,0.0,0.0,0.0,0.0,0.0,0.0,0.0,-1.3682,-1.4529,-1.5514,-1.741,-1.7582,-1.7582,-1.7569,-1.678,-1.6152,0.0,0.0,0.0,0.0,0.0,0.0,0.0,0.0,0.0,0.0,0.0,0.0,0.0,0.0,0.0,0.0,0.0,0.0,0.0,0.0,0.0,0.0,0.0,0.0,0.0,0.0,0.0,0.0,0.0,0.0,0.0,0.0,0.0,0.0,0.0,0.0,0.0,0.0,0.0,0.0,0.0,0.0,0.0,0.0,0.0,0.0,0.0,0.0,0.0,0.0,0.0,0.0,0.0,0.0,0.0,0.0,0.0,0.0,0.0,0.0,0.0,0.0,0.0,0.0,0.0,0.0,0.0,0.0,0.0,0.0,0.0,0.0,0.0,0.0,0.0,0.0,0.0,0.0,0.0,0.0,0.0,0.0,0.0,0.0,0.0,0.0,0.0,0.0,0.0,0.0,0.0,0.0,0.0,0.0,0.0,0.0,0.0,0.0,0.0,0.0,0.0,0.0,0.0,-1.3825,-1.4529,-1.5514,-1.741,-1.7582,-1.7408,-1.6994,-1.6727,-1.5869,-1.4215,0.0,0.0,0.0,0.0,0.0,0.0,0.0,0.0,0.0,0.0,0.0,0.0,0.0,0.0,0.0,0.0,0.0,0.0,0.0,0.0,0.0,0.0,0.0,0.0,0.0,0.0,0.0,0.0,0.0,0.0,0.0,0.0,0.0,0.0,0.0,0.0,0.0,0.0,0.0,0.0,0.0,0.0,0.0,0.0,0.0,0.0,0.0,0.0,0.0,0.0,0.0,0.0,0.0,0.0,0.0,0.0,0.0,0.0,0.0,0.0,0.0,0.0,0.0,0.0,0.0,0.0,0.0,0.0,0.0,0.0,0.0,0.0,0.0,0.0,0.0,0.0,0.0,0.0,0.0,0.0,0.0,0.0,0.0,0.0,0.0,0.0,0.0,0.0,0.0,0.0,0.0,0.0,0.0,0.0,0.0,0.0,0.0,0.0,0.0,0.0,0.0,0.0,-1.4886,-1.552,-1.6266,-1.7596,-1.7769,-1.7582,-1.7101,-1.6366,-1.527,-1.3791,0.0,0.0,0.0,0.0,0.0,0.0,0.0,0.0,0.0,0.0,0.0,0.0,0.0,0.0,0.0,0.0,0.0,0.0,0.0,0.0,0.0,0.0,0.0,0.0,0.0,0.0,0.0,0.0,0.0,0.0,0.0,0.0,0.0,0.0,0.0,0.0,0.0,0.0,0.0,0.0,0.0,0.0,0.0,0.0,0.0,0.0,0.0,0.0,0.0,0.0,0.0,0.0,0.0,0.0,0.0,0.0,0.0,0.0,0.0,0.0,0.0,0.0,0.0,0.0,0.0,0.0,0.0,0.0,0.0,0.0,0.0,0.0,0.0,0.0,0.0,0.0,0.0,0.0,0.0,0.0,0.0,0.0,0.0,0.0,0.0,0.0,0.0,0.0,0.0,0.0,0.0,0.0,0.0,0.0,0.0,0.0,0.0,0.0,0.0,0.0,0.0,0.0,-1.6404,-1.6994,-1.7422,-1.7969,-1.8009,-1.7862,-1.745,-1.5803,-1.451,-1.3761,0.0,0.0,0.0,0.0,0.0,0.0,0.0,0.0,0.0,0.0,0.0,0.0,0.0,0.0,0.0,0.0,0.0,0.0,0.0,0.0,0.0,0.0,0.0,0.0,0.0,0.0,0.0,0.0,0.0,0.0,0.0,0.0,0.0,0.0,0.0,0.0,0.0,0.0,0.0,0.0,0.0,0.0,0.0,0.0,0.0,0.0,0.0,0.0,0.0,0.0,0.0,0.0,0.0,0.0,0.0,0.0,0.0,0.0,0.0,0.0,-1.8022,0.0,0.0,0.0,0.0,0.0,0.0,0.0,0.0,0.0,0.0,0.0,0.0,0.0,0.0,0.0,0.0,0.0,0.0,0.0,0.0,0.0,0.0,0.0,0.0,0.0,0.0,0.0,0.0,0.0,0.0,0.0,0.0,0.0,0.0,0.0,0.0,0.0,0.0,0.0,0.0,0.0,-1.6557,-1.7168,-1.7729,-1.833,-1.8129,-1.7419,-1.598,-1.5286,-1.385,-1.1175,-1.1502,0.0,0.0,0.0,0.0,0.0,0.0,0.0,0.0,0.0,0.0,0.0,0.0,0.0,0.0,0.0,0.0,0.0,0.0,0.0,0.0,0.0,0.0,0.0,0.0,0.0,0.0,0.0,0.0,0.0,0.0,0.0,0.0,0.0,0.0,0.0,0.0,0.0,0.0,0.0,0.0,0.0,0.0,0.0,0.0,0.0,0.0,0.0,0.0,0.0,0.0,0.0,0.0,0.0,0.0,0.0,0.0,0.0,0.0,0.0,0.0,-1.7736,0.0,0.0,0.0,0.0,0.0,0.0,0.0,0.0,0.0,0.0,0.0,0.0,0.0,0.0,0.0,0.0,0.0,0.0,0.0,0.0,0.0,0.0,0.0,0.0,0.0,0.0,0.0,0.0,0.0,0.0,0.0,0.0,0.0,0.0,0.0,0.0,0.0,0.0,0.0,0.0,-1.5971,-1.6396,-1.6592,-1.6331,-1.6136,-1.5618,-1.4592,-1.3603,-1.2307,-1.0647,-1.0331,0.0,0.0,0.0,0.0,0.0,0.0,0.0,0.0,0.0,0.0,0.0,0.0,0.0,0.0,0.0,0.0,0.0,0.0,0.0,0.0,0.0,0.0,0.0,0.0,0.0,0.0,0.0,0.0,0.0,0.0,0.0,0.0,0.0,0.0,0.0,0.0,0.0,0.0,0.0,0.0,0.0,0.0,0.0,0.0,0.0,0.0,0.0,0.0,0.0,0.0,0.0,0.0,0.0,-2.3969,-2.343,-2.2098,-2.2285,-2.2111,-2.159,-2.0628,-1.9326,-1.7933,-1.862,0.0,0.0,0.0,0.0,0.0,0.0,0.0,0.0,0.0,0.0,0.0,0.0,0.0,0.0,0.0,0.0,0.0,0.0,0.0,0.0,0.0,0.0,0.0,0.0,-1.8701,-1.8285,0.0,0.0,0.0,0.0,0.0,0.0,0.0,0.0,0.0,0.0,0.0,0.0,-1.5264,-1.5347,-1.5088,-1.4137,-1.3956,-1.3742,-1.3282,-1.1873,-1.0886,-1.056,-0.9167,-0.8275,0.0,0.0,0.0,0.0,0.0,0.0,0.0,0.0,0.0,0.0,0.0,0.0,0.0,0.0,0.0,0.0,0.0,0.0,0.0,0.0,0.0,0.0,0.0,0.0,0.0,0.0,0.0,0.0,0.0,0.0,0.0,0.0,-2.4151,-2.3067,0.0,0.0,0.0,0.0,0.0,0.0,0.0,0.0,0.0,0.0,0.0,0.0,0.0,-2.4381,-2.5056,-2.4341,-2.3911,-2.3755,-2.4309,-2.4407,-2.4222,-2.4008,-2.3875,-2.3794,-2.3634,0.0,-2.0592,-2.046,0.0,0.0,0.0,0.0,0.0,0.0,0.0,0.0,0.0,0.0,0.0,0.0,0.0,0.0,0.0,0.0,0.0,0.0,0.0,0.0,0.0,0.0,-2.0201,-1.9693,-1.9813,-1.9827,0.0,-1.7328,-1.5367,-1.3805,-1.4182,0.0,0.0,0.0,0.0,0.0,0.0,0.0,-1.5175,-1.4753,-1.4429,-1.4488,-1.4268,-1.3616,-1.232,-1.1725,-1.0795,-0.9251,-0.8852,-0.8581,-0.8431,-0.814,0.0,0.0,0.0,0.0,0.0,0.0,0.0,0.0,0.0,0.0,0.0,0.0,0.0,0.0,0.0,0.0,0.0,0.0,0.0,0.0,0.0,0.0,0.0,0.0,0.0,0.0,0.0,0.0,0.0,-2.4568,-2.4285,-2.2788,-2.3405,-2.3607,0.0,0.0,0.0,0.0,0.0,0.0,0.0,0.0,0.0,-2.6124,-2.5181,-2.483,-2.5333,-2.5303,-2.5157,-2.501,-2.5424,-2.5451,-2.513,-2.517,-2.5104,-2.4855,-2.363,-2.262,-2.1765,-2.1882,-2.1454,-2.0473,0.0,0.0,0.0,0.0,-1.5251,-1.5327,-1.4651,-1.4284,0.0,-1.4055,0.0,0.0,0.0,0.0,0.0,0.0,0.0,0.0,0.0,0.0,-1.8964,-1.8876,-1.9817,-2.0695,-2.0561,-1.9567,-1.823,0.0,-1.6792,-1.6774,-1.5808,0.0,0.0,0.0,0.0,-1.45,-1.3098,-1.2739,-1.2441,-1.172,-1.1504,-1.115,-1.0565,-1.0364,-0.9945,-0.9313,-0.9089,-0.8893,-0.8743,-0.8533,-0.9028,0.0,0.0,0.0,0.0,0.0,0.0,0.0,0.0,0.0,0.0,0.0,0.0,0.0,0.0,0.0,0.0,0.0,0.0,0.0,0.0,0.0,0.0,0.0,0.0,0.0,0.0,0.0,0.0,-2.4685,-2.4254,-2.2303,-2.3047,-2.3216,0.0,0.0,0.0,0.0,0.0,0.0,-2.613,-2.5437,-2.5442,-2.6369,-2.5841,-2.5665,-2.5959,-2.64,-2.6228,-2.5374,-2.5581,-2.5097,-2.408,-2.4359,-2.4268,-2.399,-2.242,-2.167,-2.1579,-2.1595,-2.1202,-2.0379,-1.8327,-1.7407,-1.6988,-1.53,-1.4726,-1.4678,-1.3848,-1.3427,-1.3111,-1.2308,0.0,-1.1425,-1.1516,0.0,0.0,0.0,0.0,-1.4349,-1.4725,-1.6033,-1.724,-1.749,-1.8689,-1.9737,-1.9737,-1.9525,-1.9269,0.0,-1.8931,-1.8377,-1.6821,0.0,0.0,0.0,0.0,-1.3442,-1.1431,-1.1085,-1.0646,-0.9607,-0.9395,-0.9367,-0.9483,-0.9388,-0.9408,-0.9598,-0.9395,-0.9432,-0.9608,-0.9406,-1.0269,-1.2344,0.0,0.0,0.0,0.0,0.0,0.0,0.0,0.0,0.0,0.0,0.0,0.0,0.0,0.0,0.0,0.0,0.0,0.0,0.0,0.0,0.0,0.0,0.0,0.0,0.0,0.0,0.0,0.0,0.0,-2.1886,-2.4633,0.0,0.0,0.0,0.0,-2.4525,-2.4066,-2.4103,-2.4709,-2.5214,-2.5728,-2.641,-2.6573,-2.6881,-2.7175,-2.7201,-2.6066,-2.3736,-2.3748,-2.2473,-2.02,-2.021,-2.021,-2.02,-2.0038,-1.9906,-1.9551,-1.8572,-1.803,-1.7826,-1.6837,-1.656,-1.6419,-1.4579,-1.4011,-1.4231,-1.4177,-1.3999,-1.4083,-1.604,-1.602,-1.4919,-1.3148,-1.3448,0.0,0.0,-1.513,-1.5594,-1.5614,-1.5904,-1.6156,-1.6009,-1.6097,-1.6172,-1.6172,-1.5934,-1.6642,0.0,-1.9479,-1.829,-1.6454,0.0,-1.4748,-1.3106,-1.2107,-1.147,-1.1306,-1.0443,-0.9855,-0.9795,-0.9795,-0.9788,-0.9795,-0.9788,-0.9734,-0.9618,-0.9598,-1.0215,-1.1593,-1.1231,-1.1585,-1.2943,-1.3679,0.0,0.0,0.0,0.0,0.0,0.0,0.0,0.0,0.0,0.0,0.0,0.0,0.0,0.0,0.0,0.0,0.0,0.0,0.0,0.0,0.0,0.0,0.0,0.0,0.0,0.0,0.0,0.0,-2.4692,-2.5408,0.0,-2.3873,-2.4356,-2.4812,-2.4908,-2.5242,-2.5075,-2.4117,-2.4485,-2.4114,-2.2876,-2.3028,-2.3213,-2.3146,-2.3292,-2.2825,-2.183,-2.168,-2.1065,-2.0027,-1.9967,-1.9907,-1.9826,-1.8354,-1.7747,-1.7485,-1.5663,-1.6225,-1.8101,-1.6608,-1.594,-1.5497,-1.3563,-1.2882,-1.2992,-1.2883,-1.2663,-1.2647,-1.3193,-1.3033,-1.246,-1.191,-1.2037,-1.2351,-1.2472,-1.2728,-1.2893,-1.2843,-1.373,-1.4598,-1.4409,-1.5214,-1.603,-1.5944,-1.5853,-1.6093,-1.7229,-1.6876,-1.5997,-1.4861,-1.4708,-1.4029,-1.1997,-1.1657,-1.1261,-1.034,-0.9909,-0.9686,-0.9686,-0.9598,-0.9578,-0.968,-0.9686,-1.012,-1.1228,-1.0282,-1.0383,-1.1845,-1.1534,-1.1806,-1.273,-1.3151,-1.3303,0.0,0.0,0.0,0.0,0.0,0.0,0.0,0.0,0.0,0.0,0.0,0.0,0.0,0.0,0.0,0.0,0.0,0.0,0.0,0.0,0.0,0.0,0.0,0.0,0.0,0.0,-2.4528,-2.3465,-2.3667,-2.3446,-2.2152,-2.3442,-2.4431,-2.461,-2.5302,-2.5213,-2.415,-2.3484,-2.2459,-2.0999,-2.114,-2.115,-2.0923,-2.115,-2.068,-1.9704,-1.9561,-1.9006,-1.7915,-1.779,-1.7782,-1.7638,-1.6164,-1.5514,-1.5424,-1.3856,-1.465,-1.6713,-1.535,-1.472,-1.4415,-1.3028,-1.2515,-1.2494,-1.2338,-1.2155,-1.1945,-1.1701,-1.1484,-1.1314,-1.126,-1.1307,-1.1382,-1.1328,-1.1389,-1.1443,-1.1341,-1.2172,-1.2956,-1.2668,-1.3537,-1.4276,-1.4146,-1.4166,-1.4166,-1.4166,-1.4728,-1.4854,-1.3816,-1.3737,-1.3111,-1.1149,-1.1015,-1.0823,-0.9875,-0.9713,-0.968,-0.968,-0.9591,-0.9801,-1.0435,-1.0509,-1.1204,-1.2919,-1.1383,-1.1154,-1.265,-1.1888,-1.1822,-1.274,-1.2252,-1.2253,-1.2706,0.0,0.0,0.0,0.0,0.0,0.0,0.0,0.0,0.0,0.0,0.0,0.0,0.0,0.0,0.0,0.0,0.0,0.0,0.0,0.0,0.0,0.0,0.0,-1.906,-2.0683,-2.0891,-1.815,-1.9581,-2.0243,-1.8867,-2.173,-2.3702,-2.3702,-2.3923,-2.4252,-2.4496,-2.2342,-2.1048,-2.0962,-2.0962,-2.0962,-2.0962,-2.0962,-1.9741,-1.7415,-1.7407,-1.6035,-1.3634,-1.3634,-1.3546,-1.3403,-1.3403,-1.3403,-1.3403,-1.3403,-1.3403,-1.337,-1.3085,-1.3057,-1.3159,-1.3017,-1.2956,-1.2929,-1.2773,-1.2535,-1.2264,-1.2108,-1.2135,-1.1972,-1.1538,-1.1606,-1.1809,-1.1674,-1.1633,-1.1633,-1.1626,-1.1511,-1.1321,-1.0961,-1.0894,-1.0853,-1.0758,-1.0724,-1.0724,-1.0724,-1.3246,-1.4836,-1.3294,-1.283,-1.2091,-1.0531,-1.0154,0.0,-0.9997,-0.9862,-0.9829,-0.9836,-0.9829,-1.0429,-1.1985,-1.2105,-1.2817,-1.4411,-1.2736,-1.2404,-1.3978,-1.2244,-1.1845,-1.2994,-1.1315,-1.0448,-1.0448,0.0,0.0,0.0,0.0,0.0,0.0,0.0,0.0,0.0,0.0,0.0,0.0,0.0,0.0,0.0,0.0,0.0,0.0,0.0,0.0,0.0,0.0,-1.8607,-1.8584,-1.9672,-2.0354,-1.9983,-2.0747,-2.1088,-2.0692,-2.1484,-2.2071,-2.2071,-2.2052,-2.1333,-1.9749,-1.9063,-1.7938,-1.621,-1.621,-1.621,-1.621,-1.621,-1.5843,-1.5191,-1.5068,-1.4564,-1.3777,-1.3675,-1.3546,-1.3403,-1.3403,-1.3403,-1.3403,-1.3403,-1.3403,-1.339,-1.3308,-1.3302,-1.3308,-1.3057,-1.282,-1.2623,-1.2576,-1.244,-1.2264,-1.2108,-1.1986,-1.187,-1.1748,-1.1843,-1.1993,-1.1952,-1.1938,-1.1918,-1.1803,-1.1667,-1.1511,-1.1314,-1.1267,-1.1199,-1.0941,-1.082,-1.0786,-1.0744,-1.1402,-1.1853,-1.1279,-1.1156,-1.0906,-1.036,-1.0243,0.0,-1.0215,-1.008,-1.0025,-1.0141,-1.0053,-1.0108,-1.0595,-1.0595,-1.1217,-1.2613,-1.1047,-1.0755,-1.2346,-1.1625,-1.1837,-1.3173,-1.233,-1.1954,0.0,0.0,0.0,0.0,0.0,0.0,0.0,0.0,0.0,0.0,0.0,0.0,0.0,0.0,0.0,0.0,0.0,0.0,0.0,0.0,0.0,0.0,-1.7171,-1.7163,-1.6649,-1.7879,-1.8621,-1.8173,-1.8322,-1.8453,-1.8453,-1.9323,-1.9937,-1.9937,-1.9815,-1.9228,-1.7842,-1.6896,-1.569,-1.4299,-1.4299,-1.4299,-1.4299,-1.4299,-1.4299,-1.4299,-1.4211,-1.4089,-1.3933,-1.3783,-1.3634,0.0,-1.3431,-1.3403,-1.3403,-1.3403,-1.3403,0.0,0.0,0.0,0.0,0.0,-1.2901,-1.2684,-1.2617,-1.2461,-1.2264,-1.2108,-1.1999,-1.1904,-1.1782,-1.1938,-1.2142,-1.2155,-1.2108,-1.2121,-1.1965,-1.1816,-1.1653,-1.1443,-1.1389,-1.1307,-1.0941,-1.088,-1.0833,-1.0751,-1.0717,0.0,-1.0602,-1.0588,-1.0561,-1.048,-1.0412,-1.0371,-1.0371,-1.0236,-1.0181,-1.027,-1.0202,-1.0392,-1.1066,-1.1068,0.0,0.0,0.0,-1.0387,-1.0601,-1.0412,0.0,0.0,0.0,-1.123,-1.1388,0.0,0.0,0.0,-0.8947,-0.8967,0.0,0.0,0.0,0.0,0.0,0.0,0.0,0.0,0.0,0.0,0.0,0.0,0.0,0.0,0.0,0.0,-1.557,-1.567,-1.4308,-1.5726,-1.6293,-1.4543,-1.4312,-1.4326,-1.4326,-1.6233,-1.7447,-1.7447,-1.7422,-1.7413,-1.7413,0.0,0.0,0.0,0.0,-1.4299,-1.4299,-1.4299,-1.4299,-1.4299,-1.4299,-1.4211,-1.4041,-1.3905,-1.3756,-1.3593,-1.3458,-1.3403,-1.3403,-1.3403,-1.3231,-1.2982,-1.2982,-1.3128,-1.3336,-1.2948,-1.2883,-1.2888,-1.2752,0.0,0.0,-1.2108,-1.2047,-1.1986,-1.1742,-1.1945,-1.2237,-1.2121,-1.2176,-1.223,-1.2074,-1.1925,-1.1742,-1.1477,-1.1402,-1.1314,-1.1036,-1.0894,-1.0833,-1.0751,-1.0717,-1.0717,-1.0717,-1.0717,-1.0717,-1.0717,-1.0602,-1.0521,-1.0521,-1.0392,-1.031,-1.0331,0.0,0.0,-1.2359,-1.2283,-1.2776,-1.4154,-1.2374,-1.0555,-0.9023,-0.9117,-0.9316,-0.9381,-0.9401,-0.9401,-0.9381,-0.9537,-0.9469,-0.9262,-0.9262,-0.9323,0.0,0.0,0.0,0.0,0.0,0.0,0.0,0.0,0.0,0.0,0.0,0.0,0.0,0.0,0.0,-1.5214,-1.4691,-1.4328,-1.4299,-1.4604,-1.4699,-1.4387,-1.4401,-1.4468,-1.4468,-1.4909,-1.517,-1.517,-1.5063,-1.4992,-1.4992,-1.4564,-1.4299,-1.4299,-1.4299,-1.4299,-1.4299,-1.4299,-1.4299,-1.4299,0.0,0.0,-1.3885,-1.3858,-1.3695,-1.3444,-1.341,-1.3403,-1.3403,-1.3403,-1.2312,-1.0632,-1.0632,-1.1676,-1.2876,-1.0976,-1.1299,-1.2589,-1.2556,-1.2433,-1.2264,-1.2108,-1.1979,-1.1891,-1.1959,-1.204,0.0,-1.2223,-1.2176,-1.2067,-1.1918,-1.1769,-1.1647,-1.1592,-1.1484,-1.1341,-1.1158,-1.1029,-1.0833,-1.0751,-1.0717,-1.0717,-1.0717,-1.0717,-1.0717,-1.0717,-1.0697,-1.0677,-1.0677,-1.0541,-1.05,-1.0622,-1.0527,-1.0575,-1.0891,-1.087,-1.0812,-1.0791,-1.0171,-0.9609,-0.9173,-0.9374,-0.9476,-0.9381,-0.9503,-0.9503,-0.9381,-0.9537,-0.9578,-0.9523,-0.9523,-0.9469,0.0,0.0,0.0,0.0,0.0,0.0,0.0,0.0,0.0,0.0,0.0,-1.3953,0.0,0.0,-1.4245,-1.4482,-1.4281,-1.4122,-1.4278,-1.4299,-1.4299,-1.4299,-1.436,-1.4407,-1.4407,-1.4407,-1.4434,-1.4509,-1.438,-1.4333,-1.4401,-1.434,-1.4299,-1.4299,-1.4299,-1.4299,-1.4299,-1.3135,-1.2503,-1.2503,-1.125,-1.0568,-1.0457,-1.0396,-1.028,-1.0123,-1.0043,-1.0067,-1.0044,-1.0044,-0.9373,-0.8207,-0.7118,-0.7987,-0.9702,-0.8531,-0.8673,-0.9524,-0.9412,-0.93,-0.9274,-1.0283,-1.0479,-1.0539,-1.1735,-1.2115,-1.2189,-1.2271,-1.2237,-1.2142,-1.1986,-1.1837,-1.1708,-1.164,-1.1504,-1.1348,-1.1199,-1.105,-1.0833,-1.0751,-1.0717,-1.0717,-1.0717,-1.0717,-1.0717,-1.0717,-1.0717,-1.0717,-1.0717,-1.0656,-1.0636,-1.0711,-1.0649,-1.0609,-1.0609,-1.0534,-1.0297,-0.9849,-0.9829,-0.97,-0.9395,-0.9747,-0.9869,-0.972,-0.9788,-0.9795,-0.9713,-0.9713,-0.9713,-0.9713,-0.9713,-0.9754,0.0,0.0,0.0,0.0,0.0,0.0,0.0,0.0,-1.1318,-1.1864,-1.2182,-1.2474,-1.284,-1.3247,-1.3607,-1.3844,-1.4116,-1.4299,-1.4299,-1.4299,-1.4299,-1.4299,-1.4299,-1.4299,-1.4299,-1.4299,-1.436,-1.4502,-1.438,-1.436,-1.4502,-1.438,-1.4299,-1.4299,-1.4299,-1.4299,-1.4299,-1.1876,-1.0717,-1.0629,-0.8219,-0.705,-0.7033,-0.6973,-0.6906,-0.6835,-0.6752,-0.6679,-0.6724,-0.6724,-0.6463,-0.5867,-0.4111,-0.4195,-0.5435,-0.573,-0.6075,-0.6438,-0.6319,-0.6139,-0.6295,-0.8054,-0.8446,-0.8595,-1.0352,-1.1252,-1.1631,-1.1631,-1.1921,-1.2169,-1.2013,-1.1884,-1.1762,-1.1647,-1.1504,-1.1348,-1.1199,-1.105,-1.0833,-1.0751,-1.0717,-1.0717,-1.0717,-1.0717,-1.0717,-1.0717,-1.0717,-1.0717,-1.0717,-1.0717,-1.0717,-1.0717,-1.0717,-1.0717,-1.0717,-1.0582,-1.0337,-0.9971,-1.0161,-1.012,-0.9754,-1.0086,-1.0209,-0.999,-0.9984,-0.997,-0.9943,-0.9883,-0.9822,-0.9822,-0.9822,-0.9971,-1.1777,-1.0963,0.0,-1.1587,-1.1566,-1.1705,0.0,0.0,-1.2494,-1.3085,-1.3336,-1.3471,-1.3519,-1.3783,-1.4007,-1.4041,-1.419,-1.4299,-1.4299,-1.4299,-1.4299,-1.4299,-1.4299,-1.4299,-1.4299,-1.4299,-1.436,-1.4502,-1.438,-1.436,-1.4502,-1.438,-1.4299,-1.4299,-1.4299,-1.4299,-1.4299,-1.1876,-1.0717,-1.0629,-0.8219,-0.7023,-0.6956,-0.6949,-0.6818,-0.6755,-0.6669,-0.6709,-0.6717,-0.6717,-0.5583,-0.3776,-0.3524,-0.2352,-0.1008,-0.2814,-0.4712,-0.6297,-0.6284,-0.6183,-0.6065,-0.6295,-0.6239,-0.619,-0.6564,-0.7911,-0.9285,-0.9285,-1.0488,-1.185,-1.1708,-1.1653,-1.164,-1.1619,-1.1504,-1.1348,-1.1199,-1.105,-1.0833,-1.0751,-1.0717,-1.0717,-1.0717,-1.0717,-1.0717,-1.0717,-1.0717,-1.0717,-1.0717,-1.0717,-1.0717,-1.0717,-1.0717,-1.0717,-1.0717,-1.0582,-1.0473,-1.0419,-1.0331,-1.0256,-1.0209,-1.0256,-1.0209,-0.999,-0.9984,-0.9923,-0.9849,-0.9829,-0.9822,-0.9822,-0.9822,-0.991,-1.153,0.0,0.0,0.0,-1.1979,-1.2244,-1.2901,-1.2969,-1.3037,-1.3553,-1.3777,-1.3912,-1.4,-1.4122,-1.4204,0.0,-1.4258,-1.4299,-1.4299,-1.4299,-1.4299,-1.4299,-1.4373,-1.4421,-1.4421,-1.4421,-1.4523,-1.476,-1.4638,-1.4584,-1.4638,-1.4502,-1.4387,-1.4299,-1.4299,-1.4299,-1.4299,-1.054,-0.8575,-0.8575,-0.474,-0.2948,-0.2846,-0.2846,-0.284,-0.2826,-0.2774,-0.284,-0.284,-0.2805,-0.2278,-0.1429,-0.1429,-0.0842,-0.0084,-0.0997,-0.1881,-0.2657,-0.2639,-0.2604,-0.2721,-0.3882,-0.4256,-0.447,-0.581,-0.7573,-0.9147,-0.9076,-1.0491,-1.1932,-1.1782,-1.1681,-1.1619,-1.1619,-1.1504,-1.1348,-1.1199,-1.105,-1.0833,-1.0751,-1.0717,-1.0717,-1.0717,-1.0717,-1.0751,-1.0772,-1.0786,-1.0887,-1.0968,-1.0975,-1.0948,-1.086,-1.0786,-1.0752,-1.0724,-1.0663,-1.0588,-1.0493,-1.0521,-1.0493,-1.0405,-1.0405,-1.0371,-1.031,-1.0078,-0.9957,-0.9889,-0.9863,-0.9822,-0.9822,-0.9822,-0.9856,-0.9864,0.0,0.0,-1.0381,-1.0687,-1.0982,-1.13,-1.1422,-1.1741,-1.2755,-1.3085,-1.3368,-1.419,-1.4299,-1.4299,-1.4299,-1.4299,-1.4299,-1.4299,-1.4299,-1.4299,-1.4299,-1.4387,-1.4213,-1.3559,-1.4119,-1.4406,-1.4012,-1.3805,-1.337,-1.2759,-1.251,-1.2741,-1.328,-1.3331,-1.3673,-1.4299,-1.018,-0.7773,-0.7057,-0.2955,-0.0628,0.0,0.0,0.0,0.0,0.0,0.0,0.0,0.0,0.0,0.0,0.0,0.0,0.0,0.0,0.0,0.0,0.0,0.0,-0.0237,-0.1726,-0.2271,-0.2506,-0.407,-0.6007,-0.7606,-0.7459,-0.8875,-1.0322,-1.0155,-1.0038,-1.0017,-1.0017,-0.9918,-0.9783,-0.9654,-0.9525,-0.9531,-0.9873,-0.9981,-1.0127,-1.0638,-1.0785,-1.0846,-1.1043,-1.107,-1.1077,-1.1097,-1.1104,-1.1063,-1.0894,-1.088,-1.082,-1.0731,-1.0717,-1.067,-1.0561,-1.0656,-1.0649,-1.05,-1.0453,-1.0412,-1.0371,-1.0114,-0.9923,-0.9923,-0.9876,-0.9822,-0.9822,-0.9822,-0.9822,-0.5568,0.0,-0.5843,-0.6118,-0.636,-0.6573,-0.7035,-0.7104,-0.7834,-1.0323,-1.0796,-1.1516,-1.385,-1.4299,-1.4299,-1.4299,-1.4299,-1.4299,-1.4299,-1.4299,-1.4299,-1.4299,-1.4306,-1.342,0.0,-1.3254,-1.3774,-1.1491,-1.111,-0.9981,-0.7752,-0.7432,-0.8438,-1.07,-1.0773,-1.1971,-1.4299,-1.1788,-0.938,-0.7057,-0.4651,-0.224,0.0,0.0,0.0,0.0,0.0,0.0,0.0,0.0,0.0,0.0,0.0,0.0,0.0,0.0,0.0,0.0,0.0,0.0,0.0,-0.0079,-0.0079,-0.0079,-0.0157,-0.1556,-0.3079,-0.3077,-0.4457,-0.5998,-0.5998,-0.6012,-0.5953,-0.5953,-0.5965,-0.5958,-0.5806,-0.5797,-0.6194,-0.7784,-0.8097,-0.8673,-1.0576,-1.0873,-1.1043,-1.1335,-1.1375,-1.1274,-1.0921,-1.0887,-1.0887,-1.088,-1.088,-1.082,-1.0731,-1.0717,-1.0717,-1.0711,-1.0717,-1.0649,-1.05,-1.0358,-1.0215,-1.0004,-0.9849,-0.9829,-0.9829,-0.9822,-0.9822,-0.9822,-0.9822,-0.9822,-0.5653,0.0,-0.5952,-0.6368,-0.6586,-0.6775,-0.6976,-0.702,-0.7293,-0.8122,-0.8344,-0.8564,-0.9343,-1.0811,-1.1939,-1.1939,-1.3216,-1.4299,-1.4299,-1.438,-1.377,-1.2071,-1.2113,0.0,0.0,0.0,0.0,-1.1496,-1.1222,-1.0771,-0.9995,-0.8278,-0.7649,-0.8265,-0.8323,-0.8664,-0.9557,-0.8753,-0.7146,-0.474,-0.233,-0.0807,0.0,0.0,0.0,0.0,0.0,0.0,0.0,0.0,0.0,0.0,0.0,0.0,0.0,0.0,0.0,0.0,0.0,0.0,0.0,0.0,0.0,0.0,0.0,-0.1407,-0.303,-0.293,-0.4328,-0.5907,-0.5786,-0.5793,-0.5808,-0.5808,-0.5791,-0.575,-0.5601,-0.5597,-0.6073,-0.7689,-0.8014,-0.8606,-1.0576,-1.088,-1.0948,-1.1212,-1.1409,-1.1504,-1.1402,-1.1396,-1.1314,-1.1111,-1.109,-1.0989,-1.0744,-1.0717,-1.0717,-1.0717,-1.0622,-1.0548,-1.0493,-1.0256,-1.0038,-0.999,-0.9897,-0.9822,-0.9822,-0.9822,-0.9822,-0.9822,-0.9822,-0.9822,-0.369,-0.3827,-0.3897,-0.4263,-0.4409,-0.4442,-0.454,-0.4548,-0.4797,-0.5662,-0.5856,-0.6137,-0.6947,-0.8361,-0.9447,-0.9447,-1.071,-1.1743,-1.1704,-1.1837,-1.1266,-0.9653,-0.9594,-0.8772,0.0,0.0,0.0,-0.881,-0.8613,-0.8173,-0.723,-0.5634,-0.5125,-0.5847,-0.5823,-0.6255,-0.7057,-0.7057,-0.5901,-0.358,-0.1166,0.0,0.0,0.0,0.0,0.0,0.0,0.0,0.0,0.0,0.0,0.0,0.0,0.0,0.0,0.0,0.0,0.0,0.0,0.0,0.0,0.0,0.0,0.0,0.0,-0.0941,-0.1956,-0.1864,-0.2831,-0.3842,-0.3737,-0.3755,-0.3708,-0.3708,-0.3695,-0.3673,-0.3642,-0.3597,-0.4319,-0.6687,-0.7174,-0.7985,-1.0597,-1.1151,-1.1219,-1.1314,-1.1491,-1.1579,-1.147,-1.1409,-1.1301,-1.1104,-1.1084,-1.0989,-1.0744,-1.0717,-1.0717,-1.0717,-1.0575,-1.0466,-1.0419,-1.0181,-0.9963,-0.9909,-0.9869,-0.9822,-0.9822,-0.9822,-0.9822,-0.9822,-0.9822,-0.9822,0.0,0.0,0.0,0.0,0.0,0.0,0.0,0.0,-0.0615,-0.2948,-0.3453,-0.4095,0.0,0.0,-0.696,-0.6883,-0.7031,-0.7141,-0.7115,-0.7084,-0.7058,0.0,0.0,0.0,0.0,0.0,0.0,-0.3808,0.0,-0.2775,-0.0283,-0.0093,-0.1013,-0.3365,-0.342,-0.4472,-0.67,-0.67,-0.5722,-0.358,-0.1166,0.0,0.0,0.0,0.0,0.0,0.0,0.0,0.0,0.0,0.0,0.0,0.0,0.0,0.0,0.0,0.0,0.0,0.0,0.0,0.0,0.0,0.0,0.0,0.0,0.0,0.0,0.0,0.0,0.0,0.0,0.0,0.0,0.0,0.0,0.0,0.0,0.0,-0.1052,-0.475,-0.5587,-0.6938,-1.0722,-1.1518,-1.1613,-1.1606,-1.1606,-1.1504,-1.1219,-1.1063,-1.09,-1.0894,-1.0887,-1.082,-1.0731,-1.0717,-1.0717,-1.0717,-1.0575,-1.0426,-1.0283,-1.0134,-0.9916,-0.9822,-0.9822,-0.9822,-0.9822,-0.9822,-0.9822,-0.9822,-0.9822,-0.9822,0.0,0.0,0.0,0.0,0.0,0.0,0.0,0.0,-0.0172,-0.0757,-0.0891,-0.1092,0.0,0.0,0.0,-0.4452,-0.5984,0.0,-0.7066,-0.7259,0.0,-0.4755,0.0,-0.3698,-0.1154,-0.145,0.0,0.0,-0.2591,-0.3403,-0.2844,-0.1027,-0.0276,-0.0911,-0.0902,-0.1166,-0.1793,-0.1793,-0.2419,-0.358,-0.1166,0.0,0.0,0.0,0.0,0.0,0.0,0.0,0.0,0.0,0.0,0.0,0.0,0.0,0.0,0.0,0.0,0.0,0.0,0.0,0.0,0.0,0.0,0.0,0.0,0.0,0.0,0.0,0.0,0.0,0.0,0.0,0.0,0.0,0.0,0.0,0.0,0.0,-0.0711,-0.2982,-0.5806,-0.857,-1.0953,-1.1518,-1.1579,-1.1463,-1.145,-1.1463,-1.1497,-1.1369,-1.1233,-1.1118,-1.1016,-1.082,-1.0731,-1.0717,-1.0717,-1.0717,-1.0575,-1.0426,-1.0283,-1.0134,-0.9916,-0.9822,-0.9822,-0.9822,-0.9822,-0.9822,-0.9822,-0.9822,-0.9822,-0.9822,0.0,0.0,0.0,0.0,0.0,0.0,0.0,0.0,0.0,0.0,0.0,0.0,0.0,0.0,0.0,0.0,0.0,0.0,-0.3958,-0.4067,-0.3637,0.0,-0.2123,0.0,-0.0098,0.0,0.0,0.0,-0.1266,-0.2007,-0.2095,-0.0749,0.0,0.0,0.0,0.0,0.0,0.0,-0.0718,-0.1971,-0.0628,0.0,0.0,0.0,0.0,0.0,0.0,0.0,0.0,0.0,0.0,0.0,0.0,0.0,0.0,0.0,0.0,0.0,0.0,0.0,0.0,0.0,0.0,0.0,0.0,0.0,0.0,0.0,0.0,0.0,0.0,0.0,0.0,0.0,0.0,0.0,0.0,0.0,-0.0587,-0.2417,-0.5259,-0.7661,-0.8754,-0.9719,-1.0293,-1.0215,-1.0954,-1.1525,-1.1606,-1.1375,-1.1165,-1.1077,-1.0934,-1.0812,-1.0724,-1.0717,-1.0717,-1.0717,-1.0575,-1.046,-1.0378,-1.0161,-1.0039,-1.0025,-0.9958,-0.9958,-1.0025,-0.9958,-1.032,-1.1179,-1.0966,-1.14,0.0951,0.07,0.0441,0.0441,0.0262,0.0,0.0,0.0,0.0,0.0,0.0,0.0,0.0,0.0,0.0,0.0,0.0,0.0,0.0,0.0,0.0,0.0,0.0,0.0,0.0,0.0301,0.0505,0.0505,0.0793,0.0779,0.0,0.0,0.0,0.0,0.0,0.0,0.0,0.0359,0.0449,0.0449,0.0807,0.0803,0.0442,0.0442,0.0263,0.0,0.0,0.0,0.0,0.0,0.0,0.0,0.0,0.0,0.0,0.0,0.0,0.0,0.0,0.0,0.0,0.0,0.0,0.0,0.0,0.0,0.0,0.0,0.0,0.0,0.0,0.0,0.0,0.0,0.0,0.0,0.0,0.0,-0.0606,-0.2494,-0.4299,-0.55,-0.5725,-0.7166,-0.8298,-0.8283,-0.9747,-1.0913,-1.1181,-1.1031,-1.0907,-1.0907,-1.0819,-1.0717,-1.0717,-1.0717,-1.0717,-1.0717,-1.0595,-1.0514,-1.0493,-1.0243,-1.0161,-1.0276,-1.0148,-1.0266,-1.0658,-1.0454,-1.1385,-1.3269,-1.2804,-1.3676,0.5721,0.4338,0.2956,0.2869,0.1363,0.0,0.0,0.0,0.0,0.0,0.0,0.0,0.0,0.0,0.0,0.0,0.0,0.0,0.0,0.0,0.0,0.0,0.0,0.0,0.0,0.0,0.0,0.0,0.0,0.459,0.0195,0.0,0.0,0.0,0.0,0.0,0.0,0.1981,0.2955,0.2955,0.4919,0.489,0.2997,0.2997,0.1921,0.0,0.0,0.0,0.0,0.0,0.0,0.0,0.0,0.0,0.0,0.0,0.0,0.0,0.0,0.0,0.0,0.0,0.0,0.0,0.0,0.0,0.0,0.0,0.0,0.0,0.0,0.0,0.0,0.0,0.0,0.0,0.0,0.0,-0.0605,-0.2493,-0.3172,-0.3924,-0.55,-0.6091,-0.6287,-0.63,-0.6573,-0.7417,-0.9008,-1.0333,-1.1124,-1.1124,-1.088,-1.0717,-1.0717,-1.0717,-1.0717,-1.0717,-1.0697,-1.0622,-1.0493,-1.0439,-1.0371,-1.0283,-1.0256,-1.0939,-1.2469,-1.2436,-1.3305,-1.507,-1.5,-1.5124,0.7037,0.5371,0.3605,0.3478,0.1709,0.0,0.0,0.0,0.0,0.0,0.2134,0.2523,0.1549,0.1406,0.0,0.0152,0.0,0.0,0.0,0.0,0.0,0.0,0.0,0.0,0.0,0.0,0.0,0.0,0.0,0.6632,0.4081,0.393,0.3959,0.3971,0.3857,0.3837,0.382,0.4855,0.5454,0.5454,0.6525,0.6488,0.5366,0.4114,0.2955,0.1809,0.0517,0.0,0.0,0.0,0.0,0.0,0.0,0.0,0.0,0.0,0.0,0.0,0.0,0.0,0.0,0.0,0.0,0.0,0.0,0.0,0.0,0.0,0.0,0.0,0.0,0.0,0.0,0.0,0.0,0.0,0.0,0.0,-0.0306,-0.1232,-0.1387,-0.1696,-0.2617,-0.3595,-0.4257,-0.4308,-0.5152,-0.6128,-0.7043,-0.7808,-0.9067,-1.0958,-1.0073,-0.9649,-1.0591,-1.0717,-1.0717,-1.0717,-1.0717,-1.0683,-1.0616,-1.0534,-1.0493,-1.0507,-1.0432,-1.132,-1.3127,-1.3025,-1.4414,-1.7055,-1.6863,-1.732,0.8501,0.6491,0.4347,0.434,0.2141,0.0083,0.0462,0.1643,0.0,0.0,0.4426,0.4961,0.3555,0.3267,0.2656,0.0,0.0921,0.0,0.0,0.0,0.0,0.0,0.0,0.0,0.0,0.0,0.0,0.0,0.0,0.0,0.7588,0.7518,0.7507,0.7466,0.7354,0.7316,0.7352,0.7724,0.7862,0.7862,0.8397,0.8083,0.7034,0.5232,0.3821,0.2688,0.0861,0.0,0.0,0.0,0.0,0.0,0.0,0.0,0.0,0.0,0.0,0.0,0.0,0.0,0.0,0.0,0.0,0.0,0.0,0.0,0.0,0.0,0.0,0.0,0.0,0.0,0.0,0.0,0.0,0.0,0.0,0.0,0.0,0.0,0.0,0.0,0.0,-0.1246,-0.2315,-0.2303,-0.3541,-0.4675,-0.509,-0.471,-0.5831,-0.9608,-0.8443,-0.8188,-0.9971,-1.0092,-1.0279,-1.0658,-1.0717,-1.0717,-1.0717,-1.0602,-1.0595,-1.0717,-1.0602,-1.1635,-1.384,-1.3746,-1.5549,-1.9076,-1.8726,-1.9511,1.3217,1.0044,0.6748,0.66,0.3279,0.0409,0.2071,0.0,0.0,0.4818,0.5295,0.5362,0.5162,0.5184,0.4532,0.0,0.0,0.3878,0.0,0.0,0.0,0.0,0.0,0.0,0.0,0.0,0.0,0.0,0.0,0.0,0.7694,0.7437,0.736,0.719,0.7124,0.7084,0.7171,0.9245,1.0357,1.0362,1.2597,1.1368,0.7121,0.6852,0.4459,0.0348,0.0087,0.0,0.0,0.0,0.0,0.0,0.0,0.0,0.0,0.0,0.0,0.0,0.0,0.0,0.0,0.0,0.0,0.0,0.0,0.0,0.0,0.0,0.0,0.0,0.0,0.0,0.0,0.0,0.0,0.0,0.0,0.0,0.0,0.0,0.0,0.0,0.0,-0.0157,-0.0234,-0.0305,-0.0454,-0.1198,-0.2922,-0.1602,-0.1952,-0.5692,-0.5828,-0.6367,-0.8126,-0.8251,-0.8957,-1.0591,-1.0717,-1.0717,-1.0717,-1.0704,-1.0704,-1.0717,-1.0704,-1.2332,-1.5654,-1.5634,-1.7451,-2.0843,-2.079,-2.0929,1.3783,1.1558,0.8916,0.7432,0.4609,0.2258,0.26,0.0,0.4841,0.6614,0.7836,0.8235,0.7165,0.6965,0.6005,0.0,0.0,0.0,0.1803,0.0,0.0,0.0,0.0,0.0,0.0,0.0,0.0,0.0,0.0,0.0,1.1819,1.1749,1.1743,1.1695,1.1576,1.1517,1.1517,1.239,1.2863,1.2863,1.385,1.2567,0.9224,0.7796,0.5322,0.21,0.0602,0.0,0.0,0.0,0.0,0.0,0.0,0.0,0.0,0.0,0.0,0.0,0.0,0.0,0.0,0.0,0.0,0.0,0.0,0.0,0.0,0.0,0.0,0.0,0.0,0.0,0.0,0.0,0.0,0.0,0.0,0.0,0.0,0.0,0.0,0.0,0.0,0.0,0.0,0.0,0.0,-0.0301,-0.1034,-0.0513,-0.0582,-0.2095,-0.3186,-0.4948,-0.7962,-0.8043,-0.8784,-1.0719,-1.0772,-1.0717,-1.0717,-1.0717,-1.0717,-1.0717,-1.0717,-1.1894,-1.4362,-1.5394,-1.7141,-1.9546,-2.0589,-2.1109,1.3492,1.2128,1.0122,0.8354,0.6151,0.4303,0.0,0.0,0.6643,0.8416,0.9842,1.0313,0.9039,0.8767,0.7831,0.4757,0.0,0.4742,0.3678,0.0,0.0,0.0,0.0,0.0,0.0,0.0,0.0,0.0,0.0,0.0,1.4516,1.4577,1.4611,1.4611,1.4509,1.4448,1.4448,1.4346,1.4278,1.4231,1.4231,1.2601,0.9545,0.7815,0.5375,0.2453,0.0767,0.0,0.0,0.0,0.0335,0.0921,0.0917,0.1316,0.1859,0.1859,0.1835,0.1803,0.1098,0.0941,0.0784,0.0236,0.0,0.0,0.0,0.0,0.0,0.0,0.0,0.0,0.0,0.0,0.0,0.0,0.0,0.0,0.0,0.0,0.0,0.0,0.0,0.0,0.0,0.0,0.0,0.0,0.0,0.0,0.0,0.0,0.0,0.0,-0.1642,-0.4075,-0.7231,-0.7378,-0.834,-1.0798,-1.0873,-1.0785,-1.0785,-1.0744,-1.0717,-1.0717,-1.0717,-1.1571,-1.3325,-1.4558,-1.6302,-1.8512,-1.9737,-2.0589,1.305,1.1718,1.0239,1.0022,0.7921,0.6445,0.0,0.8179,0.8512,1.0311,1.0717,1.0717,1.0651,1.0651,1.0047,0.823,0.9557,0.0,0.6099,0.0,0.0,0.0,0.0,0.0,0.0,0.0,0.0,0.0,0.0,0.0,1.4509,1.438,1.4306,1.4306,1.4306,1.4299,1.4299,1.4299,1.4224,1.4075,1.4075,1.1622,0.6918,0.6928,0.4372,0.0,0.0,0.0,0.0,0.0,0.1241,0.305,0.3097,0.4346,0.6211,0.6211,0.6243,0.5942,0.3834,0.3052,0.274,0.0706,0.0,0.0,0.0,0.0,0.0,0.0,0.0,0.0,0.0,0.0,0.0,0.0,0.0,0.0,0.0,0.0,0.0,0.0,0.0,0.0,0.0,0.0,0.0,0.0,0.0,0.0,0.0,0.0,0.0,0.0,-0.1726,-0.3632,-0.5479,-0.5621,-0.7213,-1.0958,-1.1023,-1.088,-1.088,-1.0799,-1.0717,-1.0717,-1.0717,-1.1571,-1.3325,-1.3325,-1.5135,-1.8512,-1.85,-1.9483,1.256,1.2076,1.1426,0.9672,0.8607,0.8021,0.8112,0.7976,0.8429,1.0313,1.0636,1.0595,1.0704,1.0717,1.0146,0.8474,0.8725,0.0,0.0,0.0,0.0,0.0,0.0,0.0,0.0,0.0,0.0,0.0,0.0,0.0,1.4367,1.4326,1.4299,1.4299,1.4299,1.4299,1.4299,1.4197,1.4122,1.4068,1.2391,0.9975,0.6832,0.5306,0.2979,0.0,0.0,0.0,0.0,0.1557,0.2529,0.326,0.4705,0.5709,0.629,0.629,0.6322,0.6179,0.5552,0.5318,0.5162,0.4539,0.4305,0.4305,0.4305,0.226,0.0,0.0,0.0,0.0,0.0,0.0,0.0,0.0,0.0,0.0,0.0,0.0,0.0,0.0,0.0,0.0,0.0,0.0,0.0,0.0,0.0,0.0,0.0,0.0,0.0,0.0,-0.174,-0.3684,-0.5558,-0.6881,-0.8653,-1.1174,-1.1179,-1.105,-1.0887,-1.0833,-1.0759,-1.0724,-1.0717,-1.0982,-1.1505,-1.2742,-1.507,-1.8512,-1.9737,-2.0589,1.1924,1.1898,1.1766,1.0323,0.9792,0.0,0.9201,0.8912,0.9069,1.0273,1.0521,1.0521,1.0616,1.0683,1.0345,0.9349,0.9227,0.0,0.0,0.0,0.0,0.0,0.0,0.0,0.0,0.0,0.0,0.0,0.0,0.0,1.4211,1.4156,1.4129,1.4129,1.4183,1.4211,1.4211,1.4061,1.396,1.3905,1.1555,0.918,0.6751,0.4483,0.2184,0.0,0.0,0.0,0.0,0.2585,0.4025,0.5629,0.6959,0.7948,0.8609,0.8609,0.865,0.8517,0.7738,0.7505,0.7345,0.657,0.6237,0.6206,0.6179,0.3852,0.1156,0.1079,0.0537,0.0,0.0,0.0,0.0,0.0,0.0,0.0,0.0,0.0,0.0,0.0,0.0,0.0,0.0,0.0,0.0,0.0,0.0,0.0,0.0,0.0,-0.0292,-0.102,-0.2836,-0.4794,-0.6749,-0.7936,-0.9383,-1.1328,-1.1335,-1.1185,-1.1036,-1.0907,-1.0806,-1.0724,-1.0717,-1.0717,-1.0717,-1.3128,-1.5394,-1.7602,-2.0005,-2.1109,0.0,1.1047,1.1525,1.1525,0.0,0.0,1.0833,1.0568,0.0,1.0276,1.0385,1.048,1.0487,1.0616,1.0724,1.0731,1.0738,0.0,0.0,0.0,0.0,0.0,0.0,0.0,0.0,0.0,0.0,0.0,0.0,0.0,1.4055,1.3747,1.3581,1.3581,1.3707,1.3867,1.4055,1.3727,1.3586,1.3543,1.1306,0.9039,0.6606,0.4305,0.2062,0.0,0.0,0.0,0.0,0.3278,0.5719,0.943,0.9558,1.0761,1.2467,1.2467,1.2474,1.2172,1.0297,0.9599,0.9294,0.7349,0.659,0.6434,0.6427,0.494,0.3301,0.3145,0.169,0.0231,0.0234,0.0078,0.0,0.0,0.0,0.0,0.0,0.0,0.0,0.0,0.0,0.0,0.0,0.0,0.0,0.0,0.0,0.0,0.0,0.0,-0.0729,-0.2691,-0.4649,-0.6604,-0.8559,-0.8837,-0.9634,-1.1456,-1.1457,-1.1307,-1.1151,-1.1023,-1.0806,-1.0724,-1.0717,-1.0717,-1.0717,-1.4101,-1.5784,-1.5978,-1.9355,-2.0982,0.8652,0.0,1.0595,1.0595,1.0514,1.0439,0.0,1.0263,1.0134,1.0256,0.0,1.0365,1.0473,1.0616,1.0758,1.0806,1.0826,1.1023,0.0,0.0,0.0,0.0,0.0,0.0,0.0,0.0,0.0,0.0,0.0,1.4021,1.3899,1.2208,1.124,1.124,1.1185,1.2057,1.3806,1.2027,1.195,1.3543,1.1125,0.8783,0.6612,0.4254,0.2028,0.0,0.0,0.0,0.3234,0.4876,0.7026,0.9433,1.1033,1.1884,1.2169,1.2169,1.2237,1.2262,1.1797,1.1709,1.1721,1.1172,1.0928,1.0796,1.0664,0.8099,0.5155,0.5155,0.3737,0.2181,0.2229,0.1083,0.0,0.0,0.0,0.0,0.0,0.0,0.0,0.0,0.0,0.0,0.0,0.0,0.0,0.0,0.0,0.0,0.0,0.0,-0.0729,-0.2691,-0.4649,-0.6604,-0.8559,-0.9989,-1.0941,-1.1443,-1.1301,-1.1151,-1.1002,-1.09,-1.0806,-1.0724,-1.0717,-1.0717,-1.0717,-1.2865,-1.4623,-1.5978,-1.8116,-1.9801,0.6491,0.7017,0.7828,0.788,0.7854,0.7828,0.788,0.7765,0.0,0.0,0.0,0.9182,0.9188,1.0051,1.0806,1.0751,1.0968,0.0,0.0,0.0,0.0,0.0,0.0,0.0,0.0,0.0,0.0,0.0,0.0,1.227,1.2198,0.9998,0.9201,1.0308,0.9188,0.9716,1.2192,1.1831,1.2241,1.3417,1.0874,0.8657,0.6533,0.4203,0.2487,0.0,0.0,0.0,0.589,0.6126,0.7923,1.0649,1.1799,1.2135,1.2135,1.2135,1.2115,1.2196,1.2264,1.2386,1.2488,1.2427,1.2352,1.225,1.2026,1.0453,0.8503,0.7463,0.5152,0.2932,0.3005,0.1469,0.0,0.0,0.0,0.0,0.0,0.0,0.0,0.0,0.0,0.0,0.0,0.0,0.0,0.0,0.0,0.0,0.0,-0.0802,-0.211,-0.3996,-0.5953,-0.791,-0.9867,-1.0838,-1.1314,-1.1389,-1.1314,-1.1172,-1.0887,-1.088,-1.0806,-1.0724,-1.0717,-1.0758,-1.0826,-1.2452,-1.4211,-1.6,-1.7723,-1.9419,0.4561,0.4367,0.4293,0.4899,0.4999,0.491,0.5026,0.0,0.0,0.0,0.0,0.0,0.0,0.0,0.0,0.0,0.0,0.0,0.0,0.0,0.0,0.0,0.0,0.0,0.0,0.0,0.0,0.0,0.0,1.0266,1.0251,0.7964,0.7667,0.9993,0.8003,0.8041,1.0141,1.1858,1.2814,1.3139,1.1022,0.8936,0.6839,0.4926,0.3792,0.3396,0.0,0.0,0.9025,0.7193,0.8658,1.2026,1.2026,1.1999,1.1965,1.1986,1.1993,1.202,1.2196,1.2332,1.2413,1.2291,1.2237,1.2169,1.1911,1.1904,1.1621,0.9835,0.6698,0.3868,0.3947,0.2474,0.0919,0.0909,0.0899,0.0889,0.0877,0.0656,0.0439,0.0444,0.0222,0.0,0.0,0.0,0.0,0.0,0.0,0.0,0.0,-0.167,-0.3624,-0.5591,-0.7544,-0.9502,-1.1397,-1.1362,-1.1246,-1.1348,-1.1314,-1.1179,-1.0853,-1.0847,-1.0853,-1.0724,-1.1003,-1.108,-1.088,-1.2621,-1.4346,-1.6231,-1.751,-1.9224,0.2876,0.1803,0.1405,0.4235,0.4925,0.4883,0.4899,0.4933,0.0,0.0,0.0,0.0,0.0,0.0,0.0,0.0,0.0,0.0,0.0,0.0,0.0,0.0,0.0,0.0,0.0,0.0,0.0,0.0,0.0,1.02,0.9932,0.7774,0.7487,0.9602,0.934,0.935,0.9708,1.0001,1.112,1.299,1.2384,1.0999,0.8949,0.8292,0.7065,0.5395,0.0,0.6434,0.8915,0.8615,0.9824,1.1864,1.1864,1.1714,1.1511,1.164,1.1687,1.1728,1.1999,1.2108,1.2128,1.2101,1.2006,1.1891,1.1843,1.1762,1.1635,1.139,0.9717,0.7995,0.8026,0.643,0.4898,0.4917,0.4895,0.4946,0.488,0.3635,0.2474,0.248,0.1096,0.0,0.0,0.0,0.0,0.0,0.0,0.0,0.0,-0.1718,-0.366,-0.5584,-0.7544,-0.9502,-1.1397,-1.1457,-1.1307,-1.1275,-1.0962,-1.0806,-1.0758,-1.0758,-1.0744,-1.0717,-1.2429,-1.2515,-1.088,-1.2934,-1.4824,-1.653,-1.6507,-1.8307,0.1172,0.0605,0.0373,0.1851,0.2282,0.2272,0.2241,0.222,0.0,0.0,0.0,0.0,0.0,0.0,0.0,0.0,0.0,0.0,0.0,0.0,0.0,0.0,0.0,0.0,0.0,0.0,0.0,0.0,0.0,0.0,0.7994,0.6857,0.7217,0.9462,0.9346,0.9834,1.1017,1.1023,1.1532,1.2712,1.2406,1.1151,0.9026,0.891,0.8332,0.731,0.0,0.7551,1.0266,0.9155,0.9775,1.147,1.147,1.1389,1.1287,1.1443,1.1552,1.1647,1.1864,1.1993,1.2047,1.1965,1.1945,1.1925,1.1769,1.1782,1.1857,1.1837,1.0319,0.8815,0.8875,0.7348,0.5813,0.5783,0.5816,0.5779,0.5818,0.5057,0.4384,0.4384,0.2791,0.143,0.144,0.0646,0.0,0.0,0.0,-0.0354,-0.1343,-0.3195,-0.5208,-0.7031,-0.8974,-1.0553,-1.1426,-1.1287,-1.1124,-1.105,-1.0839,-1.0717,-1.0717,-1.0799,-1.0846,-1.0846,-1.2863,-1.2998,-1.1185,-1.3078,-1.4413,-1.5188,-1.4986,-1.6691,0.0,0.0,0.0,0.0,0.0,0.0,0.0,0.0392,0.0,0.0,0.0,0.0,0.0,0.0,0.0,0.0,0.0,0.0,0.0,0.0,0.0,0.0,0.0,0.0,0.0,0.0,0.0,0.0,0.0,0.0,0.7145,0.681,0.769,0.9853,0.9682,1.0411,1.2135,1.1979,1.2054,1.2338,1.2081,1.1056,0.931,0.9375,0.9354,0.9195,0.7763,0.8805,1.1368,0.981,0.9971,1.1234,1.1234,1.1234,1.1241,1.126,1.1409,1.1579,1.1687,1.1803,1.1891,1.1809,1.1837,1.187,1.1681,1.1775,1.1932,1.1816,1.0602,0.9375,0.9568,0.84,0.7145,0.7145,0.7165,0.7178,0.7085,0.6666,0.6114,0.5672,0.401,0.2598,0.2128,0.0917,0.0,0.0,0.0,-0.0628,-0.2438,-0.4491,-0.643,-0.8313,-1.0217,-1.1321,-1.1287,-1.1077,-1.0867,-1.0833,-1.0785,-1.0717,-1.0717,-1.0799,-1.088,-1.088,-1.2954,-1.3197,-1.1389,-1.3237,-1.4085,-1.4081,-1.3888,-1.5421,0.0,0.0,0.0,0.0,0.0,0.0,0.0,0.1511,0.0,0.2685,0.0,0.0,0.0,0.0,0.0,0.0,0.0,0.0,0.0,0.0,0.0,0.0,0.0,0.0,0.0,0.0,0.0,0.0,0.0,0.0,0.9003,0.8812,0.9553,1.1603,1.1577,1.1577,1.1667,1.1518,1.1586,1.1877,1.1721,1.15,1.1204,1.1078,1.1011,1.1004,1.1017,1.1061,1.1206,1.1208,1.1168,1.1234,1.1234,1.1234,1.1151,1.1023,1.1158,1.1409,1.1416,1.143,1.1463,1.1592,1.1545,1.1463,1.1586,1.1633,1.1647,1.164,1.1489,1.1444,1.159,1.1372,1.1194,1.1194,1.1188,1.1142,1.1005,0.9536,0.7795,0.5953,0.4055,0.217,0.0491,0.007,0.0,0.0,0.0,-0.0688,-0.2472,-0.439,-0.6367,-0.8298,-1.0132,-1.1124,-1.0921,-1.0894,-1.082,-1.0744,-1.0724,-1.0717,-1.0717,-1.0799,-1.088,-1.088,-1.3064,-1.3238,-1.1389,-1.3405,-1.4398,-1.4336,-1.4081,-1.5021,0.1031,0.1474,0.1836,0.2586,0.2226,0.0,0.0,0.3262,0.4638,0.4601,0.677,0.0,0.0,0.0,0.0,0.0,0.0,0.0,0.0,0.0,0.0,0.0,0.0,0.0,0.0,0.0,0.0,0.0,0.0,0.0,0.0,1.0002,1.0948,1.1628,1.1511,1.1389,1.1335,1.128,1.126,1.1211,1.1321,1.126,1.1118,1.1145,1.1118,1.1036,1.1185,1.1165,1.1036,1.109,1.1023,1.0887,1.0887,1.0887,1.0894,1.0934,1.0954,1.1131,1.1219,1.1246,1.126,1.1314,1.1294,1.126,1.1314,1.1335,1.1335,1.1335,1.1335,1.1389,1.1633,1.166,1.1592,1.1497,1.1477,1.1436,1.128,0.9775,0.8178,0.7447,0.4795,0.2463,0.1795,0.0756,0.0,0.0,0.0,-0.1084,-0.399,-0.5104,-0.6723,-0.971,-1.0577,-1.0968,-1.0819,-1.0806,-1.0778,-1.0724,-1.0717,-1.0717,-1.0717,-1.0799,-1.0989,-1.1084,-1.3128,-1.331,-1.1531,-1.3484,-1.38,-1.2674,-1.2543,-1.3436,0.1129,0.1958,0.2626,0.2989,0.0,0.0,0.3854,0.4842,0.5985,0.6535,0.8193,0.0,0.0,0.0,0.0,0.0,0.0,0.0,0.0,0.0,0.0,0.0,0.0,0.0,0.0,0.0,0.0,0.0,0.0,0.0,0.0,1.0879,1.1504,1.1409,1.1206,1.107,1.1023,1.1023,1.0975,1.0813,1.0975,1.0968,1.0813,1.0975,1.0968,1.082,1.1029,1.1009,1.0813,1.086,1.0793,1.0717,1.0717,1.0717,1.0731,1.0772,1.084,1.0894,1.1063,1.1097,1.1104,1.1151,1.1131,1.1104,1.1151,1.1234,1.1241,1.1219,1.1199,1.1219,1.1484,1.1511,1.145,1.1341,1.1321,1.128,1.1124,0.9632,0.8261,0.8225,0.5194,0.2694,0.2719,0.1218,0.0,0.0,-0.0474,-0.1948,-0.5028,-0.5945,-0.7535,-1.0537,-1.0853,-1.082,-1.0731,-1.0717,-1.0717,-1.0717,-1.0717,-1.0717,-1.0717,-1.0799,-1.0927,-1.109,-1.2536,-1.271,-1.1545,-1.2806,-1.2836,-1.1619,-1.1619,-1.2194,0.0,0.112,0.0,0.0,0.0,0.0,0.6062,0.6095,0.6831,0.8553,0.0,0.0,0.0,0.0,0.0,0.0,0.0,0.0,0.0,0.0,0.0,0.0,0.0,0.0,0.0,0.0,0.0,0.0,0.0,0.0,0.0,1.147,1.1253,1.0887,1.088,1.0806,1.0717,1.0717,1.0717,1.0717,1.0717,1.0717,1.0717,1.0717,1.0717,1.0731,1.0813,1.0793,1.0731,1.0813,1.0793,1.0717,1.0717,1.0717,1.0717,1.0717,1.0752,1.088,1.088,1.088,1.09,1.1111,1.1063,1.0975,1.1118,1.1227,1.1192,1.1341,1.1274,1.1261,1.1348,1.1274,1.1227,1.1227,1.1227,1.1124,1.0907,0.9505,0.8236,0.7984,0.5091,0.2685,0.2685,0.121,0.0,0.0,-0.1545,-0.3354,-0.5162,-0.6965,-0.8701,-1.0518,-1.0786,-1.082,-1.0731,-1.0717,-1.0717,-1.0717,-1.0717,-1.0717,-1.0717,-1.0799,-1.088,-1.088,-1.109,-1.124,-1.1389,-1.1389,-1.147,-1.1619,-1.1619,-1.1619,0.1168,0.2743,0.0,0.4846,0.0,0.0,0.0,0.9411,0.0,0.0,0.0,0.0,0.0,0.0,0.0,0.0,0.0,0.0,0.0,0.0,0.0,0.0,0.0,0.0,0.0,0.0,0.0,0.0,0.0,0.0,0.0,1.1219,1.0968,1.0887,1.0779,1.0717,1.0561,1.0663,1.0663,1.0561,1.067,1.0717,1.0717,1.0717,1.0717,1.0724,1.0765,1.0765,1.0724,1.0772,1.0758,1.0717,1.0717,1.0717,1.0717,1.0717,1.0751,1.0785,1.0785,1.0785,1.0792,1.0839,1.0826,1.0799,1.0839,1.0853,1.086,1.0907,1.0887,1.086,1.0907,1.0887,1.088,1.0989,1.1016,1.0968,1.0819,0.9364,0.7737,0.6435,0.4292,0.2283,0.1009,0.0336,0.0,0.0,-0.1545,-0.3823,-0.6827,-0.8767,-1.0114,-1.0651,-1.0758,-1.0772,-1.0724,-1.0622,-1.0609,-1.0711,-1.0616,-1.0609,-1.0717,-1.0765,-1.0772,-1.088,-1.0989,-1.1084,-1.1233,-1.1341,-1.1416,-1.1463,-1.1565,-1.1619,0.1801,0.0,0.0,0.0,0.0,0.0,0.0,0.0,0.0,0.0,0.0,0.0,0.0,0.0,0.0,0.0,0.0,0.0,0.0,0.0,0.0,0.0,0.0,0.0,0.0,0.0,0.0,0.0,0.0,0.0,0.0,1.0975,1.0853,1.0793,1.0711,1.0582,1.0493,1.0527,1.05,1.0412,1.05,1.0548,1.0548,1.067,1.0717,1.0717,1.0717,1.0717,1.0717,1.0717,1.0717,1.0717,1.0717,1.0717,1.0717,1.0717,1.0717,1.0717,1.0717,1.0717,1.0717,1.0717,1.0717,1.0717,1.0717,1.018,0.9655,0.971,0.9685,0.9655,0.971,1.0225,1.0744,1.0766,1.0793,1.0833,1.0738,0.9305,0.7698,0.6631,0.4403,0.233,0.1266,0.0465,0.0,0.0,-0.2142,-0.4827,-0.7631,-0.9576,-1.0717,-1.0717,-1.0717,-1.0717,-1.0717,-1.0582,-1.0555,-1.0711,-1.0575,-1.0881,-1.1688,-1.1049,-1.0765,-1.0786,-1.0793,-1.0928,-1.1077,-1.1172,-1.1274,-1.1396,-1.1484,-1.1558,0.2254,0.0,0.0,0.0,0.0,0.0,0.0,0.0,0.0,0.0,0.0,0.0,0.0,0.0,0.0,0.0,0.0,0.0,0.0,0.0,0.0,0.0,0.0,0.0,0.0,0.0,0.0,0.0,0.0,0.0,0.0,1.0853,1.0846,1.0704,1.0555,1.0466,1.0453,1.0337,1.0276,1.0256,1.0276,1.0283,1.029,1.0568,1.0697,1.0697,1.0697,1.069,1.0677,1.0677,1.069,1.0697,1.0697,1.0711,1.0717,1.0717,1.0717,1.0717,1.0717,1.0717,1.0717,1.0717,1.0717,1.0717,1.0717,0.9437,0.8051,0.8225,0.8112,0.8056,0.8231,0.9466,1.0717,1.0717,1.0711,1.0697,1.0697,0.9281,0.7934,0.7801,0.502,0.2624,0.2493,0.1105,-0.0065,-0.0197,-0.3189,-0.6023,-0.7764,-0.9576,-1.0717,-1.0717,-1.0711,-1.0697,-1.0697,-1.0548,-1.0521,-1.069,-1.0555,-1.125,-1.2988,-1.1696,-1.0916,-1.0916,-1.0916,-1.0919,-1.086,-1.0873,-1.109,-1.1369,-1.1382,-1.147,0.4052,0.5418,0.0,0.0,0.0,0.0,0.0,0.0,0.0,0.0,0.0,0.0,0.0,0.0,0.0,0.0,0.0,0.0,0.0,0.0,0.0,0.0,0.0,0.0,0.0,0.0,0.0,0.0,0.0,0.0,1.0873,1.0717,1.0575,1.0541,1.0399,1.027,1.0085,1.0236,1.0222,0.0,1.0222,1.0283,1.0283,1.046,1.0541,1.0541,1.0541,1.048,1.0378,1.0378,1.0439,1.0541,1.0541,1.0616,1.0717,1.0717,1.0717,1.0717,1.0717,1.0717,1.0717,1.0717,1.0717,1.0717,1.0717,0.9437,0.8035,0.8061,0.8051,0.8035,0.8061,0.9395,1.0717,1.0717,1.0629,1.0541,1.0541,0.9139,0.7448,0.6025,0.4074,0.2262,0.0843,0.0259,-0.0454,-0.1903,-0.4015,-0.602,-0.7754,-0.9576,-1.0717,-1.0717,-1.0616,-1.0541,-1.0541,-1.0297,-1.0256,-1.0521,-1.0405,-1.0633,-1.1233,-1.2215,-1.2742,-1.2742,-1.2742,-1.2107,-1.0772,-1.0826,-1.1036,-1.1212,-1.1335,-1.147,0.5373,0.0,0.0,0.888,0.0,0.0,0.0,0.0,0.0,0.0,0.0,0.0,0.0,0.0,0.0,0.0,0.0,0.0,0.0,0.0,0.0,0.0,0.0,0.0,0.0,0.0,0.0,0.0,0.0,1.0758,1.0766,1.0616,1.0493,1.0493,1.0283,1.0134,0.9984,1.0059,1.0019,0.9876,1.0019,1.01,1.0175,1.0324,1.0392,1.0392,1.0392,1.0351,1.0283,1.0283,1.0324,1.0392,1.0392,1.048,1.0609,1.0609,1.0656,1.0717,1.0717,1.0717,1.0717,1.0717,1.0717,1.0717,1.0717,0.9437,0.803,0.803,0.803,0.803,0.803,0.9371,1.0704,1.0629,1.0548,1.0292,0.95,0.8495,0.7061,0.4432,0.3258,0.21,0.0319,0.0,-0.0321,-0.1235,-0.2944,-0.4738,-0.6423,-0.8217,-0.9592,-1.0449,-1.0439,-1.0392,-1.0392,-1.0249,-1.0256,-1.048,-1.0426,-1.0869,-1.1878,-1.28,-1.2931,-1.2091,-1.2091,-1.1637,-1.0717,-1.0799,-1.0948,-1.1234,-1.1246,-1.1402,0.6634,0.0,0.8271,1.0149,0.0,0.0,0.0,0.0,0.0,0.0,0.0,0.0,0.0,0.0,0.0,0.0,0.0,0.0,0.0,0.0,0.0,0.0,0.0,0.0,0.0,0.0,0.0,0.0,0.0,1.0683,1.0683,1.0514,1.0412,1.0412,1.0092,0.995,0.995,0.9883,0.9822,0.9822,0.9822,0.989,0.995,1.0141,1.0215,1.0243,1.0243,1.0229,1.0202,1.0202,1.0215,1.0243,1.0243,1.0331,1.046,1.048,1.0575,1.0683,1.0711,1.0717,1.0717,1.0717,1.0717,1.0717,1.0717,0.9437,0.803,0.803,0.803,0.803,0.803,0.9371,1.0683,1.0527,1.0473,0.9987,0.8329,0.7591,0.637,0.3254,0.2402,0.1756,0.0252,0.0,0.0,0.0,-0.1556,-0.3262,-0.49,-0.6666,-0.8458,-1.0099,-1.0256,-1.0243,-1.0243,-1.0243,-1.0304,-1.0446,-1.048,-1.1207,-1.28,-1.2865,-1.215,-1.0717,-1.0982,-1.0982,-1.0717,-1.0717,-1.0873,-1.1234,-1.1138,-1.1301,0.0,0.0,0.9632,0.0,0.0,0.0,0.0,0.0,0.0,0.0,0.0,0.0,0.0,0.0,0.0,0.0,0.0,0.0,0.0,0.0,0.0,0.0,0.0,0.0,0.0,0.0,0.0,0.0,1.0595,1.0521,1.0521,1.0263,1.0044,1.0044,0.9937,0.9849,0.9849,0.9829,0.9822,0.9822,0.9822,0.9829,0.9849,0.9869,0.9958,1.0017,1.0017,0.9943,0.9883,0.9883,0.9958,1.0017,1.0017,1.0175,1.0324,1.0446,1.0507,1.0541,1.0677,1.0717,1.0717,1.0717,1.0717,1.0717,1.0717,0.9437,0.803,0.803,0.803,0.803,0.803,0.9371,1.0683,1.0527,1.0399,0.9818,0.8043,0.6429,0.4762,0.2909,0.1362,0.031,0.0062,0.0,0.0,0.0,-0.1518,-0.3304,-0.4884,-0.6695,-0.8428,-1.0092,-1.0161,-1.0017,-1.0017,-1.0017,-1.0148,-1.0297,-1.0426,-1.0692,-1.1042,-1.1049,-1.0916,-1.0717,-1.215,-1.2215,-1.0717,-1.0717,-1.0873,-1.1227,-1.1036,-1.1206,0.871,0.9137,0.9578,0.0,0.0,0.0,0.0,0.0,0.0,0.0,0.0,0.0,0.0,0.0,0.0,0.0,0.0,0.0,0.0,0.0,0.0,0.0,0.0,0.0,0.0,0.0,0.0,0.0,1.0575,1.0493,1.0493,1.0209,0.9984,0.9984,0.9822,0.97,0.97,0.97,0.9741,0.9822,0.9822,0.9781,0.97,0.97,0.9781,0.9862,0.9862,0.9883,0.9822,0.9822,0.9863,0.9862,0.9862,1.0012,1.0154,1.0222,1.0297,1.0392,1.0541,1.0595,1.0609,1.069,1.0717,1.0717,1.0717,1.0114,0.951,0.951,0.951,0.951,0.951,1.0056,1.0555,1.0412,1.0256,0.9662,0.7897,0.6109,0.4119,0.1602,0.0494,0.0,0.0,0.0,0.0,0.0,-0.0694,-0.2082,-0.4687,-0.5747,-0.7268,-0.9728,-1.0039,-0.995,-0.9869,-0.9936,-1.0114,-1.027,-1.0412,-1.0561,-1.0711,-1.0717,-1.0717,-1.0717,-1.1439,-1.1505,-1.0717,-1.0717,-1.0833,-1.1043,-1.0907,-1.1145,0.0,0.0,0.9252,0.989,0.0,0.0,0.0,0.0,0.0,0.0,0.0,0.0,0.0,0.0,0.0,0.0,0.0,0.0,0.0,0.0,0.0,0.0,0.0,0.0,0.0,0.0,0.0,0.0,1.0466,1.0378,1.0378,1.0071,0.9916,0.9876,0.9727,0.9591,0.9551,0.9551,0.9605,0.9707,0.9707,0.9652,0.9551,0.9551,0.9612,0.9707,0.9707,0.9707,0.9707,0.9707,0.9734,0.9761,0.9727,0.9822,0.993,0.993,1.0086,1.0243,1.0385,1.0439,1.046,1.0568,1.0629,1.0663,1.0663,1.069,1.0717,1.0717,1.0717,1.0711,1.067,1.0575,1.0446,1.0263,1.0134,0.9379,0.7266,0.5464,0.3444,0.0555,0.0,0.0,0.0,0.0,0.0,0.0,0.0,-0.1191,-0.4496,-0.4983,-0.6302,-0.9529,-0.9883,-0.9903,-0.9883,-1.0019,-1.0141,-1.0215,-1.0426,-1.0582,-1.0656,-1.0697,-1.0717,-1.0717,-1.0717,-1.0717,-1.0717,-1.0717,-1.0799,-1.088,-1.084,-1.107,0.0,0.8621,0.0,0.9347,0.0,0.0,0.0,0.0,0.0,0.0,0.0,0.0,0.0,0.0,0.0,0.0,0.0,0.0,0.0,0.0,0.0,0.0,0.0,0.0,0.0,0.0,0.0,0.0,1.0161,1.0011,1.0011,0.9917,0.9774,0.9639,0.9618,0.9537,0.9395,0.9395,0.9395,0.9401,0.9401,0.9401,0.9395,0.9395,0.9395,0.9401,0.9401,0.9401,0.9401,0.9401,0.949,0.9605,0.9462,0.9578,0.9836,0.9836,0.9869,1.0017,1.0236,1.029,1.029,1.0304,1.0392,1.0507,1.0507,1.0602,1.0717,1.0717,1.0717,1.0683,1.0541,1.05,1.0419,1.0065,0.999,0.9069,0.5732,0.3751,0.2094,0.037,0.0,0.0,0.0,0.0,0.0,0.0,0.0,-0.1173,-0.4493,-0.4926,-0.6188,-0.9647,-0.9856,-0.989,-0.9963,-1.0181,-1.0209,-1.0011,-1.0466,-1.0649,-1.0507,-1.0643,-1.0717,-1.0717,-1.0717,-1.0717,-1.0717,-1.0717,-1.0799,-1.088,-1.0799,-1.0968,0.0,0.0,0.0,0.9001,0.0,0.0,0.0,0.0,0.0,0.0,0.0,0.0,0.0,0.0,0.0,0.0,0.0,0.0,0.0,0.0,0.0,0.0,0.0,0.0,0.0,0.0,0.0,0.0,0.0,0.9984,0.9984,0.9815,0.9659,0.9612,0.9415,0.935,0.9296,0.9296,0.9344,0.9381,0.9381,0.9334,0.9296,0.9296,0.9184,0.9096,0.9096,0.9205,0.9381,0.9381,0.9415,0.9456,0.9401,0.9449,0.9537,0.9537,0.9639,0.9788,0.9937,1.0053,1.0148,1.0249,1.0317,1.0358,1.0358,1.0392,1.0439,1.0439,1.0439,1.0426,1.0371,1.0283,1.0134,0.9836,0.9836,0.8934,0.5524,0.3575,0.2003,0.0304,0.0,0.0,0.0,0.0,0.0,0.0,0.0,-0.1171,-0.4487,-0.5064,-0.6437,-0.9679,-1.0168,-1.0195,-0.9997,-1.0188,-1.0256,-1.0202,-1.0432,-1.0595,-1.0636,-1.069,-1.0717,-1.0717,-1.0717,-1.0717,-1.0717,-1.0717,-1.0751,-1.0799,-1.0744,-1.086,0.8167,0.0,0.0,0.0,0.0,0.0,0.0,0.0,0.0,0.0,0.0,0.0,0.0,0.0,0.0,0.0,0.0,0.0,0.0,0.0,0.0,0.0,0.0,0.0,0.0,0.0,0.0,0.0,0.0,0.0,0.9842,0.9713,0.9544,0.9388,0.9137,0.9036,0.8982,0.8982,0.9036,0.9083,0.9083,0.9028,0.8982,0.9036,0.8954,0.8811,0.8858,0.9049,0.9232,0.9232,0.9259,0.93,0.9252,0.9293,0.9374,0.932,0.9401,0.9551,0.97,0.9815,0.9862,1.008,1.0161,1.0202,1.0202,1.0243,1.0283,1.0283,1.0283,1.027,1.0215,1.0053,0.9788,0.9652,0.9221,0.8133,0.5312,0.3965,0.2667,0.0425,0.0,0.0,0.0,0.0,0.0,0.0,-0.0494,-0.1848,-0.4548,-0.5562,-0.7069,-0.9741,-1.0181,-1.0209,-0.9997,-1.0141,-1.0181,-1.0127,-1.0358,-1.0514,-1.0568,-1.067,-1.0717,-1.0717,-1.0717,-1.0717,-1.0717,-1.0717,-1.0717,-1.0717,-1.0717,-1.0806,0.0,0.0,0.0,0.0,0.0,0.0,0.0,0.0,0.0,0.0,0.0,0.0,0.0,0.0,0.0,0.0,0.0,0.0,0.0,0.0,0.0,0.0,0.0,0.0,0.0,0.0,0.0,0.0,0.9815,0.9747,0.9618,0.9598,0.9388,0.8892,0.8784,0.8635,0.8486,0.8479,0.8479,0.8479,0.8479,0.8479,0.8486,0.8635,0.8703,0.871,0.8804,0.8871,0.8871,0.8878,0.9022,0.9187,0.8994,0.9117,0.9347,0.9262,0.9303,0.9395,0.9544,0.9598,0.9625,0.9768,0.9856,0.9977,0.9977,1.0148,1.027,1.027,1.027,1.0236,1.0017,0.9829,0.9612,0.9552,0.8307,0.6686,0.4984,0.4751,0.3935,0.0617,0.0,0.0,0.0,0.0,0.0,0.0,-0.1418,-0.3077,-0.4671,-0.6385,-0.8089,-0.9846,-0.9862,-0.989,-0.9977,-0.999,-0.993,-0.9836,-1.0243,-1.0426,-1.029,-1.0555,-1.0711,-1.0717,-1.0717,-1.0717,-1.0717,-1.0717,-1.0717,-1.0717,-1.0717,-1.0806,0.7988,0.0,0.0,0.0,0.0,0.0,0.0,0.0,0.0,0.0,0.0,0.0,0.0,0.0,0.0,0.0,0.0,0.0,0.0,0.0,0.0,0.0,0.0,0.0,0.0,0.0,0.0,0.0,0.9625,0.9537,0.9605,0.93,0.9015,0.8777,0.8621,0.8526,0.8479,0.8479,0.8479,0.8479,0.8479,0.8479,0.8486,0.8526,0.8547,0.8547,0.8587,0.8608,0.8628,0.8845,0.8905,0.8994,0.8898,0.8932,0.9055,0.9015,0.9089,0.9275,0.9323,0.9354,0.9469,0.9618,0.97,0.9747,0.9849,0.9917,0.9951,0.9951,0.9951,0.9937,0.9897,0.9822,0.9433,0.8122,0.8444,0.7948,0.3771,0.397,0.3921,0.0608,0.0,0.0,0.0,0.0,0.0,0.0,-0.1418,-0.3077,-0.4671,-0.6447,-0.8183,-0.979,-1.0114,-1.0127,-0.999,-1.0154,-1.0148,-0.9936,-1.0209,-1.0365,-1.0432,-1.0412,-1.05,-1.0717,-1.0609,-1.0609,-1.0717,-1.0717,-1.0717,-1.0717,-1.0717,-1.0806,0.0,0.0,0.0,0.0,0.0,0.0,0.916,0.9758,0.0,0.0,0.0,0.0,0.0,0.0,0.0,0.0,0.0,0.0,0.0,0.0,0.0,0.0,0.0,0.0,0.0,0.9483,0.9456,0.9625,0.9476,0.9395,0.9415,0.8994,0.871,0.8615,0.8472,0.8364,0.8296,0.8296,0.8296,0.8296,0.8296,0.8296,0.8303,0.8364,0.8391,0.8397,0.8459,0.8479,0.8499,0.8676,0.875,0.875,0.875,0.875,0.8757,0.8818,0.8893,0.8988,0.9166,0.9268,0.9313,0.9462,0.9517,0.9544,0.9686,0.9686,0.9659,0.9788,0.9822,0.9822,0.9822,0.9223,0.8431,0.7334,0.737,0.6654,0.2975,0.3082,0.3123,0.0484,0.0,0.0,0.0,0.0,0.0,0.0,-0.1971,-0.3812,-0.4794,-0.6988,-0.8891,-0.9828,-1.0032,-1.0053,-0.9903,-1.0039,-1.0053,-0.9896,-1.01,-1.0222,-1.0304,-1.029,-1.0365,-1.0534,-1.0453,-1.0446,-1.0534,-1.0595,-1.0622,-1.0629,-1.069,-1.0765,0.0,0.0,0.0,0.0,0.0,0.0,1.051,1.1415,1.2254,0.0,0.0,0.0,0.0,0.0,0.0,0.0,0.0,0.0,0.0,0.0,0.0,0.0,0.0,0.0,0.948,0.9361,0.9347,0.9381,0.9354,0.9266,0.9166,0.875,0.8459,0.8459,0.8323,0.818,0.7988,0.7988,0.7988,0.7988,0.7988,0.7988,0.7995,0.818,0.8248,0.8255,0.8377,0.8431,0.8431,0.8431,0.8452,0.8479,0.8479,0.8479,0.8499,0.8635,0.8696,0.875,0.9071,0.9173,0.9214,0.9306,0.9354,0.9388,0.9537,0.949,0.9435,0.97,0.9781,0.9795,0.9795,0.8437,0.71,0.6916,0.5778,0.4213,0.2346,0.2254,0.2023,0.0302,0.0,0.0,0.0,0.0,0.0,0.0,-0.2647,-0.461,-0.461,-0.7368,-0.9268,-0.9268,-0.9451,-0.9511,-0.9511,-0.97,-0.9822,-0.9822,-0.9889,-0.997,-0.9984,-1.0168,-1.0243,-1.0283,-1.0283,-1.027,-1.0256,-1.0412,-1.0493,-1.0493,-1.0649,-1.0717,0.0,0.0,0.0,0.0,0.0,0.0,1.1609,1.1796,1.2032,0.0,0.0,0.0,0.0,0.0,0.0,0.0,0.0,0.0,0.0,0.0,0.0,0.0,0.0,0.0,0.9669,0.9239,0.9123,0.9361,0.9157,0.896,0.8804,0.8486,0.8361,0.8361,0.8167,0.8022,0.7988,0.7988,0.7988,0.7988,0.7988,0.7988,0.7988,0.8022,0.8085,0.8035,0.8062,0.8076,0.8076,0.8076,0.8269,0.8479,0.8479,0.8479,0.8486,0.8513,0.8608,0.8716,0.8777,0.8879,0.9001,0.915,0.9255,0.9282,0.9381,0.9401,0.9395,0.9449,0.9557,0.9652,0.9652,0.8497,0.7023,0.5628,0.5079,0.4027,0.1087,0.1524,0.2023,0.0302,0.0,0.0,0.0,0.0,0.0,0.0,-0.1663,-0.2954,-0.2954,-0.4671,-0.5835,-0.5835,-0.7057,-0.785,-0.785,-0.9079,-0.9822,-0.9822,-0.9849,-0.9862,-0.9984,-0.9958,-1.0025,-1.0276,-1.0283,-1.0215,-1.0031,-1.0365,-1.0493,-1.0493,-1.0649,-1.0717,0.0,0.0,0.0,1.0002,0.0,0.0,0.0,1.3403,1.3871,1.3951,0.0,0.0,0.0,0.0,0.0,0.0,0.0,0.0,0.0,0.0,0.0,0.0,0.0,0.0,0.9659,0.9829,0.9765,0.9207,0.8879,0.871,0.871,0.8357,0.8187,0.832,0.8119,0.7988,0.7988,0.7988,0.7988,0.7988,0.7988,0.7988,0.7988,0.7988,0.7988,0.7988,0.7988,0.7988,0.7988,0.7988,0.8076,0.8262,0.8262,0.8262,0.8269,0.835,0.8425,0.8499,0.8574,0.8648,0.8723,0.8791,0.8872,0.896,0.9117,0.9266,0.9367,0.9344,0.9374,0.9333,0.8569,0.718,0.5653,0.4049,0.3077,0.2029,0.0367,0.0675,0.0984,0.0183,0.0,0.0,0.0,0.0,0.0,0.0,-0.1418,-0.2524,-0.2524,-0.3935,-0.4916,-0.4916,-0.5651,-0.6141,-0.6141,-0.7667,-0.8587,-0.8587,-0.9329,-0.9856,-0.9869,-0.9863,-0.9897,-1.0046,-1.0053,-1.0012,-0.9876,-1.0161,-1.031,-1.0392,-1.0534,-1.0649,0.0,0.0,0.0,0.0,0.0,1.4268,0.0,0.0,0.0,1.5784,0.0,0.0,0.0,0.0,0.0,0.0,0.0,0.0,0.0,0.0,0.0,0.0,0.0,0.0,0.0,1.0277,1.014,0.8948,0.8615,0.8492,0.8621,0.8204,0.8099,0.8221,0.8106,0.7988,0.7988,0.7988,0.7988,0.7988,0.7988,0.7988,0.7988,0.7988,0.7988,0.7988,0.7988,0.7988,0.7988,0.7988,0.7988,0.7988,0.7988,0.7988,0.8008,0.818,0.8248,0.834,0.8404,0.8459,0.8479,0.8479,0.8587,0.8737,0.8838,0.911,0.9273,0.9144,0.9245,0.9052,0.7439,0.5881,0.4358,0.2885,0.1233,0.0,0.0,0.0,0.0,0.0,0.0,0.0,0.0,0.0,0.0,0.0,-0.1171,-0.2033,-0.2033,-0.3139,-0.3935,-0.3935,-0.4242,-0.4426,-0.4426,-0.5953,-0.7052,-0.7357,-0.8563,-0.9425,-0.9761,-0.9822,-0.9822,-0.9822,-0.9822,-0.9822,-0.9822,-0.9883,-1.0086,-1.0243,-1.0412,-1.0561,0.0,0.0,0.0,0.0,1.4507,0.0,0.0,0.0,1.5784,1.5784,0.0,0.0,0.0,0.0,0.0,0.0,0.0,0.0,0.0,0.0,0.0,0.0,0.0,0.0,0.0,0.9826,0.8899,0.8737,0.8465,0.8354,0.8323,0.814,0.7995,0.8015,0.8002,0.7988,0.7988,0.7988,0.7988,0.7988,0.7988,0.7988,0.7988,0.7988,0.7988,0.7988,0.7988,0.7988,0.7988,0.7988,0.7988,0.7988,0.7988,0.7988,0.7988,0.8008,0.8153,0.8327,0.834,0.8377,0.8479,0.8479,0.8587,0.8737,0.8838,0.8905,0.8932,0.8912,0.9164,0.9033,0.7338,0.5881,0.4478,0.2891,0.1233,0.0,0.0,0.0,0.0,0.0,0.0,0.0,0.0,0.0,0.0,0.0,-0.0185,-0.0308,-0.0308,-0.0432,-0.0555,-0.0555,-0.191,-0.277,-0.277,-0.4242,-0.5835,-0.7296,-0.7391,-0.8108,-0.9754,-0.9822,-0.9822,-0.9822,-0.9822,-0.9822,-0.9822,-0.9836,-0.9924,-1.0017,-1.0365,-1.05,0.0,0.0,0.0,0.0,0.0,0.0,0.0,0.0,1.5784,0.0,0.0,0.0,0.0,0.0,0.0,0.0,1.6286,0.0,0.0,0.0,0.0,0.0,0.0,0.0,0.0,0.0,0.0,0.0,0.9153,0.9071,0.832,0.8126,0.7988,0.7988,0.7988,0.7988,0.7988,0.7988,0.7988,0.7988,0.7988,0.7988,0.7988,0.7988,0.7988,0.7988,0.7988,0.7988,0.7988,0.7988,0.7988,0.7988,0.7988,0.7988,0.7988,0.7988,0.8029,0.814,0.814,0.8174,0.8241,0.833,0.8404,0.8499,0.8737,0.8804,0.8606,0.7852,0.772,0.7295,0.4794,0.3758,0.2919,0.1414,0.0494,0.0,0.0,0.0,0.0,0.0,0.0,0.0,0.0,0.0,0.0,0.0,0.0,0.0,0.0,0.0,0.0,0.0,-0.0617,-0.1048,-0.1048,-0.2585,-0.3812,-0.4484,-0.6285,-0.8043,-0.9754,-0.9822,-0.9822,-0.9822,-0.9822,-0.9822,-0.9822,-0.9822,-0.9856,-0.9862,-1.0229,-1.0412,0.8428,0.0,0.0,0.0,0.0,0.0,0.0,0.0,0.0,0.0,0.0,0.0,0.0,0.0,0.0,0.0,0.0,0.0,0.0,0.0,0.0,0.0,0.0,0.0,0.0,0.0,0.0,0.9906,0.9998,0.9744,0.8809,0.8299,0.7988,0.7988,0.7988,0.7988,0.7988,0.7988,0.7988,0.7988,0.7988,0.7988,0.7988,0.7988,0.7988,0.7988,0.7988,0.7988,0.7988,0.7988,0.7988,0.7988,0.7988,0.7988,0.7988,0.7988,0.7988,0.7988,0.7988,0.7988,0.8015,0.8221,0.832,0.8323,0.8621,0.871,0.8412,0.7056,0.672,0.6075,0.3021,0.2244,0.1921,0.0367,0.0,0.0,0.0,0.0,0.0,0.0,0.0,-0.0123,-0.0617,-0.0679,-0.0555,-0.0062,-0.037,-0.0494,-0.0062,0.0,0.0,0.0,0.0,0.0,0.0,-0.111,-0.2213,-0.3058,-0.6246,-0.8575,-0.9701,-0.9802,-0.9802,-0.9768,-0.9802,-0.9802,-0.9761,-0.9802,-0.9822,-0.9829,-1.0134,-1.0337,0.0,0.0,0.0,1.3488,0.0,0.0,0.0,0.0,1.5784,0.0,0.0,0.0,0.0,0.0,0.0,0.0,0.0,0.0,0.0,0.0,0.0,0.0,0.0,0.0,0.0,0.0,0.0,1.2505,1.0957,1.001,0.9961,0.8726,0.7988,0.7988,0.7988,0.7988,0.7988,0.7988,0.7988,0.7988,0.7988,0.7988,0.7988,0.7988,0.7988,0.7988,0.7988,0.7988,0.7988,0.7988,0.7988,0.7988,0.7988,0.7988,0.7988,0.7988,0.7988,0.7988,0.7988,0.7988,0.8015,0.8221,0.832,0.8323,0.8621,0.871,0.8412,0.7056,0.6776,0.6175,0.3036,0.2322,0.2067,0.0421,0.0,0.0,0.0,0.0,0.0,0.0,0.0,-0.0494,-0.2156,-0.2401,-0.1848,-0.0247,-0.1356,-0.1848,-0.0185,0.0,0.0,0.0,0.0,0.0,0.0,-0.0062,-0.1408,-0.4451,-0.7851,-0.9701,-0.9618,-0.9747,-0.9754,-0.9618,-0.9747,-0.9754,-0.9618,-0.9754,-0.9822,-0.9829,-1.0134,-1.0283,0.0,0.0,1.1161,1.3343,0.0,0.0,0.0,0.0,0.0,0.0,0.0,0.0,0.0,0.0,0.0,0.0,0.0,0.0,0.0,0.0,0.0,0.0,0.0,0.0,0.0,0.0,0.0,1.2475,1.2495,1.2183,1.1317,1.0051,0.9312,0.9312,0.8478,0.7988,0.7988,0.7988,0.7988,0.7988,0.7988,0.7988,0.7988,0.7988,0.7988,0.7988,0.7988,0.7988,0.7988,0.7988,0.7988,0.7988,0.7988,0.7988,0.7988,0.7988,0.7988,0.7988,0.7988,0.7988,0.7995,0.8099,0.8119,0.8174,0.8472,0.856,0.8128,0.5872,0.5254,0.4633,0.1548,0.0814,0.0707,0.0119,0.0,0.0,0.0,0.0,0.0,0.0,0.0,-0.0185,-0.074,-0.1787,-0.2279,-0.1725,-0.1171,-0.0617,-0.0062,0.0,0.0,0.0,0.0,-0.0432,-0.154,-0.2647,-0.4169,-0.6332,-0.7457,-0.8546,-0.9687,-0.9707,-0.97,-0.9747,-0.9795,-0.9795,-0.9747,-0.9795,-0.9822,-0.9829,-1.0032,-1.0181,0.9509,1.047,0.0,1.3303,1.4148,0.0,1.5629,0.0,0.0,0.0,0.0,0.0,0.0,0.0,0.0,0.0,0.0,0.0,0.0,1.6197,0.0,0.0,0.0,0.0,0.0,0.0,1.5575,1.3815,1.3831,1.3295,0.0,0.0,0.9805,0.9312,0.8428,0.7988,0.7988,0.7988,0.7988,0.7988,0.7988,0.7988,0.7988,0.7988,0.7988,0.7988,0.7988,0.7988,0.7988,0.7988,0.7988,0.7988,0.7988,0.7988,0.7988,0.7988,0.7988,0.7988,0.7988,0.7988,0.7988,0.7988,0.7988,0.8042,0.8391,0.8479,0.807,0.5959,0.4919,0.3921,0.149,0.0461,0.0,0.0,0.0,0.0,0.0,0.0,0.0,0.0,0.0,-0.0185,-0.0802,-0.1295,-0.1602,-0.1602,-0.1171,-0.0679,-0.0062,0.0,0.0,0.0,0.0,-0.0679,-0.2339,-0.4548,-0.6263,-0.7362,-0.7747,-0.8522,-0.9754,-0.9686,-0.968,-0.9815,-0.9822,-0.9822,-0.9822,-0.9822,-0.9822,-0.9822,-0.9862,-1.008]},{"header":{"parameterUnit":"m.s-1","parameterCategory":1,"la1":30.6,"la2":29.2853,"lo1":-89.7004,"lo2":-87.6739,"dy":0.0162,"dx":0.0183,"nx":112,"ny":82,"refTime":"2023-09-20T18:00:00:Z","depth":0,"parameterNumber":3,"parameterNumberName":"V-component_of_WINDS"},"data":[0.0,0.0,0.0,0.0,0.0,0.0,0.0,0.0,0.0,0.0,0.0,0.0,0.0,0.0,0.0,0.0,0.0,0.0,0.0,0.0,0.0,0.0,0.0,0.0,0.0,0.0,0.0,0.0,0.0,0.0,0.0,0.0,0.0,0.0,0.0,0.0,0.0,0.0,0.0,0.0,0.0,0.0,0.0,0.0,0.0,0.0,0.0,0.0,0.0,0.0,0.0,0.0,0.0,0.0,0.0,0.0,0.0,0.0,0.0,0.0,0.0,0.0,0.0,0.0,0.0,0.0,0.0,0.0,0.0,0.0,0.0,0.0,0.0,0.0,0.0,0.0,0.0,0.0,0.0,0.0,0.0,0.0,0.0,0.0,0.0,0.0,0.0,0.0,0.0,0.0,0.0,4.8631,5.22,5.438,5.4075,5.4546,5.2564,4.7168,0.0,0.0,0.0,0.0,0.0,0.0,0.0,0.0,0.0,0.0,0.0,0.0,0.0,0.0,0.0,0.0,0.0,0.0,0.0,0.0,0.0,0.0,0.0,0.0,0.0,0.0,0.0,0.0,0.0,0.0,0.0,0.0,0.0,0.0,0.0,0.0,0.0,0.0,0.0,0.0,0.0,0.0,0.0,0.0,0.0,0.0,0.0,0.0,0.0,0.0,0.0,0.0,0.0,0.0,0.0,0.0,0.0,0.0,0.0,0.0,0.0,0.0,0.0,0.0,0.0,0.0,0.0,0.0,0.0,0.0,0.0,0.0,0.0,0.0,0.0,0.0,0.0,0.0,0.0,0.0,0.0,0.0,0.0,0.0,0.0,0.0,0.0,0.0,0.0,0.0,0.0,0.0,0.0,0.0,0.0,0.0,0.0,0.0,0.0,0.0,0.0,0.0,0.0,0.0,4.6853,5.0023,5.1601,5.2447,5.2364,5.1867,5.0251,4.7223,0.0,0.0,0.0,0.0,0.0,0.0,0.0,0.0,0.0,0.0,0.0,0.0,0.0,0.0,0.0,0.0,0.0,0.0,0.0,0.0,0.0,0.0,0.0,0.0,0.0,0.0,0.0,0.0,0.0,0.0,0.0,0.0,0.0,0.0,0.0,0.0,0.0,0.0,0.0,0.0,0.0,0.0,0.0,0.0,0.0,0.0,0.0,0.0,0.0,0.0,0.0,0.0,0.0,0.0,0.0,0.0,0.0,0.0,0.0,0.0,0.0,0.0,0.0,0.0,0.0,0.0,0.0,0.0,0.0,0.0,0.0,0.0,0.0,0.0,0.0,0.0,0.0,0.0,0.0,0.0,0.0,0.0,0.0,0.0,0.0,0.0,0.0,0.0,0.0,0.0,0.0,0.0,0.0,0.0,0.0,0.0,0.0,0.0,0.0,0.0,0.0,0.0,0.0,4.6595,4.7845,4.9834,5.0641,5.0951,5.0732,5.0362,4.899,4.6222,4.5881,0.0,0.0,0.0,0.0,0.0,0.0,0.0,0.0,0.0,0.0,0.0,0.0,0.0,0.0,0.0,0.0,0.0,0.0,0.0,0.0,0.0,0.0,0.0,0.0,0.0,0.0,0.0,0.0,0.0,0.0,0.0,0.0,0.0,0.0,0.0,0.0,0.0,0.0,0.0,0.0,0.0,0.0,0.0,0.0,0.0,0.0,0.0,0.0,0.0,0.0,0.0,0.0,0.0,0.0,0.0,0.0,0.0,0.0,0.0,0.0,0.0,0.0,0.0,0.0,0.0,0.0,0.0,0.0,0.0,0.0,0.0,0.0,0.0,0.0,0.0,0.0,0.0,0.0,0.0,0.0,0.0,0.0,0.0,0.0,0.0,0.0,0.0,0.0,0.0,0.0,0.0,0.0,0.0,0.0,0.0,0.0,0.0,0.0,0.0,0.0,0.0,0.0,4.8388,4.863,4.9288,4.9592,4.9639,4.9299,4.8949,4.7684,4.5226,4.4331,0.0,0.0,0.0,0.0,0.0,0.0,0.0,0.0,0.0,0.0,0.0,0.0,0.0,0.0,0.0,0.0,0.0,0.0,0.0,0.0,0.0,0.0,0.0,0.0,0.0,0.0,0.0,0.0,0.0,0.0,0.0,0.0,0.0,0.0,0.0,0.0,0.0,0.0,0.0,0.0,0.0,0.0,0.0,0.0,0.0,0.0,0.0,0.0,0.0,0.0,0.0,0.0,0.0,0.0,0.0,0.0,0.0,0.0,0.0,0.0,0.0,0.0,0.0,0.0,0.0,0.0,0.0,0.0,0.0,0.0,0.0,0.0,0.0,0.0,0.0,0.0,0.0,0.0,0.0,0.0,0.0,0.0,0.0,0.0,0.0,0.0,0.0,0.0,0.0,0.0,0.0,0.0,0.0,0.0,0.0,0.0,0.0,0.0,0.0,0.0,0.0,0.0,4.638,4.7588,4.8812,4.866,4.8418,4.8379,4.7021,4.5755,4.4818,4.2616,0.0,0.0,0.0,0.0,0.0,0.0,0.0,0.0,0.0,0.0,0.0,0.0,0.0,0.0,0.0,0.0,0.0,0.0,0.0,0.0,0.0,0.0,0.0,0.0,0.0,0.0,0.0,0.0,0.0,0.0,0.0,0.0,0.0,0.0,0.0,0.0,0.0,0.0,0.0,0.0,0.0,0.0,0.0,0.0,0.0,0.0,0.0,0.0,0.0,0.0,0.0,0.0,0.0,0.0,0.0,0.0,0.0,0.0,0.0,0.0,0.0,0.0,0.0,0.0,0.0,0.0,0.0,0.0,0.0,0.0,0.0,0.0,0.0,0.0,0.0,0.0,0.0,0.0,0.0,0.0,0.0,0.0,0.0,0.0,0.0,0.0,0.0,0.0,0.0,0.0,0.0,0.0,0.0,0.0,0.0,0.0,0.0,0.0,0.0,0.0,0.0,0.0,4.5836,4.7078,0.0,4.748,4.7333,4.6838,4.625,4.5149,4.3314,0.0,0.0,0.0,0.0,0.0,0.0,0.0,0.0,0.0,0.0,0.0,0.0,0.0,0.0,0.0,0.0,0.0,0.0,0.0,0.0,0.0,0.0,0.0,0.0,0.0,0.0,0.0,0.0,0.0,0.0,0.0,0.0,0.0,0.0,0.0,0.0,0.0,0.0,0.0,0.0,0.0,0.0,0.0,0.0,0.0,0.0,0.0,0.0,0.0,0.0,0.0,0.0,0.0,0.0,0.0,0.0,0.0,0.0,0.0,0.0,0.0,0.0,0.0,0.0,0.0,0.0,0.0,0.0,0.0,0.0,0.0,0.0,0.0,0.0,0.0,0.0,0.0,0.0,0.0,0.0,0.0,0.0,0.0,0.0,0.0,0.0,0.0,0.0,0.0,0.0,0.0,0.0,0.0,0.0,0.0,0.0,0.0,0.0,0.0,0.0,0.0,0.0,4.3703,4.5574,4.6862,0.0,4.7297,4.7278,4.6728,4.5957,4.4709,4.28,0.0,0.0,0.0,0.0,0.0,0.0,0.0,0.0,0.0,0.0,0.0,0.0,0.0,0.0,0.0,0.0,0.0,0.0,0.0,0.0,0.0,0.0,0.0,0.0,0.0,0.0,0.0,0.0,0.0,0.0,0.0,0.0,0.0,0.0,0.0,0.0,0.0,0.0,0.0,0.0,0.0,0.0,0.0,0.0,0.0,0.0,0.0,0.0,0.0,0.0,0.0,0.0,0.0,0.0,0.0,0.0,0.0,0.0,0.0,0.0,0.0,0.0,0.0,0.0,0.0,0.0,0.0,0.0,0.0,0.0,0.0,0.0,0.0,0.0,0.0,0.0,0.0,0.0,0.0,0.0,0.0,0.0,0.0,0.0,0.0,0.0,0.0,0.0,0.0,0.0,0.0,0.0,0.0,0.0,0.0,0.0,0.0,0.0,0.0,0.0,0.0,0.0,4.3894,4.5388,4.6874,4.8161,4.8306,4.8306,4.8269,4.6104,4.4378,0.0,0.0,0.0,0.0,0.0,0.0,0.0,0.0,0.0,0.0,0.0,0.0,0.0,0.0,0.0,0.0,0.0,0.0,0.0,0.0,0.0,0.0,0.0,0.0,0.0,0.0,0.0,0.0,0.0,0.0,0.0,0.0,0.0,0.0,0.0,0.0,0.0,0.0,0.0,0.0,0.0,0.0,0.0,0.0,0.0,0.0,0.0,0.0,0.0,0.0,0.0,0.0,0.0,0.0,0.0,0.0,0.0,0.0,0.0,0.0,0.0,0.0,0.0,0.0,0.0,0.0,0.0,0.0,0.0,0.0,0.0,0.0,0.0,0.0,0.0,0.0,0.0,0.0,0.0,0.0,0.0,0.0,0.0,0.0,0.0,0.0,0.0,0.0,0.0,0.0,0.0,0.0,0.0,0.0,0.0,0.0,0.0,0.0,0.0,0.0,0.0,0.0,0.0,4.3849,4.5388,4.6874,4.8161,4.8306,4.7829,4.6691,4.5957,4.4812,4.3107,0.0,0.0,0.0,0.0,0.0,0.0,0.0,0.0,0.0,0.0,0.0,0.0,0.0,0.0,0.0,0.0,0.0,0.0,0.0,0.0,0.0,0.0,0.0,0.0,0.0,0.0,0.0,0.0,0.0,0.0,0.0,0.0,0.0,0.0,0.0,0.0,0.0,0.0,0.0,0.0,0.0,0.0,0.0,0.0,0.0,0.0,0.0,0.0,0.0,0.0,0.0,0.0,0.0,0.0,0.0,0.0,0.0,0.0,0.0,0.0,0.0,0.0,0.0,0.0,0.0,0.0,0.0,0.0,0.0,0.0,0.0,0.0,0.0,0.0,0.0,0.0,0.0,0.0,0.0,0.0,0.0,0.0,0.0,0.0,0.0,0.0,0.0,0.0,0.0,0.0,0.0,0.0,0.0,0.0,0.0,0.0,0.0,0.0,0.0,0.0,0.0,0.0,4.449,4.5884,4.7239,4.8675,4.882,4.8306,4.6985,4.6377,4.5308,4.3409,0.0,0.0,0.0,0.0,0.0,0.0,0.0,0.0,0.0,0.0,0.0,0.0,0.0,0.0,0.0,0.0,0.0,0.0,0.0,0.0,0.0,0.0,0.0,0.0,0.0,0.0,0.0,0.0,0.0,0.0,0.0,0.0,0.0,0.0,0.0,0.0,0.0,0.0,0.0,0.0,0.0,0.0,0.0,0.0,0.0,0.0,0.0,0.0,0.0,0.0,0.0,0.0,0.0,0.0,0.0,0.0,0.0,0.0,0.0,0.0,0.0,0.0,0.0,0.0,0.0,0.0,0.0,0.0,0.0,0.0,0.0,0.0,0.0,0.0,0.0,0.0,0.0,0.0,0.0,0.0,0.0,0.0,0.0,0.0,0.0,0.0,0.0,0.0,0.0,0.0,0.0,0.0,0.0,0.0,0.0,0.0,0.0,0.0,0.0,0.0,0.0,0.0,4.5533,4.6691,4.7865,4.9537,4.9647,4.9243,4.8437,4.7231,4.5844,4.4319,0.0,0.0,0.0,0.0,0.0,0.0,0.0,0.0,0.0,0.0,0.0,0.0,0.0,0.0,0.0,0.0,0.0,0.0,0.0,0.0,0.0,0.0,0.0,0.0,0.0,0.0,0.0,0.0,0.0,0.0,0.0,0.0,0.0,0.0,0.0,0.0,0.0,0.0,0.0,0.0,0.0,0.0,0.0,0.0,0.0,0.0,0.0,0.0,0.0,0.0,0.0,0.0,0.0,0.0,0.0,0.0,0.0,0.0,0.0,0.0,4.7726,0.0,0.0,0.0,0.0,0.0,0.0,0.0,0.0,0.0,0.0,0.0,0.0,0.0,0.0,0.0,0.0,0.0,0.0,0.0,0.0,0.0,0.0,0.0,0.0,0.0,0.0,0.0,0.0,0.0,0.0,0.0,0.0,0.0,0.0,0.0,0.0,0.0,0.0,0.0,0.0,0.0,4.5644,4.7168,4.871,5.0362,4.9978,4.936,4.8818,4.7934,4.6945,4.5885,4.4878,0.0,0.0,0.0,0.0,0.0,0.0,0.0,0.0,0.0,0.0,0.0,0.0,0.0,0.0,0.0,0.0,0.0,0.0,0.0,0.0,0.0,0.0,0.0,0.0,0.0,0.0,0.0,0.0,0.0,0.0,0.0,0.0,0.0,0.0,0.0,0.0,0.0,0.0,0.0,0.0,0.0,0.0,0.0,0.0,0.0,0.0,0.0,0.0,0.0,0.0,0.0,0.0,0.0,0.0,0.0,0.0,0.0,0.0,0.0,0.0,4.9911,0.0,0.0,0.0,0.0,0.0,0.0,0.0,0.0,0.0,0.0,0.0,0.0,0.0,0.0,0.0,0.0,0.0,0.0,0.0,0.0,0.0,0.0,0.0,0.0,0.0,0.0,0.0,0.0,0.0,0.0,0.0,0.0,0.0,0.0,0.0,0.0,0.0,0.0,0.0,0.0,4.705,4.8474,4.9768,5.1209,5.0984,5.0491,4.9862,4.8844,4.8018,4.7533,4.6363,0.0,0.0,0.0,0.0,0.0,0.0,0.0,0.0,0.0,0.0,0.0,0.0,0.0,0.0,0.0,0.0,0.0,0.0,0.0,0.0,0.0,0.0,0.0,0.0,0.0,0.0,0.0,0.0,0.0,0.0,0.0,0.0,0.0,0.0,0.0,0.0,0.0,0.0,0.0,0.0,0.0,0.0,0.0,0.0,0.0,0.0,0.0,0.0,0.0,0.0,0.0,0.0,0.0,6.0461,6.0839,6.0713,6.1227,6.075,5.9318,5.6675,5.5149,5.4385,5.2582,0.0,0.0,0.0,0.0,0.0,0.0,0.0,0.0,0.0,0.0,0.0,0.0,0.0,0.0,0.0,0.0,0.0,0.0,0.0,0.0,0.0,0.0,0.0,0.0,5.1557,5.1996,0.0,0.0,0.0,0.0,0.0,0.0,0.0,0.0,0.0,0.0,0.0,0.0,4.8597,5.0002,5.1141,5.2303,5.2311,5.1964,5.1357,5.0177,4.936,4.9152,4.8,4.6932,0.0,0.0,0.0,0.0,0.0,0.0,0.0,0.0,0.0,0.0,0.0,0.0,0.0,0.0,0.0,0.0,0.0,0.0,0.0,0.0,0.0,0.0,0.0,0.0,0.0,0.0,0.0,0.0,0.0,0.0,0.0,0.0,4.9109,5.0616,0.0,0.0,0.0,0.0,0.0,0.0,0.0,0.0,0.0,0.0,0.0,0.0,0.0,5.941,6.0865,6.3,6.4166,6.4391,6.5893,6.6606,6.6549,6.5962,6.5595,6.5375,6.4934,0.0,5.7353,5.6404,0.0,0.0,0.0,0.0,0.0,0.0,0.0,0.0,0.0,0.0,0.0,0.0,0.0,0.0,0.0,0.0,0.0,0.0,0.0,0.0,0.0,0.0,5.55,5.4106,5.4436,5.4846,0.0,5.1787,4.9874,4.895,4.7498,0.0,0.0,0.0,0.0,0.0,0.0,0.0,4.887,5.1239,5.3154,5.4069,5.3481,5.3127,5.3362,5.2616,5.1617,5.0527,4.9567,4.8663,4.7817,4.6163,0.0,0.0,0.0,0.0,0.0,0.0,0.0,0.0,0.0,0.0,0.0,0.0,0.0,0.0,0.0,0.0,0.0,0.0,0.0,0.0,0.0,0.0,0.0,0.0,0.0,0.0,0.0,0.0,0.0,4.9818,5.2378,5.2408,5.3034,5.2559,0.0,0.0,0.0,0.0,0.0,0.0,0.0,0.0,0.0,6.1731,6.3721,6.5323,6.6427,6.8358,6.9119,6.8715,6.9853,6.9926,6.9045,6.9155,6.8972,6.8522,6.8871,6.7605,6.5049,6.1579,5.8744,5.644,0.0,0.0,0.0,0.0,5.4995,5.5501,5.6652,5.6503,0.0,5.5595,0.0,0.0,0.0,0.0,0.0,0.0,0.0,0.0,0.0,0.0,5.6471,5.6212,5.655,5.6859,5.6492,5.5064,5.3131,0.0,4.9824,4.8716,4.6074,0.0,0.0,0.0,0.0,4.8952,5.0194,5.1816,5.3093,5.3697,5.2984,5.274,5.3418,5.2702,5.2384,5.2818,5.1548,5.0433,4.9586,4.8394,4.727,0.0,0.0,0.0,0.0,0.0,0.0,0.0,0.0,0.0,0.0,0.0,0.0,0.0,0.0,0.0,0.0,0.0,0.0,0.0,0.0,0.0,0.0,0.0,0.0,0.0,0.0,0.0,0.0,5.37,5.6115,5.4858,5.7043,5.7102,0.0,0.0,0.0,0.0,0.0,0.0,6.1559,6.3156,6.5003,6.7157,6.9116,7.0513,7.1321,7.2532,7.2802,7.2153,7.2742,7.2373,7.1194,7.1759,7.1749,7.1183,7.1652,7.1719,7.1135,6.6216,6.3137,6.1352,5.9712,5.8765,5.8521,5.9429,5.9896,6.0269,6.1827,6.184,6.1029,6.016,0.0,5.7111,5.418,0.0,0.0,0.0,0.0,5.5237,5.6431,5.7088,5.751,5.7884,5.8165,5.8354,5.8354,5.7725,5.6161,0.0,5.2013,5.1009,4.7832,0.0,0.0,0.0,0.0,5.0386,5.1561,5.2714,5.3522,5.3797,5.328,5.3126,5.378,5.3241,5.3356,5.4434,5.328,5.2162,5.1216,5.0141,4.8575,4.6474,0.0,0.0,0.0,0.0,0.0,0.0,0.0,0.0,0.0,0.0,0.0,0.0,0.0,0.0,0.0,0.0,0.0,0.0,0.0,0.0,0.0,0.0,0.0,0.0,0.0,0.0,0.0,0.0,0.0,5.9126,6.3138,0.0,0.0,0.0,0.0,6.0322,6.3106,6.5553,6.7203,6.8807,7.0449,7.2071,7.301,7.3854,7.4661,7.4735,7.4642,7.4432,7.4469,7.4374,7.4092,7.413,7.413,7.4092,7.4136,7.3646,7.2649,6.9313,6.7881,6.7409,6.4236,6.3461,6.4062,6.3785,6.4192,6.4863,6.4955,6.4474,6.3856,6.4037,6.1946,5.9284,5.8702,5.711,0.0,0.0,5.798,5.9231,5.9307,5.9877,6.0295,5.9485,5.9299,5.9319,5.9319,5.8696,5.7564,0.0,5.3518,5.1828,5.121,0.0,4.9001,4.9344,5.1165,5.2552,5.2627,5.4357,5.5538,5.5549,5.5549,5.5511,5.5549,5.5511,5.5203,5.4549,5.4434,5.3804,5.2565,5.0924,4.9442,4.8093,4.6181,0.0,0.0,0.0,0.0,0.0,0.0,0.0,0.0,0.0,0.0,0.0,0.0,0.0,0.0,0.0,0.0,0.0,0.0,0.0,0.0,0.0,0.0,0.0,0.0,0.0,0.0,0.0,0.0,6.2485,6.6189,0.0,6.3221,6.45,6.5706,6.5961,6.8422,7.0808,7.287,7.3983,7.5049,7.6007,7.6818,7.7129,7.6905,7.7391,7.7367,7.6761,7.6235,7.5637,7.507,7.4519,7.4293,7.4315,7.4652,7.4638,7.4258,7.2907,7.1342,6.9679,6.8845,6.8361,6.8143,6.7797,6.785,6.8028,6.7453,6.6699,6.5827,6.4843,6.3002,6.1245,6.1633,6.121,6.0709,6.0964,6.1868,6.2672,6.2084,6.1934,6.1695,6.0896,6.0459,6.0086,5.9502,5.9163,5.8774,5.8166,5.6519,5.466,5.2914,5.2591,5.213,5.095,5.2311,5.3555,5.382,5.4457,5.4934,5.4934,5.4434,5.4318,5.4895,5.4934,5.4935,5.4879,5.5143,5.4687,5.3429,5.2298,5.0634,4.8352,4.7024,4.564,0.0,0.0,0.0,0.0,0.0,0.0,0.0,0.0,0.0,0.0,0.0,0.0,0.0,0.0,0.0,0.0,0.0,0.0,0.0,0.0,0.0,0.0,0.0,0.0,0.0,0.0,6.6936,6.6033,6.9973,7.1364,6.7924,6.9307,7.0702,7.1219,7.2964,7.4811,7.6595,7.7415,7.8003,7.8368,7.8896,7.8934,7.8429,7.8934,7.8897,7.8301,7.7733,7.6945,7.6083,7.5551,7.5151,7.4904,7.5236,7.5413,7.5391,7.5219,7.4073,7.2392,7.2215,7.1947,7.165,7.1161,7.0975,7.086,6.9975,6.8936,6.7744,6.6359,6.5128,6.4166,6.3858,6.4128,6.4551,6.4243,6.4589,6.4897,6.432,6.3731,6.2978,6.192,6.1376,6.0928,6.0076,5.987,5.987,5.987,5.8527,5.6922,5.5413,5.5352,5.5142,5.3898,5.4444,5.504,5.5297,5.5088,5.4895,5.4895,5.4395,5.4199,5.4637,5.4703,5.4764,5.4867,5.4727,5.4216,5.3204,5.2539,5.0951,4.839,4.7589,4.6539,4.5242,0.0,0.0,0.0,0.0,0.0,0.0,0.0,0.0,0.0,0.0,0.0,0.0,0.0,0.0,0.0,0.0,0.0,0.0,0.0,0.0,0.0,0.0,0.0,6.3082,6.7651,7.0811,6.9868,7.4703,7.6548,7.2628,7.4554,7.604,7.604,7.6748,7.7505,7.8288,7.8889,7.9244,7.9267,7.9267,7.9267,7.9267,7.9267,7.9177,7.8962,7.8923,7.8376,7.7323,7.7323,7.6823,7.6015,7.6015,7.6015,7.6015,7.6015,7.6015,7.5822,7.4207,7.4053,7.463,7.3822,7.3476,7.3322,7.2437,7.1091,6.9552,6.8667,6.8385,6.7898,6.5436,6.582,6.6974,6.6205,6.5974,6.5974,6.5936,6.5282,6.4205,6.2563,6.2178,6.1947,6.1012,6.0819,6.0819,6.0819,5.944,5.8419,5.8749,5.8172,5.7812,5.8235,5.7588,0.0,5.706,5.6291,5.5742,5.578,5.5742,5.5593,5.5198,5.5172,5.4971,5.4494,5.3304,5.242,5.1941,5.1494,5.0304,4.8282,4.782,4.7617,4.7617,0.0,0.0,0.0,0.0,0.0,0.0,0.0,0.0,0.0,0.0,0.0,0.0,0.0,0.0,0.0,0.0,0.0,0.0,0.0,0.0,0.0,0.0,6.8251,6.846,7.1848,7.4658,7.5566,7.8112,7.9395,7.8248,7.8803,7.9249,7.9249,7.8849,7.8925,7.9578,7.9785,8.0086,8.0573,8.0573,8.0573,8.0573,8.0573,8.0566,8.0493,7.984,7.906,7.813,7.7553,7.6823,7.6015,7.6015,7.6015,7.6015,7.6015,7.6015,7.5938,7.5476,7.5438,7.5476,7.4053,7.2706,7.1591,7.1321,7.0552,6.9552,6.8667,6.7975,6.7321,6.6628,6.7167,6.8013,6.7782,6.7705,6.759,6.6936,6.6167,6.5282,6.4166,6.3897,6.3512,6.205,6.1755,6.1562,6.0935,6.0418,5.9933,5.9407,5.9113,5.8842,5.8385,5.8088,0.0,5.7934,5.7165,5.6857,5.7511,5.7011,5.6604,5.6476,5.6476,5.5758,5.4096,5.3401,5.2862,5.2433,5.1117,5.0025,4.9164,4.7891,4.7503,0.0,0.0,0.0,0.0,0.0,0.0,0.0,0.0,0.0,0.0,0.0,0.0,0.0,0.0,0.0,0.0,0.0,0.0,0.0,0.0,0.0,0.0,6.919,7.2889,7.433,7.5931,7.7562,7.9111,8.0159,8.073,8.073,8.0486,8.0336,8.0336,7.9843,7.9706,8.0067,8.0352,8.0716,8.1093,8.1093,8.1093,8.1093,8.1093,8.1093,8.1093,8.0592,7.99,7.9015,7.8169,7.7323,0.0,7.6169,7.6015,7.6015,7.6015,7.6015,0.0,0.0,0.0,0.0,0.0,7.3168,7.1937,7.1552,7.0667,6.9552,6.8667,6.8052,6.7513,6.6821,6.7705,6.8859,6.85,6.8667,6.8744,6.7859,6.7013,6.609,6.4897,6.4589,6.4128,6.2447,6.2101,6.1831,6.0973,6.0781,0.0,6.0127,6.005,5.9896,5.9435,5.905,5.8819,5.8819,5.805,5.7742,5.8242,5.7857,5.7466,5.7261,5.6942,0.0,0.0,0.0,5.2219,5.1817,5.1178,0.0,0.0,0.0,4.9884,5.0329,0.0,0.0,0.0,5.0741,5.0856,0.0,0.0,0.0,0.0,0.0,0.0,0.0,0.0,0.0,0.0,0.0,0.0,0.0,0.0,0.0,0.0,7.4045,7.7454,7.9623,7.9514,7.9639,8.093,8.117,8.1246,8.1246,8.0688,8.0354,8.0354,8.024,8.0201,8.0201,0.0,0.0,0.0,0.0,8.1093,8.1093,8.1093,8.1093,8.1093,8.1093,8.0592,7.9631,7.8861,7.8015,7.7092,7.6322,7.6015,7.6015,7.6015,7.6005,7.6048,7.6048,7.5904,7.563,7.4865,7.4004,7.3091,7.2322,0.0,0.0,6.8667,6.8321,6.7975,6.659,6.7744,6.9398,6.8744,6.9052,6.936,6.8475,6.7628,6.659,6.5089,6.4666,6.4166,6.2589,6.2178,6.1831,6.0973,6.0781,6.0781,6.0781,6.0781,6.0781,6.0781,6.0127,5.9665,5.9665,5.8934,5.8473,5.8588,0.0,0.0,5.7835,5.7172,5.6463,5.5731,5.3069,5.1308,5.0846,5.1702,5.25,5.3203,5.3318,5.3318,5.3203,5.4087,5.3703,5.2192,5.2192,5.2538,0.0,0.0,0.0,0.0,0.0,0.0,0.0,0.0,0.0,0.0,0.0,0.0,0.0,0.0,0.0,7.1964,7.5577,7.8746,8.0577,8.076,8.0783,8.1077,8.167,8.2054,8.2054,8.1936,8.1848,8.1848,8.1272,8.0888,8.0888,8.1045,8.1093,8.1093,8.1093,8.1093,8.1093,8.1093,8.1093,8.1093,0.0,0.0,7.8746,7.8592,7.7669,7.6245,7.6053,7.6015,7.6015,7.6015,7.612,7.6254,7.6254,7.5311,7.3966,7.3995,7.2879,7.1398,7.1206,7.0514,6.9552,6.8667,6.7936,6.7436,6.7821,6.8282,0.0,6.9321,6.9052,6.8436,6.759,6.6744,6.6051,6.5743,6.5128,6.432,6.3281,6.2551,6.1831,6.0973,6.0781,6.0781,6.0781,6.0781,6.0781,6.0781,6.0666,6.055,6.055,5.9781,5.955,6.0242,5.9704,5.9219,5.9122,5.9007,5.7985,5.5842,5.3892,5.2487,5.1692,5.3164,5.3741,5.3203,5.3895,5.3895,5.3203,5.4087,5.4318,5.401,5.401,5.3703,0.0,0.0,0.0,0.0,0.0,0.0,0.0,0.0,0.0,0.0,0.0,6.5643,0.0,0.0,7.3714,7.5379,7.8,8.0092,8.0977,8.1093,8.1093,8.1093,8.1439,8.1708,8.1708,8.1708,8.1862,8.2285,8.1554,8.1285,8.167,8.1323,8.1093,8.1093,8.1093,8.1093,8.1093,8.121,8.1231,8.1231,8.1335,8.0954,8.0101,7.9637,7.8746,7.7545,7.7595,7.7119,7.6295,7.6295,7.6341,7.6475,7.6545,7.5988,7.496,7.4159,7.3277,7.2344,7.1492,7.064,6.9856,6.9319,6.8579,6.7977,6.8296,6.8706,6.9129,6.959,6.9398,6.8859,6.7975,6.7128,6.6397,6.6013,6.5243,6.4359,6.3512,6.2666,6.1831,6.0973,6.0781,6.0781,6.0781,6.0781,6.0781,6.0781,6.0781,6.0781,6.0781,6.0435,6.0319,6.0742,6.0396,6.0165,6.0165,5.9742,5.8396,5.5857,5.5742,5.5011,5.328,5.528,5.5972,5.5126,5.5511,5.5549,5.5088,5.5088,5.5088,5.5088,5.5088,5.5318,0.0,0.0,0.0,0.0,0.0,0.0,0.0,0.0,6.4602,6.7282,6.909,7.0744,7.2822,7.513,7.7169,7.8515,8.0054,8.1093,8.1093,8.1093,8.1093,8.1093,8.1093,8.1093,8.1093,8.1093,8.1439,8.2247,8.1554,8.1439,8.2247,8.1554,8.1093,8.1093,8.1093,8.1093,8.1093,8.1285,8.1407,8.1418,8.1618,8.161,8.1415,8.0715,7.9936,7.9119,7.9166,7.8309,7.6855,7.6855,7.676,7.669,7.6843,7.6839,7.6526,7.4898,7.4087,7.3586,7.2224,7.1063,7.0187,7.0007,6.941,6.8762,6.8756,6.909,6.9502,6.9502,6.9374,6.9013,6.8129,6.7398,6.6705,6.6051,6.5243,6.4359,6.3512,6.2666,6.1831,6.0973,6.0781,6.0781,6.0781,6.0781,6.0781,6.0781,6.0781,6.0781,6.0781,6.0781,6.0781,6.0781,6.0781,6.0781,6.0781,6.0012,5.8627,5.6549,5.7627,5.7396,5.5318,5.7203,5.7896,5.7022,5.6983,5.6907,5.6753,5.6049,5.5703,5.5703,5.5703,5.6549,5.8872,5.8791,0.0,6.4078,6.3962,6.4731,0.0,0.0,7.086,7.4207,7.563,7.6399,7.6669,7.8169,7.9438,7.9631,8.0477,8.1093,8.1093,8.1093,8.1093,8.1093,8.1093,8.1093,8.1093,8.1093,8.1439,8.2247,8.1554,8.1439,8.2247,8.1554,8.1093,8.1093,8.1093,8.1093,8.1093,8.1285,8.1407,8.1418,8.1618,8.1299,8.052,8.0442,7.9944,7.9204,7.9212,7.866,7.7757,7.7757,7.7416,7.686,7.6872,7.6995,7.6985,7.5846,7.4382,7.2892,7.2737,7.1569,7.0207,7.0187,6.9564,6.902,6.977,6.9433,6.879,6.879,6.8143,6.7205,6.6397,6.609,6.6013,6.5897,6.5243,6.4359,6.3512,6.2666,6.1831,6.0973,6.0781,6.0781,6.0781,6.0781,6.0781,6.0781,6.0781,6.0781,6.0781,6.0781,6.0781,6.0781,6.0781,6.0781,6.0781,6.0012,5.9396,5.9088,5.8588,5.8165,5.7896,5.8165,5.7896,5.7022,5.6983,5.6637,5.5857,5.5742,5.5703,5.5703,5.5703,5.6203,6.2977,0.0,0.0,0.0,6.7936,6.9436,7.3168,7.3553,7.3937,7.6861,7.813,7.89,7.94,8.0092,8.0554,0.0,8.0862,8.1093,8.1093,8.1093,8.1093,8.1093,8.1516,8.1785,8.1785,8.1785,8.2362,8.3708,8.3016,8.2708,8.3016,8.2247,8.1593,8.1093,8.1093,8.1093,8.1093,8.143,8.1582,8.1582,8.1894,8.1861,8.1513,8.1513,8.1317,8.0927,7.9444,7.8855,7.8855,7.7879,7.731,7.7057,7.7057,7.7144,7.707,7.6126,7.4976,7.378,7.3273,7.2297,7.1237,7.1105,7.0849,7.0562,7.0856,7.0571,7.0069,6.9527,6.8656,6.7667,6.6821,6.6244,6.5897,6.5897,6.5243,6.4359,6.3512,6.2666,6.1831,6.0973,6.0781,6.0781,6.0781,6.0781,6.0973,6.1485,6.1562,6.1743,6.2204,6.2243,6.2089,6.1589,6.1562,6.137,6.0819,6.0473,6.005,5.9511,5.9665,5.9511,5.9011,5.9011,5.8819,5.8473,5.7522,5.683,5.6445,5.5934,5.5703,5.5703,5.5703,5.5895,6.5511,0.0,0.0,6.9463,7.151,7.3481,7.5052,7.5863,7.6842,7.8858,7.9793,8.042,8.0993,8.1093,8.1093,8.1093,8.1093,8.1093,8.1093,8.1093,8.1093,8.1093,8.1593,8.2178,8.2685,8.271,8.3294,8.4867,8.4188,8.3823,8.4116,8.3087,8.2182,8.1543,8.1297,8.1161,8.1093,8.1436,8.1662,8.1688,8.2056,8.2263,8.2304,8.2304,8.2304,8.2187,8.0117,7.9531,7.9922,7.8242,7.7578,7.7539,7.7305,7.7187,7.7109,7.6484,7.5703,7.4844,7.3945,7.3086,7.2304,7.1893,7.1761,7.1753,7.1681,7.1349,7.0882,7.023,6.9159,6.805,6.7443,6.667,6.6041,6.6041,6.5385,6.4496,6.3647,6.2797,6.1927,6.1043,6.0867,6.0922,6.1112,6.1166,6.1512,6.2627,6.2781,6.282,6.2935,6.2974,6.2743,6.2178,6.2101,6.1755,6.0858,6.0781,6.0512,5.9896,6.0435,6.0396,5.955,5.9281,5.905,5.8819,5.7357,5.6637,5.6637,5.6011,5.5703,5.5703,5.5703,5.5703,6.4447,0.0,6.7639,7.2672,7.4573,7.6084,7.9415,8.0194,8.044,8.1143,8.1318,8.1298,8.1131,8.1093,8.1093,8.1093,8.1093,8.1093,8.1093,8.1093,8.1093,8.1093,8.1131,8.1837,0.0,8.3683,8.3995,8.5126,8.4389,8.4333,8.5391,8.389,8.2892,8.267,8.1833,8.1311,8.1093,8.1298,8.1532,8.1688,8.1899,8.2118,8.2304,8.2304,8.2304,8.2265,8.1328,8.0937,8.082,7.914,7.8476,7.8398,7.7539,7.7187,7.7187,7.7187,7.6601,7.5742,7.4844,7.3984,7.3125,7.2265,7.1992,7.1992,7.1992,7.1311,7.0519,7.048,6.9153,6.7703,6.7703,6.7035,6.6374,6.6374,6.5706,6.4844,6.3956,6.3093,6.2192,6.1186,6.0988,6.1225,6.1955,6.2062,6.2627,6.4282,6.4512,6.3935,6.2332,6.2139,6.2139,6.2101,6.2101,6.1755,6.0858,6.0781,6.0781,6.0742,6.0781,6.0396,5.955,5.8742,5.7934,5.7099,5.6214,5.5742,5.5742,5.5703,5.5703,5.5703,5.5703,5.5703,6.6283,0.0,7.1628,7.5631,7.7219,7.8419,8.0754,8.126,8.1314,8.1549,8.0231,7.899,7.8941,7.8793,7.8709,7.8709,8.0049,8.1093,8.1093,8.1554,8.1739,8.1375,8.2277,0.0,0.0,0.0,0.0,8.5874,8.5241,8.4669,8.4449,8.4046,8.3243,8.2085,8.1765,8.1572,8.1512,8.1563,8.168,8.1894,8.2115,8.2222,8.2304,8.2304,8.2304,8.2226,8.0781,8.0156,8.0,7.832,7.7656,7.7617,7.7305,7.7187,7.7187,7.7187,7.6992,7.6562,7.5117,7.4023,7.3164,7.2265,7.1992,7.1992,7.1992,7.1666,7.1185,7.0642,6.9514,6.8378,6.7839,6.7055,6.6387,6.6387,6.6192,6.5725,6.4836,6.3974,6.3068,6.2064,6.1393,6.1234,6.1955,6.2101,6.2486,6.3589,6.4705,6.5243,6.4666,6.4628,6.4166,6.3012,6.2897,6.232,6.0935,6.0781,6.0781,6.0781,6.0242,5.9819,5.9511,5.8165,5.7291,5.7022,5.6126,5.5703,5.5703,5.5703,5.5703,5.5703,5.5703,5.5703,6.8964,7.1538,7.4351,7.8087,7.9174,7.9759,8.1514,8.167,8.1343,8.0974,7.8806,7.6904,7.6521,7.634,7.6253,7.6253,7.8058,7.9765,8.0718,8.1015,8.1451,8.2326,8.3395,8.435,0.0,0.0,0.0,8.6545,8.6486,8.5862,8.477,8.4539,8.3789,8.2331,8.1981,8.1753,8.1688,8.1688,8.1819,8.1992,8.2218,8.2304,8.2304,8.2304,8.2304,8.2187,8.0469,7.9883,8.0,7.8008,7.7383,7.7617,7.7305,7.7187,7.7187,7.7187,7.6992,7.6523,7.5117,7.4219,7.3555,7.2383,7.1992,7.1992,7.1992,7.1908,7.1692,7.1186,7.0099,6.8995,6.8453,6.7434,6.6576,6.6576,6.6342,6.5952,6.5406,6.4587,6.376,6.2966,6.2362,6.2224,6.2903,6.3243,6.3628,6.4166,6.5166,6.5667,6.5051,6.4705,6.4089,6.2974,6.2858,6.232,6.0935,6.0781,6.0781,6.0781,5.9973,5.9358,5.9088,5.7742,5.6868,5.656,5.5972,5.5703,5.5703,5.5703,5.5703,5.5703,5.5703,5.5703,7.2265,7.4062,7.5781,7.9961,8.0312,8.0078,8.1836,8.1523,8.0544,7.9437,7.7149,7.5005,0.0,0.0,7.397,7.4016,7.5611,7.7719,8.031,7.996,8.0668,0.0,0.0,0.0,0.0,0.0,0.0,8.7221,0.0,8.769,8.6327,8.539,8.4408,8.333,8.2468,8.1909,8.1718,8.1718,8.1831,8.1992,8.2218,8.2304,8.2304,8.2265,8.2226,8.2148,8.039,8.0117,8.0664,7.8203,7.7695,7.8359,7.7539,7.7187,7.7187,7.7148,7.6601,7.5781,7.4844,7.4531,7.4258,7.2539,7.1992,7.1992,7.1992,7.1992,7.1992,7.1992,7.0781,6.9492,6.9414,6.8164,6.6914,6.6914,6.6289,6.5664,6.5664,6.4961,6.4288,6.3925,6.3857,6.4,6.4505,6.532,6.5859,6.582,6.582,6.5243,6.3628,6.2743,6.2216,6.2178,6.2139,6.1755,6.0858,6.0781,6.0781,6.0781,5.9973,5.9127,5.8319,5.7473,5.6599,5.5703,5.5703,5.5703,5.5703,5.5703,5.5703,5.5703,5.5703,5.5703,7.3984,7.5859,7.8086,8.039,7.9883,7.9258,8.0937,8.0195,7.8672,7.7105,7.4213,7.1476,0.0,0.0,0.0,7.4124,7.8209,0.0,8.3922,8.4023,0.0,8.5375,0.0,8.6874,8.8156,8.8621,0.0,0.0,8.793,8.6613,8.6867,8.5619,8.4492,8.355,8.269,8.2218,8.2168,8.2168,8.2113,8.1992,8.2218,8.2304,8.2265,8.164,8.1328,8.125,7.9531,7.8945,7.9023,7.7734,7.7344,7.75,7.7305,7.7187,7.7109,7.6484,7.6094,7.5664,7.414,7.3633,7.3437,7.2344,7.1992,7.1992,7.1992,7.1992,7.1992,7.1992,7.0781,6.9492,6.9414,6.8164,6.6914,6.6914,6.6719,6.6562,6.6562,6.5898,6.5191,6.5049,6.474,6.4551,6.4586,6.532,6.5667,6.5013,6.4936,6.5013,6.5205,6.4474,6.3705,6.3051,6.2474,6.1755,6.0858,6.0781,6.0781,6.0781,5.9973,5.9127,5.8319,5.7473,5.6599,5.5703,5.5703,5.5703,5.5703,5.5703,5.5703,5.5703,5.5703,5.5703,7.664,7.8203,7.9805,8.0781,8.0,7.8984,7.8789,7.7734,7.6094,7.3594,7.0625,0.0,6.6719,0.0,0.0,0.0,0.0,0.0,8.4321,8.4668,8.543,0.0,8.8451,0.0,8.9765,9.0625,9.1328,0.0,8.9288,8.7594,8.7279,8.5778,8.4687,8.4179,8.2969,8.2304,8.2304,8.2304,8.2223,8.2125,8.2263,8.2109,8.1719,8.1211,8.0781,8.039,0.0,7.8828,7.8476,7.7969,7.7539,7.7187,7.7187,7.7187,7.7109,7.6211,7.5664,7.5117,7.3789,7.3047,7.2656,7.2148,7.1992,7.1992,7.1992,7.1992,7.1992,7.1992,7.0781,6.9453,6.9414,6.8164,6.6914,6.6914,6.7187,6.7383,6.6992,6.7109,6.7263,6.7105,6.6824,6.6592,6.6496,6.652,6.6394,6.5892,6.5457,6.5359,6.582,6.4512,6.332,6.282,6.2012,6.132,6.0819,6.0781,6.0781,6.0781,5.9973,5.9319,5.8858,5.7627,5.6934,5.6857,5.6472,5.6472,5.6857,5.6472,5.6368,5.6522,5.5768,5.5721,7.9252,8.0192,8.078,8.078,7.9999,7.8594,7.625,7.4883,7.3125,6.9687,0.0,6.5117,6.414,6.6797,6.9336,6.9844,0.0,7.9844,8.3711,8.4179,8.5625,8.9687,9.0859,9.1367,9.1445,9.2109,9.2537,9.2577,9.0895,8.9293,8.789,8.6172,8.5156,8.4922,8.332,8.2461,8.2461,8.2343,8.2264,8.2264,8.2222,8.1793,8.0975,8.0975,8.0429,7.9531,7.9648,0.0,7.8359,7.8437,7.8008,7.7187,7.7187,7.7148,7.6914,7.6055,7.5195,7.4297,7.3437,7.2617,7.1992,7.1992,7.1992,7.1992,7.1992,7.1992,7.1992,7.1992,7.0742,6.9453,6.9531,6.832,6.7109,6.7226,6.7812,6.8164,6.7383,6.8437,6.9411,6.9252,6.9046,6.8921,6.8903,6.8179,6.7578,6.7462,6.6713,6.6097,6.5933,6.378,6.2255,6.2255,6.1358,6.0781,6.0781,6.0781,6.0781,6.0781,6.0089,5.9627,5.9511,5.8088,5.7627,5.828,5.755,5.7489,5.8212,5.7455,5.7238,5.7472,5.6016,5.589,7.9325,7.9452,7.9672,7.9675,7.8113,7.625,7.5078,7.3047,0.0,0.0,6.5351,6.4023,6.2422,6.5,6.8515,7.2031,0.0,0.0,0.0,0.0,8.789,0.0,0.0,0.0,0.0,0.0,0.0,0.0,0.0,8.9452,8.957,8.7969,8.6406,8.4961,8.3906,8.3359,8.3359,8.2515,8.2056,8.2056,8.1883,8.1416,8.0765,8.0765,8.0016,7.875,7.9414,0.0,7.7461,7.8203,7.8008,7.7187,7.7187,7.6758,7.6015,7.5156,7.4258,7.3398,7.2539,7.2148,7.1992,7.1992,7.1992,7.1992,7.1992,7.1992,7.1992,7.1992,7.0781,6.9648,7.0312,6.9219,6.8125,6.8828,6.9062,6.914,6.8984,6.9219,6.9372,6.9213,6.9185,6.9107,6.8921,6.8754,6.8423,6.7754,6.7493,6.7052,6.6187,6.4332,6.3089,6.3089,6.1704,6.0781,6.0781,6.0781,6.0781,6.0781,6.0666,6.0242,5.9511,5.9204,5.8819,5.8319,5.8165,5.7961,5.7731,5.7578,5.7344,5.6986,5.6722,5.6689,8.0435,8.0602,8.0544,7.965,7.8301,7.6328,7.2695,0.0,0.0,0.0,6.3089,6.2488,6.1738,6.4438,0.0,6.9609,0.0,0.0,0.0,0.0,0.0,0.0,0.0,0.0,0.0,0.0,0.0,0.0,0.0,8.9246,8.9008,8.7803,8.6354,8.4594,8.413,8.3701,8.3311,8.2318,8.185,8.185,8.1771,8.1304,8.0524,8.0168,7.9633,7.8963,7.9022,0.0,7.789,7.832,7.8008,7.7187,7.7187,7.668,7.5781,7.4922,7.4062,7.3164,7.2305,7.1992,7.1992,7.1992,7.1992,7.1992,7.1992,7.1992,7.1992,7.1992,7.1094,7.0195,7.0586,6.9805,6.8984,6.9375,6.9414,6.9648,7.0547,7.039,7.0194,7.0575,7.065,7.0644,7.0537,7.0064,6.9596,6.9202,6.8321,6.7496,6.7014,6.5355,6.4009,6.3356,6.2276,6.1355,6.0843,6.0781,6.0781,6.0781,6.0781,6.0589,6.0204,5.9742,5.9511,5.9588,5.9165,5.8922,5.8907,5.8449,5.8082,5.781,5.693,5.6874,8.0882,8.1343,8.1251,7.9491,7.8486,7.6445,7.0662,6.8457,0.0,0.0,6.1364,6.1323,6.1421,6.3666,6.5767,0.0,7.0384,0.0,0.0,0.0,0.0,0.0,0.0,0.0,0.0,0.0,0.0,0.0,0.0,0.0,8.7837,8.7019,8.5805,8.4279,8.4054,8.3626,8.2995,8.2098,8.1653,8.1653,8.16,8.1161,8.0396,7.9829,7.9557,7.9447,7.894,0.0,0.0,7.8515,7.8008,7.7187,7.7187,7.6562,7.5547,7.4844,7.3945,7.293,7.2226,7.1992,7.1992,7.1992,7.1992,7.1992,7.1992,7.1992,7.1992,7.1992,7.1367,7.0742,7.0937,7.0351,6.9805,7.0,7.0,7.0312,7.1719,7.1445,7.1172,7.1875,7.1992,7.1992,7.1992,7.1356,7.0704,7.0353,6.9011,6.7925,6.7503,6.6317,6.5012,6.3812,6.307,6.2198,6.1224,6.1125,6.1015,6.0831,6.0781,6.0781,6.0781,6.0127,6.0089,6.0781,6.0127,5.9856,5.9946,5.9246,5.8799,5.8491,5.7208,5.7069,7.898,7.9642,8.0146,7.8394,7.7039,7.4921,7.0282,0.0,0.0,6.2079,6.1295,6.1289,6.1306,6.1579,6.2844,0.0,0.0,7.1027,0.0,0.0,0.0,0.0,0.0,0.0,0.0,0.0,0.0,0.0,0.0,0.0,8.6847,8.6085,8.519,8.4303,8.3525,8.3058,8.3011,8.1941,8.1414,8.1453,8.1256,8.0885,8.0388,8.0333,8.0071,7.9687,7.9609,0.0,0.0,7.8515,7.8008,7.7187,7.7187,7.6172,7.4726,7.4648,7.3555,7.2109,7.2031,7.1992,7.1992,7.1992,7.1992,7.1992,7.1992,7.1992,7.1992,7.1992,7.1367,7.0898,7.168,7.125,7.0781,7.1562,7.1758,7.1797,7.1953,7.1953,7.1914,7.1992,7.1992,7.1992,7.1992,7.1914,7.1367,6.9804,6.9373,6.8622,6.6928,6.6738,6.626,6.5064,6.4189,6.3235,6.2245,6.215,6.1776,6.0843,6.0781,6.0781,6.0781,6.0704,6.0704,6.0781,6.0704,6.0275,5.9458,5.9383,5.8915,5.8051,5.7904,5.7895,7.8169,7.9713,8.0602,7.8987,7.6737,7.3911,7.0069,0.0,6.4193,6.1638,6.1062,6.1009,6.1105,6.1128,6.1661,0.0,0.0,0.0,7.1852,0.0,0.0,0.0,0.0,0.0,0.0,0.0,0.0,0.0,0.0,0.0,8.4095,8.4263,8.4224,8.3876,8.3025,8.2599,8.2599,8.1683,8.1214,8.1214,8.1131,8.1063,8.096,8.0051,7.9862,8.0207,7.8826,0.0,0.0,7.793,7.75,7.7187,7.7187,7.6133,7.4609,7.4609,7.3515,7.1992,7.1992,7.1992,7.1992,7.1992,7.1992,7.1992,7.1992,7.1992,7.1992,7.1992,7.1758,7.1562,7.1914,7.1758,7.1562,7.1914,7.1992,7.1992,7.1992,7.1992,7.1992,7.1992,7.1992,7.1992,7.1992,7.1992,7.1601,7.039,6.9765,6.8944,6.7726,6.7185,6.6716,6.6217,6.4844,6.3753,6.3133,6.2138,6.1524,6.1574,6.1089,6.0781,6.0781,6.0781,6.0781,6.0781,6.0781,6.0482,5.9823,5.9526,5.9047,5.8418,5.8142,5.7997,7.6515,7.8798,8.0263,7.8659,7.604,7.2959,0.0,0.0,6.3206,6.1339,6.085,6.0811,6.0935,6.0935,6.1023,6.13,0.0,6.3808,6.736,0.0,0.0,0.0,0.0,0.0,0.0,0.0,0.0,0.0,0.0,0.0,8.2324,8.267,8.2862,8.2862,8.2285,8.1939,8.1939,8.1362,8.0977,8.0708,8.0708,8.0702,8.0648,7.9342,7.9349,8.0275,7.8121,0.0,0.0,7.7265,7.6796,7.6713,7.644,7.5418,7.4078,7.4078,7.3141,7.1852,7.1906,7.1908,7.191,7.1992,7.1992,7.1992,7.1992,7.1992,7.1992,7.1992,7.1992,7.1992,7.1992,7.1992,7.1992,7.1992,7.1992,7.1992,7.1992,7.1992,7.1992,7.1992,7.1992,7.1992,7.1992,7.1992,7.1719,7.082,6.9961,6.9101,6.8281,6.7422,6.6914,6.6914,6.5448,6.4324,6.4085,6.2928,6.2296,6.2432,6.1666,6.1166,6.1166,6.0935,6.0781,6.0781,6.0781,6.0585,6.0103,5.9776,5.9284,5.8713,5.8354,5.8142,7.3538,7.6135,7.8436,7.677,7.458,7.186,0.0,6.5428,6.3061,6.1208,6.0781,6.0781,6.0793,6.0793,6.0856,6.097,6.1646,0.0,6.7184,0.0,0.0,0.0,0.0,0.0,0.0,0.0,0.0,0.0,0.0,0.0,8.2285,8.1554,8.1131,8.1131,8.1131,8.1093,8.1093,8.1093,8.0669,7.9823,7.9823,7.9546,7.9073,7.8209,7.8511,0.0,0.0,0.0,0.0,7.664,7.581,7.5524,7.4662,7.37,7.2821,7.2821,7.227,7.1511,7.1655,7.1693,7.1744,7.1949,7.1992,7.1992,7.1992,7.1992,7.1992,7.1992,7.1992,7.1992,7.1992,7.1992,7.1992,7.1992,7.1992,7.1992,7.1992,7.1992,7.1992,7.1992,7.1992,7.1992,7.1992,7.1992,7.1719,7.082,6.9961,6.9101,6.8281,6.7422,6.6914,6.6914,6.5915,6.5211,6.5082,6.507,6.4559,6.3356,6.2512,6.2101,6.2101,6.1243,6.0781,6.0781,6.0781,6.0585,6.0103,6.0103,5.9592,5.8713,5.8676,5.8439,6.9459,7.1685,7.3176,7.2246,7.0098,6.7769,6.6066,6.3249,6.0943,6.0811,6.0319,6.0089,6.0704,6.0781,6.1037,6.1765,6.2085,0.0,0.0,0.0,0.0,0.0,0.0,0.0,0.0,0.0,0.0,0.0,0.0,0.0,8.1477,8.1246,8.1093,8.1093,8.1093,8.1093,8.1093,8.0516,8.0092,7.9785,7.9351,7.91,7.908,7.8336,7.799,0.0,0.0,0.0,0.0,7.5101,7.4762,7.4655,7.4265,7.3568,7.2815,7.2815,7.2263,7.153,7.1543,7.156,7.1572,7.1653,7.1668,7.1668,7.1668,7.1409,7.1094,7.1094,7.0703,7.0547,7.1719,7.1562,7.125,7.1875,7.1992,7.1836,7.125,7.1562,7.1836,7.1211,7.1601,7.1992,7.1992,7.1523,7.082,7.0,6.914,6.8281,6.7422,6.707,6.6914,6.6914,6.6461,6.6147,6.6016,6.4792,6.4106,6.4191,6.3397,6.2666,6.2139,6.1831,6.1408,6.0819,6.0781,6.0734,6.0597,6.0269,5.9609,5.8713,5.8354,5.8142,6.5128,6.7475,6.8925,6.8563,6.6509,0.0,6.3951,6.1466,5.935,5.9788,5.9665,5.9665,6.0204,6.0589,6.1004,6.1639,6.1736,0.0,0.0,0.0,0.0,0.0,0.0,0.0,0.0,0.0,0.0,0.0,0.0,0.0,8.0592,8.0285,8.0131,8.0131,8.0439,8.0592,8.0592,7.9746,7.9169,7.8861,7.849,7.8292,7.8146,7.7448,7.7,0.0,0.0,0.0,0.0,7.4017,7.3718,7.3574,7.3107,7.2574,7.2066,7.2066,7.1746,7.129,7.1378,7.1403,7.1381,7.1496,7.129,7.094,7.0628,7.0559,7.0615,7.0617,7.031,7.0273,7.164,7.1601,7.125,7.1445,7.1523,7.1289,7.039,7.0625,7.0976,7.0742,7.1133,7.1601,7.1953,7.1289,7.0547,7.0039,6.8945,6.8008,6.7461,6.7109,6.6874,6.6789,6.6619,6.6468,6.6298,6.5222,6.4714,6.5076,6.4282,6.3435,6.2589,6.2255,6.1678,6.0819,6.0781,6.0781,6.0781,6.0146,5.9526,5.8951,5.8304,5.7997,0.0,6.346,6.5359,6.5359,0.0,0.0,6.1831,5.9935,0.0,5.828,5.8896,5.9435,5.9473,6.0204,6.0819,6.0858,6.0896,0.0,0.0,0.0,0.0,0.0,0.0,0.0,0.0,0.0,0.0,0.0,0.0,0.0,7.9708,7.8968,7.8522,7.8522,7.9253,7.9661,7.9708,7.8853,7.8045,7.7299,7.7381,7.7089,7.6473,7.5815,7.5597,0.0,0.0,0.0,0.0,7.3247,7.2666,7.2238,7.1394,7.0946,7.0706,7.0706,7.0744,7.0837,7.1015,7.1113,7.1193,7.142,7.0866,7.0017,6.9116,6.9551,7.0313,7.0281,7.0409,7.0703,7.164,7.1914,7.1719,7.0898,7.0703,7.0469,6.9531,6.9375,6.9648,7.039,7.0586,7.0859,7.168,7.1094,7.0508,7.0508,6.914,6.8125,6.8125,6.7383,6.6832,6.6625,6.6478,6.6312,6.6128,6.6013,6.594,6.5807,6.4974,6.4128,6.3243,6.2512,6.1678,6.0819,6.0781,6.0781,6.0781,5.9885,5.9424,5.9372,5.8482,5.8042,5.7043,0.0,6.0089,6.0089,5.9627,5.9204,0.0,5.8204,5.7473,5.8165,0.0,5.8781,5.9396,6.0204,6.1012,6.1678,6.1793,6.2512,0.0,0.0,0.0,0.0,0.0,0.0,0.0,0.0,0.0,0.0,0.0,7.9515,7.8823,7.8747,7.8733,7.8733,7.8346,7.8335,7.88,7.8142,7.764,7.7299,7.6144,7.5624,7.5571,7.4918,7.4347,0.0,0.0,0.0,7.2271,7.1983,7.1334,7.0465,7.0153,6.9618,6.9013,6.9013,6.9398,6.9988,7.0029,7.044,7.0992,7.1041,7.0486,6.9637,6.8787,6.8428,6.836,6.836,6.8453,6.8911,7.0433,7.0929,7.0937,7.0742,7.0703,7.0273,6.8789,6.9023,6.9336,6.8867,6.9297,6.9765,6.9961,6.9336,6.8789,6.8789,6.789,6.7226,6.7226,6.7031,6.6832,6.6625,6.6478,6.6312,6.6128,6.5374,6.4944,6.4897,6.4089,6.3243,6.2397,6.2216,6.1678,6.0819,6.0781,6.0781,6.0781,6.0203,5.976,5.9372,5.8796,5.8332,5.5363,5.6637,5.799,5.8377,5.8183,5.799,5.8377,5.7525,0.0,0.0,0.0,5.8384,5.8422,6.0063,6.1281,6.0973,6.2204,0.0,0.0,0.0,0.0,0.0,0.0,0.0,0.0,0.0,0.0,0.0,0.0,7.8579,7.8116,7.7916,7.7738,7.7639,7.6914,7.7046,7.8077,7.6868,7.621,7.6092,7.4997,7.4538,7.4676,7.4021,7.3512,0.0,0.0,0.0,7.0888,7.0908,7.0218,6.9185,6.9117,6.8821,6.8385,6.8385,6.8706,6.9167,6.9552,7.0244,7.0821,7.0475,7.0052,6.9475,6.8205,6.7911,6.8025,6.8147,6.8321,6.8883,7.06,7.0883,7.0625,7.0234,6.9844,6.918,6.789,6.7969,6.8281,6.8203,6.8555,6.8984,6.9336,6.8711,6.8203,6.8203,6.7461,6.6914,6.6914,6.6831,6.6685,6.6521,6.6374,6.6209,6.6024,6.4763,6.4166,6.4589,6.4166,6.3358,6.2139,6.2101,6.1678,6.0819,6.0781,6.1012,6.1396,6.0529,6.006,5.9973,5.9119,5.8461,5.4889,5.6276,5.777,5.8192,5.787,5.7564,5.8182,0.0,0.0,0.0,0.0,0.0,0.0,0.0,0.0,0.0,0.0,0.0,0.0,0.0,0.0,0.0,0.0,0.0,0.0,0.0,0.0,0.0,0.0,7.7329,7.7213,7.6579,7.6138,7.5907,7.5357,7.5707,7.703,7.5401,7.4571,7.4514,7.3751,7.3443,7.355,7.2724,7.2361,7.2342,0.0,0.0,6.9731,6.9904,6.9265,6.8205,6.8205,6.8052,6.7859,6.7975,6.8013,6.8167,6.9167,6.9937,7.0398,6.9706,6.9398,6.9013,6.7552,6.7513,6.8078,6.8358,6.8776,6.9463,7.0867,7.0855,7.0228,6.9408,6.8666,6.7885,6.7025,6.6833,6.7069,6.7811,6.7968,6.8203,6.8906,6.8437,6.7969,6.7812,6.7187,6.6719,6.6719,6.6541,6.6385,6.6406,6.6212,6.6039,6.5897,6.4436,6.3782,6.4359,6.4166,6.3397,6.1947,6.1908,6.155,6.0819,6.0849,6.1272,6.2101,6.1013,6.063,6.0841,5.959,5.873,5.4885,5.6964,5.8538,5.6991,5.7014,5.7253,5.6703,5.6386,0.0,0.0,0.0,0.0,0.0,0.0,0.0,0.0,0.0,0.0,0.0,0.0,0.0,0.0,0.0,0.0,0.0,0.0,0.0,0.0,0.0,7.6195,7.5443,7.4753,7.435,7.4186,7.4062,7.4139,7.4369,7.4093,7.3855,7.3668,7.2069,7.1463,7.1591,7.0058,6.9407,6.9517,0.0,6.9194,6.8878,6.8917,6.8281,6.7282,6.7282,6.6436,6.5282,6.6013,6.6282,6.6513,6.8052,6.8667,6.8783,6.8629,6.809,6.7436,6.7167,6.6705,6.641,6.7166,6.806,6.8834,6.9106,6.9155,6.8967,6.8182,6.787,6.7553,6.6657,6.658,6.6673,6.6829,6.6983,6.7148,6.7265,6.7187,6.6836,6.6094,6.5898,6.5781,6.5781,6.5602,6.5718,6.6328,6.6212,6.6039,6.5897,6.4974,6.4128,6.3538,6.2166,6.1281,6.1012,6.1012,6.0935,6.0781,6.1092,6.1513,6.2101,6.2185,6.2043,6.1691,6.0807,5.9881,5.3698,5.5426,5.6991,5.6532,5.808,5.9488,5.8668,5.8122,0.0,0.0,0.0,0.0,0.0,0.0,0.0,0.0,0.0,0.0,0.0,0.0,0.0,0.0,0.0,0.0,0.0,0.0,0.0,0.0,0.0,0.0,7.4494,7.3744,7.3278,7.3101,7.221,7.1672,7.1579,7.1104,7.13,7.2091,7.036,6.9423,6.914,6.884,6.8479,6.8124,0.0,6.8255,6.7189,6.727,6.6394,6.5051,6.5051,6.4589,6.4012,6.4897,6.5513,6.6051,6.7282,6.8013,6.8321,6.7859,6.7744,6.7628,6.6744,6.6821,6.7244,6.7128,6.7536,6.8104,6.8568,6.8474,6.8151,6.7801,6.7327,6.6899,6.6504,6.6096,6.5791,6.5791,6.5565,6.5531,6.6,6.5778,6.5508,6.5586,6.5195,6.4882,6.4791,6.5039,6.5261,6.5522,6.5403,6.5246,6.5217,6.4012,6.3089,6.2666,6.1473,6.0781,6.0781,6.1243,6.1512,6.1512,6.184,6.249,6.3435,6.2873,6.2741,6.2959,6.2124,6.0959,5.2383,5.3828,5.539,5.5898,5.8281,6.0547,6.0664,5.9881,0.0,0.0,0.0,0.0,0.0,0.0,0.0,0.0,0.0,0.0,0.0,0.0,0.0,0.0,0.0,0.0,0.0,0.0,0.0,0.0,0.0,0.0,7.3364,7.2375,7.1659,7.1236,6.9997,6.9142,6.8821,6.7936,6.8359,6.9975,6.8513,6.742,6.6776,6.724,6.7085,6.6476,6.7484,6.6884,6.5307,6.5638,6.4784,6.3308,6.3308,6.3308,6.3346,6.3858,6.4705,6.5667,6.6282,6.6936,6.7436,6.6974,6.7128,6.7321,6.6244,6.6782,6.7667,6.7013,6.6939,6.724,6.8081,6.7802,6.7278,6.7278,6.6765,6.6213,6.6027,6.5482,6.4986,6.483,6.4406,6.4322,6.5004,6.4681,6.4453,6.4922,6.4414,6.3942,6.3821,6.4218,6.4563,6.4781,6.4508,6.4205,6.4012,6.282,6.2024,6.1831,6.1166,6.0781,6.0781,6.1639,6.2101,6.2101,6.2619,6.3447,6.4589,6.3638,6.3535,6.4176,6.3299,6.2138,5.1484,5.3359,5.5117,5.4375,5.5586,5.7773,6.0898,6.0215,0.0,6.3068,0.0,0.0,0.0,0.0,0.0,0.0,0.0,0.0,0.0,0.0,0.0,0.0,0.0,0.0,0.0,0.0,0.0,0.0,0.0,0.0,7.1388,6.9876,6.8517,6.7526,6.7372,6.6936,6.6167,6.532,6.5705,6.7359,6.6474,6.5641,6.478,6.4049,6.3664,6.3626,6.4535,6.4369,6.3551,6.4383,6.4152,6.3308,6.3308,6.3308,6.3243,6.2512,6.3281,6.4705,6.4743,6.482,6.5013,6.5743,6.5474,6.5013,6.5705,6.5974,6.6051,6.6013,6.5999,6.6166,6.7013,6.6614,6.601,6.601,6.5972,6.5702,6.4894,6.477,6.4649,6.4021,6.4012,6.4143,6.4334,6.4336,6.4062,6.3281,6.3125,6.3043,6.292,6.2776,6.3235,6.4665,6.3968,6.3089,6.2332,6.2178,6.1755,6.0935,6.0819,6.0781,6.0781,6.1639,6.2101,6.2101,6.3155,6.3996,6.4589,6.48,6.4946,6.5,6.4176,6.3481,4.9755,5.1971,5.4266,5.3844,5.5111,0.0,0.0,6.0967,6.1505,6.2839,6.3743,0.0,0.0,0.0,0.0,0.0,0.0,0.0,0.0,0.0,0.0,0.0,0.0,0.0,0.0,0.0,0.0,0.0,0.0,0.0,0.0,6.7939,6.6764,6.6372,6.5282,6.4589,6.4282,6.3974,6.3858,6.3986,6.4205,6.3858,6.3051,6.3205,6.3051,6.2589,6.3435,6.332,6.2589,6.2897,6.2512,6.1743,6.1743,6.1743,6.1781,6.2012,6.2524,6.3128,6.3628,6.3782,6.3858,6.4166,6.4051,6.3858,6.4166,6.4282,6.4282,6.4282,6.4282,6.4589,6.5974,6.6128,6.5743,6.5205,6.5089,6.4859,6.3974,6.351,6.3184,6.292,6.2668,6.2686,6.3256,6.3003,6.2773,6.2969,6.2539,6.21,6.1903,6.2252,6.2648,6.3085,6.2787,6.2204,6.1358,6.1281,6.1127,6.0819,6.0781,6.0781,6.0781,6.1639,6.232,6.2858,6.3461,6.4341,6.5397,6.5182,6.5276,6.5583,6.529,6.4594,4.9284,5.1252,5.3451,5.3667,0.0,0.0,5.9798,6.1528,6.288,6.4199,6.4403,0.0,0.0,0.0,0.0,0.0,0.0,0.0,0.0,0.0,0.0,0.0,0.0,0.0,0.0,0.0,0.0,0.0,0.0,0.0,0.0,6.634,6.5243,6.4705,6.3551,6.2781,6.2512,6.2512,6.2243,6.1716,6.2243,6.2204,6.1716,6.2243,6.2204,6.1755,6.2551,6.2435,6.1716,6.1985,6.1601,6.0781,6.0781,6.0781,6.0858,6.1485,6.187,6.2178,6.2743,6.2935,6.2974,6.3243,6.3128,6.2974,6.3243,6.3308,6.3346,6.3628,6.3512,6.3628,6.5128,6.5282,6.4936,6.432,6.4205,6.3974,6.3089,6.2583,6.2227,6.1956,6.1696,6.1699,6.2284,6.2019,6.1914,6.25,6.2068,6.1571,6.1318,6.1746,6.1926,6.1724,6.1947,6.1755,6.0858,6.0781,6.0781,6.0781,6.0781,6.0781,6.0781,6.1639,6.237,6.2897,6.3381,6.4263,6.5474,6.512,6.5273,6.5897,6.5897,6.5396,5.0391,5.1316,0.0,0.0,0.0,0.0,6.0203,6.1888,6.3658,6.7822,0.0,0.0,0.0,0.0,0.0,0.0,0.0,0.0,0.0,0.0,0.0,0.0,0.0,0.0,0.0,0.0,0.0,0.0,0.0,0.0,0.0,6.5051,6.382,6.2139,6.2101,6.1678,6.0781,6.0781,6.0781,6.0781,6.0781,6.0781,6.0781,6.0781,6.0781,6.0858,6.1716,6.1601,6.0858,6.1716,6.1601,6.0781,6.0781,6.0781,6.0781,6.0781,6.137,6.2101,6.2101,6.2101,6.2216,6.3012,6.2743,6.2243,6.3051,6.3269,6.3474,6.432,6.3935,6.3462,6.4359,6.3935,6.3269,6.3269,6.3269,6.3089,6.2255,6.2208,6.2034,6.1161,6.1273,6.1504,6.1504,6.1629,6.1719,6.1719,6.1582,6.1432,6.1306,6.1128,6.0944,6.0816,6.1562,6.1755,6.0858,6.0781,6.0781,6.0781,6.0781,6.0781,6.0781,6.1639,6.2101,6.2101,6.2897,6.3743,6.4589,6.4589,6.5051,6.5897,6.5897,6.5897,4.8658,5.0238,0.0,5.3374,0.0,0.0,0.0,6.159,0.0,0.0,0.0,0.0,0.0,0.0,0.0,0.0,0.0,0.0,0.0,0.0,0.0,0.0,0.0,0.0,0.0,0.0,0.0,0.0,0.0,0.0,0.0,6.3628,6.2601,6.2139,6.1524,6.0781,5.9896,6.0473,6.0473,5.9896,6.0512,6.0781,6.0781,6.0781,6.0781,6.0819,6.105,6.105,6.0819,6.1089,6.1012,6.0781,6.0781,6.0781,6.0781,6.0781,6.0973,6.1166,6.1166,6.1166,6.1204,6.1473,6.1396,6.1243,6.1473,6.155,6.1589,6.1858,6.1743,6.1589,6.1858,6.1743,6.1704,6.232,6.2474,6.2204,6.1358,6.1281,6.135,6.1225,6.1373,6.152,6.1632,6.1679,6.1719,6.1719,6.1582,6.1404,6.1104,6.0935,6.0845,6.0793,6.1012,6.1089,6.0819,6.0242,6.0165,6.0742,6.0204,6.0165,6.0781,6.105,6.1485,6.2101,6.232,6.2858,6.3705,6.432,6.4743,6.5013,6.559,6.5897,5.0007,0.0,0.0,0.0,0.0,0.0,0.0,0.0,0.0,0.0,0.0,0.0,0.0,0.0,0.0,0.0,0.0,0.0,0.0,0.0,0.0,0.0,0.0,0.0,0.0,0.0,0.0,0.0,0.0,0.0,0.0,6.2639,6.1947,6.1601,6.0742,6.0012,5.9511,5.9704,5.955,5.905,5.955,5.9819,5.9819,6.0512,6.0781,6.0781,6.0781,6.0781,6.0781,6.0781,6.0781,6.0781,6.0781,6.0781,6.0781,6.0781,6.0781,6.0781,6.0781,6.0781,6.0781,6.0781,6.0781,6.0781,6.0781,6.0834,6.0959,6.1306,6.1152,6.0959,6.1306,6.1103,6.0935,6.1447,6.1601,6.1435,6.0896,6.0895,6.104,6.1165,6.1052,6.101,6.108,6.0897,6.082,6.1133,6.133,6.1334,6.1048,6.0892,6.0781,6.0781,6.0781,6.0781,6.0781,6.0012,5.9858,6.0742,5.9973,5.9799,6.0482,6.0722,6.105,6.1562,6.1601,6.1973,6.282,6.3358,6.3935,6.4628,6.5128,6.5551,5.296,0.0,0.0,0.0,0.0,0.0,0.0,0.0,0.0,0.0,0.0,0.0,0.0,0.0,0.0,0.0,0.0,0.0,0.0,0.0,0.0,0.0,0.0,0.0,0.0,0.0,0.0,0.0,0.0,0.0,0.0,6.1947,6.1512,6.0704,5.9858,5.9358,5.9281,5.8627,5.828,5.8165,5.828,5.8319,5.8357,5.9935,6.0666,6.0666,6.0666,6.0627,6.055,6.055,6.0627,6.0666,6.0666,6.0742,6.0781,6.0781,6.0781,6.0781,6.0781,6.0781,6.0781,6.0781,6.0781,6.0781,6.0781,6.0874,6.1152,6.1956,6.1617,6.1191,6.1995,6.1502,6.0781,6.0781,6.0742,6.0666,6.0666,6.074,6.0773,6.079,6.0417,6.0099,6.0104,5.9599,5.9453,6.0273,6.0854,6.1149,6.1031,6.0892,6.0781,6.0781,6.0742,6.0666,6.0666,5.9819,5.9665,6.0627,5.9858,5.9612,6.0137,6.0521,6.0746,6.0746,6.0746,6.1142,6.1985,6.2062,6.2897,6.4474,6.4551,6.5051,5.1481,5.2652,0.0,0.0,0.0,0.0,0.0,0.0,0.0,0.0,0.0,0.0,0.0,0.0,0.0,0.0,0.0,0.0,0.0,0.0,0.0,0.0,0.0,0.0,0.0,0.0,0.0,0.0,0.0,0.0,6.2062,6.0781,5.9973,5.9781,5.8973,5.8242,5.7561,5.805,5.7973,0.0,5.7973,5.8319,5.8319,5.9319,5.9781,5.9781,5.9781,5.9435,5.8858,5.8858,5.9204,5.9781,5.9781,6.0204,6.0781,6.0781,6.0781,6.0781,6.0781,6.0781,6.0781,6.0781,6.0781,6.0781,6.0781,6.0874,6.1036,6.1229,6.1152,6.1036,6.1229,6.1039,6.0781,6.0781,6.0281,5.9781,5.9781,5.9379,5.9063,5.9186,5.9196,5.9214,5.9408,5.9296,5.9451,6.0126,6.0257,6.0443,6.0954,6.0892,6.0781,6.0781,6.0204,5.9781,5.9781,5.8396,5.8165,5.9665,5.9011,5.9169,6.0608,6.0378,6.0269,6.0269,6.0269,6.052,6.1089,6.1793,6.2589,6.3589,6.4282,6.5051,5.1125,0.0,0.0,5.8114,0.0,0.0,0.0,0.0,0.0,0.0,0.0,0.0,0.0,0.0,0.0,0.0,0.0,0.0,0.0,0.0,0.0,0.0,0.0,0.0,0.0,0.0,0.0,0.0,0.0,6.1012,6.1447,6.0204,5.9511,5.9511,5.8319,5.7473,5.6983,5.7049,5.6819,5.6368,5.6819,5.728,5.7703,5.855,5.8934,5.8934,5.8934,5.8704,5.8319,5.8319,5.855,5.8934,5.8934,5.9435,6.0165,6.0165,6.0435,6.0781,6.0781,6.0781,6.0781,6.0781,6.0781,6.0781,6.0781,6.0874,6.0997,6.0997,6.0997,6.0997,6.0997,6.0884,6.0704,6.0281,5.9819,5.9507,5.9559,5.904,5.856,5.8778,5.8503,5.8321,5.8554,5.8594,5.8827,5.9596,5.9928,6.0204,6.048,6.0381,6.0138,5.9638,5.9204,5.8934,5.8934,5.8127,5.8165,5.9435,5.9127,5.9365,6.0406,6.0217,6.0189,6.0443,6.0443,6.0572,6.0781,6.1243,6.2089,6.3308,6.3782,6.4666,5.0819,0.0,5.5757,5.9452,0.0,0.0,0.0,0.0,0.0,0.0,0.0,0.0,0.0,0.0,0.0,0.0,0.0,0.0,0.0,0.0,0.0,0.0,0.0,0.0,0.0,0.0,0.0,0.0,0.0,6.0589,6.0589,5.9627,5.905,5.905,5.7599,5.6791,5.6791,5.6049,5.5703,5.5703,5.5703,5.6088,5.6791,5.7511,5.7934,5.8088,5.8088,5.8011,5.7857,5.7857,5.7934,5.8088,5.8088,5.8588,5.9319,5.9435,5.9973,6.0589,6.0742,6.0781,6.0781,6.0781,6.0781,6.0781,6.0781,6.0874,6.0997,6.0997,6.0997,6.0997,6.0997,6.0884,6.0589,5.9704,5.9396,5.9282,5.9261,5.8651,5.8168,5.8425,5.7919,5.7473,5.7656,5.7695,5.7969,5.8828,5.9433,5.9755,5.976,5.9668,5.9243,5.8391,5.8165,5.8088,5.8088,5.8088,5.8434,5.9242,5.9435,5.9739,6.0217,6.0203,6.0391,6.0781,6.0734,6.0734,6.0781,6.0781,6.1666,6.3308,6.3166,6.4089,0.0,0.0,5.6053,0.0,0.0,0.0,0.0,0.0,0.0,0.0,0.0,0.0,0.0,0.0,0.0,0.0,0.0,0.0,0.0,0.0,0.0,0.0,0.0,0.0,0.0,0.0,0.0,0.0,6.0089,5.9665,5.9665,5.8204,5.733,5.733,5.6357,5.5857,5.5857,5.5742,5.5703,5.5703,5.5703,5.5742,5.5857,5.5972,5.6472,5.7176,5.7176,5.6753,5.6049,5.6049,5.6472,5.7176,5.7176,5.7703,5.855,5.9242,5.9588,5.9781,6.055,6.0781,6.0781,6.0781,6.0781,6.0781,6.0781,6.0874,6.0997,6.0997,6.0997,6.0997,6.0997,6.0884,6.0589,5.9704,5.8973,5.828,5.7684,5.6982,5.6558,5.6683,5.6741,5.6757,5.6758,5.6758,5.707,5.793,5.7988,5.8187,5.8782,5.876,5.8576,5.8352,5.7627,5.7176,5.7176,5.7176,5.755,5.8396,5.9127,5.9873,6.0683,6.0722,6.0746,6.0781,6.0391,6.0378,6.0781,6.0781,6.1666,6.3269,6.2589,6.3551,4.9394,5.1818,5.4318,0.0,0.0,0.0,0.0,0.0,0.0,0.0,0.0,0.0,0.0,0.0,0.0,0.0,0.0,0.0,0.0,0.0,0.0,0.0,0.0,0.0,0.0,0.0,0.0,0.0,5.9973,5.9511,5.9511,5.7896,5.6983,5.6983,5.5703,5.5011,5.5011,5.5011,5.5241,5.5703,5.5703,5.5472,5.5011,5.5011,5.5472,5.6291,5.6291,5.6049,5.5703,5.5703,5.5934,5.6291,5.6291,5.678,5.7588,5.7973,5.8396,5.8934,5.9781,6.0089,6.0165,6.0627,6.0781,6.0781,6.0781,6.0845,6.0902,6.0902,6.0902,6.0902,6.0902,6.0498,5.9858,5.905,5.8165,5.7356,5.6639,5.6349,5.6256,5.6462,5.656,5.6601,5.6601,5.6601,5.6914,5.7773,5.7808,5.7814,5.7936,5.835,5.8141,5.6988,5.6934,5.6791,5.6329,5.6714,5.7357,5.8242,5.905,5.9896,6.0742,6.0781,6.0781,6.0781,6.061,6.0597,6.0781,6.0781,6.1435,6.2627,6.2255,6.3205,0.0,0.0,5.2472,5.6088,0.0,0.0,0.0,0.0,0.0,0.0,0.0,0.0,0.0,0.0,0.0,0.0,0.0,0.0,0.0,0.0,0.0,0.0,0.0,0.0,0.0,0.0,0.0,0.0,5.9358,5.8858,5.8858,5.7484,5.6599,5.6368,5.5164,5.4395,5.4164,5.4164,5.4472,5.5049,5.5049,5.4741,5.4164,5.4164,5.4511,5.5049,5.5049,5.5049,5.5049,5.5049,5.5203,5.5357,5.5164,5.5703,5.6676,5.6676,5.7203,5.8088,5.8896,5.9204,5.9319,5.9935,6.0281,6.0473,6.0473,6.0627,6.0781,6.0781,6.0781,6.0742,6.0512,5.9973,5.9242,5.8204,5.7473,5.6809,5.6133,5.6102,5.6301,5.656,5.6601,5.6601,5.6601,5.6601,5.6836,5.7461,5.7578,5.7448,5.7128,5.7676,5.7546,5.619,5.6406,5.6522,5.6049,5.6819,5.7511,5.7934,5.9127,6.0012,6.0435,6.0666,6.0781,6.0781,6.0781,6.0781,6.0781,6.0781,6.1243,6.2101,6.187,6.2781,0.0,4.8894,0.0,5.301,0.0,0.0,0.0,0.0,0.0,0.0,0.0,0.0,0.0,0.0,0.0,0.0,0.0,0.0,0.0,0.0,0.0,0.0,0.0,0.0,0.0,0.0,0.0,0.0,5.7627,5.7137,5.7137,5.6242,5.5434,5.4664,5.4549,5.4087,5.328,5.328,5.328,5.3318,5.3318,5.3318,5.328,5.328,5.328,5.3318,5.3318,5.3318,5.3318,5.3318,5.3818,5.4472,5.3664,5.4318,5.578,5.578,5.6329,5.7176,5.805,5.8357,5.8357,5.8434,5.8934,5.9588,5.9588,6.0127,6.0781,6.0781,6.0781,6.0589,5.9781,5.955,5.9088,5.7445,5.7022,5.6859,5.631,5.6281,5.6445,5.6561,5.6601,5.6601,5.6601,5.6601,5.6601,5.664,5.668,5.6589,5.6305,5.6308,5.6498,5.6883,5.6252,5.6088,5.6868,5.7742,5.7896,5.7137,5.9358,6.0396,5.9588,6.0358,6.0781,6.0781,6.0781,6.0781,6.0781,6.0781,6.1243,6.2101,6.1243,6.2204,0.0,0.0,0.0,5.1048,0.0,0.0,0.0,0.0,0.0,0.0,0.0,0.0,0.0,0.0,0.0,0.0,0.0,0.0,0.0,0.0,0.0,0.0,0.0,0.0,0.0,0.0,0.0,0.0,0.0,5.6983,5.6983,5.5665,5.478,5.4511,5.3395,5.2692,5.2385,5.2385,5.2654,5.3203,5.3203,5.2933,5.2385,5.2385,5.2087,5.1587,5.1587,5.2202,5.3203,5.3203,5.3395,5.3626,5.3318,5.3587,5.4087,5.4087,5.4664,5.5511,5.6357,5.7011,5.755,5.8127,5.8511,5.8742,5.8742,5.8934,5.9204,5.9204,5.9204,5.9127,5.8819,5.8319,5.7473,5.578,5.578,5.6011,5.5468,5.5471,5.5628,5.5741,5.6211,5.6601,5.6601,5.6601,5.6601,5.6601,5.6601,5.6511,5.6227,5.7159,5.761,5.7076,5.7665,5.7819,5.706,5.778,5.8165,5.7857,5.9165,6.0089,6.0319,6.0627,6.0781,6.0781,6.0781,6.0781,6.0781,6.0781,6.0973,6.1243,6.0935,6.1589,4.6317,0.0,0.0,0.0,0.0,0.0,0.0,0.0,0.0,0.0,0.0,0.0,0.0,0.0,0.0,0.0,0.0,0.0,0.0,0.0,0.0,0.0,0.0,0.0,0.0,0.0,0.0,0.0,0.0,0.0,5.6175,5.5088,5.4126,5.3241,5.1818,5.0923,5.0615,5.0615,5.0923,5.151,5.151,5.1202,5.0615,5.0923,5.0779,5.0289,5.0558,5.1318,5.2356,5.2356,5.251,5.2741,5.2472,5.2702,5.3164,5.2856,5.3318,5.4164,5.5011,5.5665,5.6291,5.7165,5.7627,5.7857,5.7857,5.8088,5.8319,5.8319,5.8319,5.8242,5.7934,5.7011,5.5868,5.4741,5.4736,5.483,5.4546,5.4974,5.5522,5.5701,5.6211,5.6601,5.6601,5.6601,5.6601,5.6601,5.656,5.6454,5.6222,5.7112,5.7575,5.7065,5.7742,5.7896,5.706,5.7511,5.7742,5.7434,5.8742,5.9627,5.9935,6.0512,6.0781,6.0781,6.0781,6.0781,6.0781,6.0781,6.0781,6.0781,6.0781,6.1281,0.0,0.0,0.0,0.0,0.0,0.0,0.0,0.0,0.0,0.0,0.0,0.0,0.0,0.0,0.0,0.0,0.0,0.0,0.0,0.0,0.0,0.0,0.0,0.0,0.0,0.0,0.0,0.0,5.5665,5.528,5.4549,5.4434,5.3241,5.075,4.9817,4.8971,4.8125,4.8086,4.8086,4.8086,4.8086,4.8086,4.8125,4.8971,4.9356,4.9394,5.025,5.0635,5.0635,5.0673,5.1164,5.1769,5.101,5.1702,5.301,5.2192,5.2423,5.328,5.4126,5.4434,5.4587,5.5395,5.6252,5.6945,5.6945,5.755,5.8242,5.8242,5.8242,5.805,5.7176,5.5742,5.4511,5.4521,5.3974,5.349,5.3597,5.499,5.6269,5.652,5.6562,5.6601,5.6601,5.6601,5.6601,5.6601,5.6506,5.6361,5.6212,5.6044,5.6218,5.6928,5.6291,5.6088,5.6945,5.7022,5.6676,5.578,5.8088,5.9127,5.8357,5.9858,6.0742,6.0781,6.0781,6.0781,6.0781,6.0781,6.0781,6.0781,6.0781,6.1281,4.5594,0.0,0.0,0.0,0.0,0.0,0.0,0.0,0.0,0.0,0.0,0.0,0.0,0.0,0.0,0.0,0.0,0.0,0.0,0.0,0.0,0.0,0.0,0.0,0.0,0.0,0.0,0.0,5.4587,5.4087,5.4472,5.2741,5.1125,4.9779,4.8894,4.8355,4.8086,4.8086,4.8086,4.8086,4.8086,4.8086,4.8125,4.8355,4.8471,4.8471,4.8702,4.8817,4.8933,5.0164,5.0827,5.101,5.0789,5.0981,5.1356,5.1125,5.1548,5.2269,5.2538,5.3049,5.3703,5.4549,5.5011,5.528,5.5857,5.6242,5.6434,5.6434,5.6434,5.6357,5.6126,5.5703,5.5255,5.4752,5.4862,5.4817,5.3931,5.5052,5.6074,5.5739,5.6172,5.6601,5.6601,5.6601,5.6601,5.6601,5.6506,5.6361,5.6212,5.6587,5.6875,5.6977,5.7357,5.7434,5.7022,5.7588,5.755,5.6714,5.7896,5.8781,5.9165,5.905,5.955,6.0781,6.0165,6.0165,6.0781,6.0781,6.0781,6.0781,6.0781,6.1281,0.0,0.0,0.0,0.0,0.0,0.0,4.7126,4.7963,0.0,0.0,0.0,0.0,0.0,0.0,0.0,0.0,0.0,0.0,0.0,0.0,0.0,0.0,0.0,0.0,0.0,5.378,5.3626,5.4587,5.3741,5.328,5.3395,5.101,4.9394,4.8856,4.8048,4.7432,4.7048,4.7048,4.7048,4.7048,4.7048,4.7048,4.7086,4.7432,4.7586,4.7625,4.7971,4.8086,4.8202,4.9202,4.9625,4.9625,4.9625,4.9625,4.9663,5.001,5.0433,5.0971,5.1654,5.2231,5.2818,5.3664,5.3972,5.4126,5.4934,5.4934,5.478,5.5511,5.5703,5.5703,5.5703,5.5489,5.518,5.4785,5.5056,5.5186,5.4489,5.5344,5.6085,5.5427,5.6015,5.6601,5.6601,5.6601,5.6601,5.6601,5.645,5.6277,5.6202,5.6405,5.6532,5.6456,5.6896,5.7011,5.6522,5.6934,5.7011,5.6483,5.728,5.7973,5.8434,5.8357,5.8781,5.9742,5.9281,5.9242,5.9742,6.0089,6.0242,6.0281,6.0627,6.105,0.0,0.0,0.0,0.0,0.0,0.0,4.6923,4.643,4.6135,0.0,0.0,0.0,0.0,0.0,0.0,0.0,0.0,0.0,0.0,0.0,0.0,0.0,0.0,0.0,5.3423,5.3087,5.301,5.3203,5.3049,5.2549,5.1654,4.9308,4.7971,4.7971,4.7201,4.6394,4.5594,4.5594,4.5594,4.5594,4.5594,4.5594,4.5633,4.6394,4.6778,4.6817,4.7509,4.7817,4.7817,4.7817,4.7932,4.8086,4.8086,4.8086,4.8202,4.8971,4.9317,4.9625,5.1115,5.1692,5.1923,5.2779,5.3049,5.3241,5.4087,5.3818,5.351,5.5011,5.5472,5.5549,5.5549,5.5218,5.4855,5.4839,5.4971,5.5073,5.5106,5.5814,5.6174,5.5429,5.6015,5.6601,5.6601,5.6601,5.6601,5.6601,5.6383,5.6217,5.6217,5.5962,5.5758,5.5758,5.5728,5.5717,5.5717,5.5724,5.5703,5.5703,5.6445,5.6907,5.6983,5.7665,5.8088,5.8319,5.8319,5.8242,5.8165,5.905,5.9511,5.9511,6.0396,6.0781,0.0,0.0,0.0,0.0,0.0,0.0,4.5092,4.5003,4.5102,0.0,0.0,0.0,0.0,0.0,0.0,0.0,0.0,0.0,0.0,0.0,0.0,0.0,0.0,0.0,5.4143,5.2395,5.1741,5.3087,5.1933,5.0818,4.9933,4.8125,4.7115,4.7115,4.6317,4.5787,4.5594,4.5594,4.5594,4.5594,4.5594,4.5594,4.5594,4.5787,4.5855,4.5864,4.6018,4.6095,4.6095,4.6095,4.6894,4.8086,4.8086,4.8086,4.8125,4.8279,4.8817,4.9433,4.9779,5.0356,5.1048,5.1895,5.2154,5.2308,5.3203,5.3318,5.328,5.3587,5.4203,5.4741,5.4741,5.5209,5.5692,5.5889,5.5942,5.5831,5.5341,5.5878,5.6174,5.5429,5.6015,5.6601,5.6601,5.6601,5.6601,5.6601,5.646,5.6368,5.6368,5.6212,5.6104,5.6104,5.5963,5.5857,5.5857,5.575,5.5703,5.5703,5.5857,5.6291,5.6983,5.6472,5.6857,5.828,5.8319,5.7934,5.7253,5.8781,5.9511,5.9511,6.0396,6.0781,0.0,0.0,0.0,4.5115,0.0,0.0,0.0,4.4184,4.4162,4.4587,0.0,0.0,0.0,0.0,0.0,0.0,0.0,0.0,0.0,0.0,0.0,0.0,0.0,0.0,5.3748,5.177,5.0828,5.1885,5.0356,4.9394,4.9394,4.7394,4.6432,4.6885,4.6047,4.5594,4.5594,4.5594,4.5594,4.5594,4.5594,4.5594,4.5594,4.5594,4.5594,4.5594,4.5594,4.5594,4.5594,4.5594,4.6095,4.6855,4.6855,4.6855,4.6894,4.7355,4.7778,4.8202,4.8625,4.9048,4.9471,4.9856,5.0317,5.0818,5.1702,5.2549,5.3126,5.2654,5.3164,5.3964,5.4486,5.5002,5.5533,5.6143,5.6361,5.6331,5.6014,5.6246,5.6398,5.6015,5.6289,5.6601,5.6601,5.6601,5.6601,5.6601,5.6506,5.6389,5.6389,5.6269,5.6191,5.6191,5.6122,5.6071,5.6071,5.5883,5.5788,5.5788,5.5748,5.5895,5.6329,5.5934,5.6126,5.6973,5.7011,5.678,5.6368,5.7627,5.8473,5.8934,5.9742,6.0396,0.0,0.0,0.0,0.0,0.0,4.3912,0.0,0.0,0.0,4.3515,0.0,0.0,0.0,0.0,0.0,0.0,0.0,0.0,0.0,0.0,0.0,0.0,0.0,0.0,0.0,5.1086,5.0117,5.0423,4.8856,4.8163,4.8894,4.6826,4.5932,4.6624,4.597,4.5594,4.5594,4.5594,4.5594,4.5594,4.5594,4.5594,4.5594,4.5594,4.5594,4.5594,4.5594,4.5594,4.5594,4.5594,4.5594,4.5594,4.5594,4.5594,4.571,4.6394,4.6778,4.7,4.7663,4.7971,4.8086,4.8086,4.8702,4.9548,5.0442,5.1664,5.2587,5.1856,5.2433,5.3378,5.4218,5.4802,5.5376,5.6215,5.651,5.6601,5.6601,5.6601,5.6601,5.6601,5.6601,5.6601,5.6601,5.6601,5.6601,5.6601,5.6511,5.6448,5.6448,5.6358,5.6269,5.6269,5.6246,5.6232,5.6232,5.6052,5.5924,5.5885,5.5634,5.5574,5.5714,5.5703,5.5703,5.5703,5.5703,5.5703,5.5703,5.6406,5.7203,5.8088,5.905,5.9896,0.0,0.0,0.0,0.0,4.3833,0.0,0.0,0.0,4.3515,4.3515,0.0,0.0,0.0,0.0,0.0,0.0,0.0,0.0,0.0,0.0,0.0,0.0,0.0,0.0,0.0,5.0259,4.9519,4.9548,4.8009,4.7077,4.7201,4.6163,4.5633,4.5748,4.5671,4.5594,4.5594,4.5594,4.5594,4.5594,4.5594,4.5594,4.5594,4.5594,4.5594,4.5594,4.5594,4.5594,4.5594,4.5594,4.5594,4.5594,4.5594,4.5594,4.5594,4.571,4.624,4.6923,4.7,4.7509,4.8086,4.8086,4.8702,4.9548,5.0442,5.0827,5.0981,5.0866,5.1972,5.3263,5.3483,5.4802,5.6111,5.6332,5.651,5.6601,5.6601,5.6601,5.6601,5.6601,5.6601,5.6601,5.6601,5.6601,5.6601,5.6601,5.6601,5.6562,5.6562,5.6561,5.656,5.656,5.6452,5.6377,5.6377,5.6246,5.6104,5.5893,5.521,5.507,5.5675,5.5703,5.5703,5.5703,5.5703,5.5703,5.5703,5.578,5.628,5.7176,5.8781,5.955,0.0,0.0,0.0,0.0,0.0,0.0,0.0,0.0,4.3515,0.0,0.0,0.0,0.0,0.0,0.0,0.0,4.4745,0.0,0.0,0.0,0.0,0.0,0.0,0.0,0.0,0.0,0.0,0.0,4.7644,4.6666,4.6885,4.6086,4.5594,4.5594,4.5594,4.5594,4.5594,4.5594,4.5594,4.5594,4.5594,4.5594,4.5594,4.5594,4.5594,4.5594,4.5594,4.5594,4.5594,4.5594,4.5594,4.5594,4.5594,4.5594,4.5594,4.5594,4.5825,4.6163,4.6163,4.6355,4.674,4.724,4.7663,4.8202,4.9548,4.9933,5.0086,5.0645,5.1653,5.274,5.3457,5.4597,5.5705,5.6349,5.656,5.6601,5.6601,5.6601,5.6601,5.6601,5.6601,5.6601,5.6601,5.6601,5.6601,5.6601,5.6601,5.6601,5.6601,5.6601,5.6601,5.6601,5.6559,5.6514,5.6514,5.6386,5.6277,5.6188,5.5701,5.5474,5.5675,5.5703,5.5703,5.5703,5.5703,5.5703,5.5703,5.5703,5.5895,5.6291,5.8011,5.905,4.5475,0.0,0.0,0.0,0.0,0.0,0.0,0.0,0.0,0.0,0.0,0.0,0.0,0.0,0.0,0.0,0.0,0.0,0.0,0.0,0.0,0.0,0.0,0.0,0.0,0.0,0.0,4.869,4.7035,4.609,4.6398,4.5896,4.5594,4.5594,4.5594,4.5594,4.5594,4.5594,4.5594,4.5594,4.5594,4.5594,4.5594,4.5594,4.5594,4.5594,4.5594,4.5594,4.5594,4.5594,4.5594,4.5594,4.5594,4.5594,4.5594,4.5594,4.5594,4.5594,4.5594,4.5594,4.5748,4.6624,4.6885,4.7201,4.8894,4.9394,4.9604,5.0604,5.1477,5.2305,5.3195,5.4094,5.5005,5.6014,5.625,5.6328,5.6562,5.6601,5.6601,5.6601,5.6601,5.6601,5.6559,5.6558,5.656,5.6601,5.6561,5.656,5.6601,5.6601,5.6601,5.6601,5.6601,5.6601,5.6601,5.6512,5.6324,5.601,5.5902,5.5711,5.5367,5.5588,5.5588,5.5395,5.5588,5.5588,5.5357,5.5588,5.5703,5.5742,5.7473,5.8627,0.0,0.0,0.0,4.4117,0.0,0.0,0.0,0.0,4.3515,0.0,0.0,0.0,0.0,0.0,0.0,0.0,0.0,0.0,0.0,0.0,0.0,0.0,0.0,0.0,0.0,0.0,0.0,4.7078,4.5858,4.5154,4.5164,4.5419,4.5594,4.5594,4.5594,4.5594,4.5594,4.5594,4.5594,4.5594,4.5594,4.5594,4.5594,4.5594,4.5594,4.5594,4.5594,4.5594,4.5594,4.5594,4.5594,4.5594,4.5594,4.5594,4.5594,4.5594,4.5594,4.5594,4.5594,4.5594,4.5748,4.6624,4.6885,4.7201,4.8894,4.9394,4.9604,5.0604,5.147,5.2175,5.2451,5.3191,5.4101,5.5115,5.5351,5.5586,5.6406,5.6601,5.6601,5.6601,5.6601,5.656,5.6443,5.6394,5.6454,5.6562,5.6507,5.6454,5.6562,5.6601,5.6601,5.6601,5.6601,5.6601,5.6601,5.6601,5.6115,5.5015,5.5423,5.5367,5.4549,5.528,5.5318,5.4549,5.528,5.5318,5.4549,5.5318,5.5703,5.5742,5.7473,5.8319,0.0,0.0,4.4762,4.4161,0.0,0.0,0.0,0.0,0.0,0.0,0.0,0.0,0.0,0.0,0.0,0.0,0.0,0.0,0.0,0.0,0.0,0.0,0.0,0.0,0.0,0.0,0.0,4.6156,4.5057,4.4495,4.4763,4.5105,4.5263,4.5263,4.5466,4.5594,4.5594,4.5594,4.5594,4.5594,4.5594,4.5594,4.5594,4.5594,4.5594,4.5594,4.5594,4.5594,4.5594,4.5594,4.5594,4.5594,4.5594,4.5594,4.5594,4.5594,4.5594,4.5594,4.5594,4.5594,4.5633,4.5932,4.6047,4.6355,4.8048,4.8548,4.8899,5.0558,5.1608,5.2295,5.2555,5.3275,5.4019,5.4375,5.4453,5.4687,5.5547,5.5742,5.5898,5.6484,5.6601,5.6601,5.6558,5.6456,5.6438,5.6458,5.6511,5.6559,5.6601,5.6601,5.6601,5.6601,5.6601,5.6561,5.6463,5.6383,5.6095,5.5578,5.5241,5.5123,5.5291,5.5049,5.5011,5.528,5.5549,5.5549,5.528,5.5549,5.5703,5.5742,5.6896,5.7742,4.4263,4.4247,0.0,4.3683,4.3705,0.0,4.3529,0.0,0.0,0.0,0.0,0.0,0.0,0.0,0.0,0.0,0.0,0.0,0.0,4.3321,0.0,0.0,0.0,0.0,0.0,0.0,4.4915,4.5365,4.4543,4.4175,0.0,0.0,4.5159,4.5263,4.5475,4.5594,4.5594,4.5594,4.5594,4.5594,4.5594,4.5594,4.5594,4.5594,4.5594,4.5594,4.5594,4.5594,4.5594,4.5594,4.5594,4.5594,4.5594,4.5594,4.5594,4.5594,4.5594,4.5594,4.5594,4.5594,4.5594,4.5594,4.5594,4.5902,4.7586,4.8086,4.8552,5.0824,5.168,5.2001,5.2518,5.2849,5.3164,5.3476,5.3555,5.3867,5.5039,5.5312,5.5547,5.6445,5.6601,5.6562,5.6557,5.6508,5.6462,5.6462,5.6511,5.6558,5.6601,5.6601,5.6601,5.6601,5.6601,5.6558,5.6397,5.6222,5.6057,5.5924,5.5122,5.4968,5.5675,5.4934,5.4895,5.5665,5.5703,5.5703,5.5703,5.5703,5.5703,5.5703,5.6291,5.7165]}]]